<?xml version="1.0" encoding="UTF-8" standalone="no" ?>
<gpx xmlns="http://www.topografix.com/GPX/1/1" xmlns:xsi="http://www.w3.org/2001/XMLSchema-instance" xsi:schemaLocation="http://www.topografix.com/GPX/1/1 http://www.topografix.com/GPX/1/1/gpx.xsd" version="1.1" creator="VisuGPX - https://www.visugpx.com">
  <metadata>
    <name>Vélo bleu - Circuit 1</name>
    <desc><![CDATA[Petit patrimoine sur ce circuit : 
- Lavoirs de Mertrud, Bailly-aux-Forges, Louvemont, Puellemontier, Thilleux, Rozières et Sommevoire.
- Chapelle Sainte-Colombe de Sommevoire.]]></desc>
  </metadata>
  <trk>
    <name><![CDATA[Sortie vélo le matin]]></name>
    <trkseg>
      <trkpt lat="48.42191" lon="4.88956">
        <ele>164.5</ele>
        <time>2023-09-09T06:12:20Z</time>
      </trkpt>
      <trkpt lat="48.42194" lon="4.88959">
        <ele>164.6</ele>
        <time>2023-09-09T06:12:23Z</time>
      </trkpt>
      <trkpt lat="48.42195" lon="4.88961">
        <ele>164.6</ele>
        <time>2023-09-09T06:12:24Z</time>
      </trkpt>
      <trkpt lat="48.42205" lon="4.88973">
        <ele>164.7</ele>
        <time>2023-09-09T06:12:30Z</time>
      </trkpt>
      <trkpt lat="48.42217" lon="4.88988">
        <ele>165</ele>
        <time>2023-09-09T06:12:35Z</time>
      </trkpt>
      <trkpt lat="48.42226" lon="4.89">
        <ele>165.2</ele>
        <time>2023-09-09T06:12:38Z</time>
      </trkpt>
      <trkpt lat="48.42235" lon="4.89011">
        <ele>165.5</ele>
        <time>2023-09-09T06:12:41Z</time>
      </trkpt>
      <trkpt lat="48.42244" lon="4.89023">
        <ele>165.8</ele>
        <time>2023-09-09T06:12:45Z</time>
      </trkpt>
      <trkpt lat="48.42254" lon="4.89031">
        <ele>166.2</ele>
        <time>2023-09-09T06:12:47Z</time>
      </trkpt>
      <trkpt lat="48.42263" lon="4.89034">
        <ele>166.4</ele>
        <time>2023-09-09T06:12:49Z</time>
      </trkpt>
      <trkpt lat="48.4228" lon="4.89038">
        <ele>166.8</ele>
        <time>2023-09-09T06:12:53Z</time>
      </trkpt>
      <trkpt lat="48.42316" lon="4.89049">
        <ele>167.2</ele>
        <time>2023-09-09T06:13:01Z</time>
      </trkpt>
      <trkpt lat="48.42344" lon="4.89057">
        <ele>167.5</ele>
        <time>2023-09-09T06:13:07Z</time>
      </trkpt>
      <trkpt lat="48.42357" lon="4.89066">
        <ele>167.6</ele>
        <time>2023-09-09T06:13:10Z</time>
      </trkpt>
      <trkpt lat="48.4236" lon="4.8907">
        <ele>167.7</ele>
        <time>2023-09-09T06:13:11Z</time>
      </trkpt>
      <trkpt lat="48.42383" lon="4.89094">
        <ele>167.9</ele>
        <time>2023-09-09T06:13:17Z</time>
      </trkpt>
      <trkpt lat="48.42414" lon="4.89129">
        <ele>168.1</ele>
        <time>2023-09-09T06:13:25Z</time>
      </trkpt>
      <trkpt lat="48.42438" lon="4.89155">
        <ele>168.6</ele>
        <time>2023-09-09T06:13:31Z</time>
      </trkpt>
      <trkpt lat="48.42467" lon="4.89178">
        <ele>168.8</ele>
        <time>2023-09-09T06:13:38Z</time>
      </trkpt>
      <trkpt lat="48.42486" lon="4.89194">
        <ele>168.7</ele>
        <time>2023-09-09T06:13:44Z</time>
      </trkpt>
      <trkpt lat="48.42501" lon="4.89201">
        <ele>168.5</ele>
        <time>2023-09-09T06:13:49Z</time>
      </trkpt>
      <trkpt lat="48.42503" lon="4.89202">
        <ele>168.5</ele>
        <time>2023-09-09T06:13:52Z</time>
      </trkpt>
      <trkpt lat="48.42514" lon="4.89205">
        <ele>168.4</ele>
        <time>2023-09-09T06:16:31Z</time>
      </trkpt>
      <trkpt lat="48.42514" lon="4.89205">
        <ele>168.4</ele>
        <time>2023-09-09T06:16:34Z</time>
      </trkpt>
      <trkpt lat="48.42521" lon="4.89207">
        <ele>168.3</ele>
        <time>2023-09-09T06:16:40Z</time>
      </trkpt>
      <trkpt lat="48.42523" lon="4.89208">
        <ele>168.3</ele>
        <time>2023-09-09T06:16:41Z</time>
      </trkpt>
      <trkpt lat="48.42535" lon="4.89211">
        <ele>168.1</ele>
        <time>2023-09-09T06:16:46Z</time>
      </trkpt>
      <trkpt lat="48.42542" lon="4.89208">
        <ele>168</ele>
        <time>2023-09-09T06:16:48Z</time>
      </trkpt>
      <trkpt lat="48.42556" lon="4.89204">
        <ele>168</ele>
        <time>2023-09-09T06:16:51Z</time>
      </trkpt>
      <trkpt lat="48.42589" lon="4.89196">
        <ele>167.6</ele>
        <time>2023-09-09T06:16:57Z</time>
      </trkpt>
      <trkpt lat="48.42618" lon="4.89195">
        <ele>167.5</ele>
        <time>2023-09-09T06:17:02Z</time>
      </trkpt>
      <trkpt lat="48.42658" lon="4.89204">
        <ele>168.1</ele>
        <time>2023-09-09T06:17:09Z</time>
      </trkpt>
      <trkpt lat="48.42694" lon="4.89225">
        <ele>169.7</ele>
        <time>2023-09-09T06:17:16Z</time>
      </trkpt>
      <trkpt lat="48.42727" lon="4.89252">
        <ele>171</ele>
        <time>2023-09-09T06:17:23Z</time>
      </trkpt>
      <trkpt lat="48.42758" lon="4.89279">
        <ele>172.4</ele>
        <time>2023-09-09T06:17:30Z</time>
      </trkpt>
      <trkpt lat="48.42797" lon="4.89315">
        <ele>174.3</ele>
        <time>2023-09-09T06:17:39Z</time>
      </trkpt>
      <trkpt lat="48.42828" lon="4.89351">
        <ele>175.9</ele>
        <time>2023-09-09T06:17:47Z</time>
      </trkpt>
      <trkpt lat="48.42863" lon="4.8939">
        <ele>177.2</ele>
        <time>2023-09-09T06:17:56Z</time>
      </trkpt>
      <trkpt lat="48.42894" lon="4.89426">
        <ele>178.2</ele>
        <time>2023-09-09T06:18:04Z</time>
      </trkpt>
      <trkpt lat="48.4293" lon="4.89466">
        <ele>179.2</ele>
        <time>2023-09-09T06:18:13Z</time>
      </trkpt>
      <trkpt lat="48.4296" lon="4.89485">
        <ele>180.3</ele>
        <time>2023-09-09T06:18:20Z</time>
      </trkpt>
      <trkpt lat="48.42993" lon="4.89506">
        <ele>182.3</ele>
        <time>2023-09-09T06:18:28Z</time>
      </trkpt>
      <trkpt lat="48.43016" lon="4.89534">
        <ele>183.7</ele>
        <time>2023-09-09T06:18:35Z</time>
      </trkpt>
      <trkpt lat="48.43038" lon="4.89574">
        <ele>184.6</ele>
        <time>2023-09-09T06:18:43Z</time>
      </trkpt>
      <trkpt lat="48.43059" lon="4.89613">
        <ele>185</ele>
        <time>2023-09-09T06:18:50Z</time>
      </trkpt>
      <trkpt lat="48.4308" lon="4.89651">
        <ele>185.7</ele>
        <time>2023-09-09T06:18:57Z</time>
      </trkpt>
      <trkpt lat="48.43108" lon="4.89694">
        <ele>186.4</ele>
        <time>2023-09-09T06:19:05Z</time>
      </trkpt>
      <trkpt lat="48.43141" lon="4.89739">
        <ele>187.3</ele>
        <time>2023-09-09T06:19:14Z</time>
      </trkpt>
      <trkpt lat="48.43178" lon="4.89788">
        <ele>188.3</ele>
        <time>2023-09-09T06:19:24Z</time>
      </trkpt>
      <trkpt lat="48.4321" lon="4.89831">
        <ele>188.9</ele>
        <time>2023-09-09T06:19:32Z</time>
      </trkpt>
      <trkpt lat="48.4324" lon="4.89866">
        <ele>189</ele>
        <time>2023-09-09T06:19:39Z</time>
      </trkpt>
      <trkpt lat="48.43249" lon="4.89876">
        <ele>188.9</ele>
        <time>2023-09-09T06:19:41Z</time>
      </trkpt>
      <trkpt lat="48.43264" lon="4.89891">
        <ele>188.6</ele>
        <time>2023-09-09T06:19:44Z</time>
      </trkpt>
      <trkpt lat="48.43289" lon="4.89902">
        <ele>188.4</ele>
        <time>2023-09-09T06:19:49Z</time>
      </trkpt>
      <trkpt lat="48.43296" lon="4.89906">
        <ele>188.3</ele>
        <time>2023-09-09T06:19:50Z</time>
      </trkpt>
      <trkpt lat="48.43314" lon="4.89914">
        <ele>187.9</ele>
        <time>2023-09-09T06:19:53Z</time>
      </trkpt>
      <trkpt lat="48.43349" lon="4.8993">
        <ele>187.2</ele>
        <time>2023-09-09T06:19:58Z</time>
      </trkpt>
      <trkpt lat="48.43371" lon="4.8994">
        <ele>186.8</ele>
        <time>2023-09-09T06:20:01Z</time>
      </trkpt>
      <trkpt lat="48.43377" lon="4.89943">
        <ele>186.7</ele>
        <time>2023-09-09T06:20:02Z</time>
      </trkpt>
      <trkpt lat="48.43418" lon="4.89962">
        <ele>185.9</ele>
        <time>2023-09-09T06:20:08Z</time>
      </trkpt>
      <trkpt lat="48.43445" lon="4.89973">
        <ele>185.7</ele>
        <time>2023-09-09T06:20:12Z</time>
      </trkpt>
      <trkpt lat="48.43477" lon="4.89988">
        <ele>185.9</ele>
        <time>2023-09-09T06:20:17Z</time>
      </trkpt>
      <trkpt lat="48.4351" lon="4.90003">
        <ele>185.8</ele>
        <time>2023-09-09T06:20:22Z</time>
      </trkpt>
      <trkpt lat="48.43536" lon="4.90015">
        <ele>185.7</ele>
        <time>2023-09-09T06:20:26Z</time>
      </trkpt>
      <trkpt lat="48.43561" lon="4.90027">
        <ele>185.7</ele>
        <time>2023-09-09T06:20:30Z</time>
      </trkpt>
      <trkpt lat="48.43577" lon="4.90034">
        <ele>185.7</ele>
        <time>2023-09-09T06:20:33Z</time>
      </trkpt>
      <trkpt lat="48.43583" lon="4.90037">
        <ele>185.8</ele>
        <time>2023-09-09T06:20:34Z</time>
      </trkpt>
      <trkpt lat="48.43593" lon="4.90041">
        <ele>185.8</ele>
        <time>2023-09-09T06:20:36Z</time>
      </trkpt>
      <trkpt lat="48.43605" lon="4.90047">
        <ele>185.9</ele>
        <time>2023-09-09T06:20:38Z</time>
      </trkpt>
      <trkpt lat="48.43625" lon="4.90056">
        <ele>185.9</ele>
        <time>2023-09-09T06:20:41Z</time>
      </trkpt>
      <trkpt lat="48.43632" lon="4.90059">
        <ele>185.9</ele>
        <time>2023-09-09T06:20:42Z</time>
      </trkpt>
      <trkpt lat="48.43645" lon="4.90065">
        <ele>185.8</ele>
        <time>2023-09-09T06:20:44Z</time>
      </trkpt>
      <trkpt lat="48.43651" lon="4.90068">
        <ele>185.7</ele>
        <time>2023-09-09T06:20:45Z</time>
      </trkpt>
      <trkpt lat="48.43697" lon="4.90091">
        <ele>184.7</ele>
        <time>2023-09-09T06:20:51Z</time>
      </trkpt>
      <trkpt lat="48.43745" lon="4.90123">
        <ele>183.6</ele>
        <time>2023-09-09T06:20:57Z</time>
      </trkpt>
      <trkpt lat="48.43798" lon="4.90159">
        <ele>182.7</ele>
        <time>2023-09-09T06:21:04Z</time>
      </trkpt>
      <trkpt lat="48.4383" lon="4.9018">
        <ele>182.8</ele>
        <time>2023-09-09T06:21:08Z</time>
      </trkpt>
      <trkpt lat="48.43873" lon="4.90209">
        <ele>183.2</ele>
        <time>2023-09-09T06:21:14Z</time>
      </trkpt>
      <trkpt lat="48.43919" lon="4.90239">
        <ele>182</ele>
        <time>2023-09-09T06:21:20Z</time>
      </trkpt>
      <trkpt lat="48.43965" lon="4.9027">
        <ele>180.1</ele>
        <time>2023-09-09T06:21:26Z</time>
      </trkpt>
      <trkpt lat="48.44004" lon="4.90296">
        <ele>177.5</ele>
        <time>2023-09-09T06:21:31Z</time>
      </trkpt>
      <trkpt lat="48.44049" lon="4.90326">
        <ele>174.8</ele>
        <time>2023-09-09T06:21:36Z</time>
      </trkpt>
      <trkpt lat="48.44099" lon="4.90348">
        <ele>172.3</ele>
        <time>2023-09-09T06:21:41Z</time>
      </trkpt>
      <trkpt lat="48.44148" lon="4.90366">
        <ele>170.4</ele>
        <time>2023-09-09T06:21:46Z</time>
      </trkpt>
      <trkpt lat="48.44185" lon="4.9038">
        <ele>169.2</ele>
        <time>2023-09-09T06:21:50Z</time>
      </trkpt>
      <trkpt lat="48.44239" lon="4.904">
        <ele>167.8</ele>
        <time>2023-09-09T06:21:56Z</time>
      </trkpt>
      <trkpt lat="48.44247" lon="4.90404">
        <ele>167.5</ele>
        <time>2023-09-09T06:21:57Z</time>
      </trkpt>
      <trkpt lat="48.44294" lon="4.90421">
        <ele>165.4</ele>
        <time>2023-09-09T06:22:02Z</time>
      </trkpt>
      <trkpt lat="48.44351" lon="4.90442">
        <ele>161.8</ele>
        <time>2023-09-09T06:22:08Z</time>
      </trkpt>
      <trkpt lat="48.44398" lon="4.9046">
        <ele>158.8</ele>
        <time>2023-09-09T06:22:13Z</time>
      </trkpt>
      <trkpt lat="48.44455" lon="4.90481">
        <ele>157.2</ele>
        <time>2023-09-09T06:22:19Z</time>
      </trkpt>
      <trkpt lat="48.44496" lon="4.90491">
        <ele>157.2</ele>
        <time>2023-09-09T06:22:24Z</time>
      </trkpt>
      <trkpt lat="48.44544" lon="4.90493">
        <ele>158</ele>
        <time>2023-09-09T06:22:30Z</time>
      </trkpt>
      <trkpt lat="48.44586" lon="4.90496">
        <ele>159.6</ele>
        <time>2023-09-09T06:22:36Z</time>
      </trkpt>
      <trkpt lat="48.44619" lon="4.90498">
        <ele>161.6</ele>
        <time>2023-09-09T06:22:42Z</time>
      </trkpt>
      <trkpt lat="48.44659" lon="4.905">
        <ele>164</ele>
        <time>2023-09-09T06:22:50Z</time>
      </trkpt>
      <trkpt lat="48.44676" lon="4.90501">
        <ele>165</ele>
        <time>2023-09-09T06:22:54Z</time>
      </trkpt>
      <trkpt lat="48.44704" lon="4.90503">
        <ele>166.8</ele>
        <time>2023-09-09T06:23:00Z</time>
      </trkpt>
      <trkpt lat="48.44734" lon="4.90504">
        <ele>168.6</ele>
        <time>2023-09-09T06:23:07Z</time>
      </trkpt>
      <trkpt lat="48.44761" lon="4.90506">
        <ele>169.9</ele>
        <time>2023-09-09T06:23:13Z</time>
      </trkpt>
      <trkpt lat="48.44786" lon="4.90507">
        <ele>170.9</ele>
        <time>2023-09-09T06:23:18Z</time>
      </trkpt>
      <trkpt lat="48.44826" lon="4.9051">
        <ele>171.8</ele>
        <time>2023-09-09T06:23:26Z</time>
      </trkpt>
      <trkpt lat="48.44864" lon="4.90512">
        <ele>172</ele>
        <time>2023-09-09T06:23:33Z</time>
      </trkpt>
      <trkpt lat="48.44896" lon="4.90514">
        <ele>171.3</ele>
        <time>2023-09-09T06:23:39Z</time>
      </trkpt>
      <trkpt lat="48.44931" lon="4.90516">
        <ele>170.4</ele>
        <time>2023-09-09T06:23:45Z</time>
      </trkpt>
      <trkpt lat="48.44987" lon="4.90519">
        <ele>168.5</ele>
        <time>2023-09-09T06:23:53Z</time>
      </trkpt>
      <trkpt lat="48.45044" lon="4.90522">
        <ele>166.9</ele>
        <time>2023-09-09T06:24:01Z</time>
      </trkpt>
      <trkpt lat="48.45089" lon="4.90527">
        <ele>165.9</ele>
        <time>2023-09-09T06:24:07Z</time>
      </trkpt>
      <trkpt lat="48.45097" lon="4.90529">
        <ele>165.8</ele>
        <time>2023-09-09T06:24:08Z</time>
      </trkpt>
      <trkpt lat="48.45106" lon="4.90534">
        <ele>165.7</ele>
        <time>2023-09-09T06:24:09Z</time>
      </trkpt>
      <trkpt lat="48.45117" lon="4.90549">
        <ele>165.6</ele>
        <time>2023-09-09T06:24:11Z</time>
      </trkpt>
      <trkpt lat="48.45125" lon="4.90568">
        <ele>165.7</ele>
        <time>2023-09-09T06:24:13Z</time>
      </trkpt>
      <trkpt lat="48.45133" lon="4.90586">
        <ele>165.9</ele>
        <time>2023-09-09T06:24:15Z</time>
      </trkpt>
      <trkpt lat="48.45137" lon="4.90595">
        <ele>166</ele>
        <time>2023-09-09T06:24:16Z</time>
      </trkpt>
      <trkpt lat="48.45152" lon="4.90628">
        <ele>166.6</ele>
        <time>2023-09-09T06:24:20Z</time>
      </trkpt>
      <trkpt lat="48.45179" lon="4.90655">
        <ele>168</ele>
        <time>2023-09-09T06:24:25Z</time>
      </trkpt>
      <trkpt lat="48.45214" lon="4.90682">
        <ele>170.3</ele>
        <time>2023-09-09T06:24:32Z</time>
      </trkpt>
      <trkpt lat="48.45251" lon="4.907">
        <ele>172.7</ele>
        <time>2023-09-09T06:24:40Z</time>
      </trkpt>
      <trkpt lat="48.45292" lon="4.90707">
        <ele>174.6</ele>
        <time>2023-09-09T06:24:49Z</time>
      </trkpt>
      <trkpt lat="48.45326" lon="4.90712">
        <ele>175.5</ele>
        <time>2023-09-09T06:24:56Z</time>
      </trkpt>
      <trkpt lat="48.45373" lon="4.90718">
        <ele>175.8</ele>
        <time>2023-09-09T06:25:05Z</time>
      </trkpt>
      <trkpt lat="48.45411" lon="4.90731">
        <ele>175</ele>
        <time>2023-09-09T06:25:13Z</time>
      </trkpt>
      <trkpt lat="48.45428" lon="4.9074">
        <ele>174.5</ele>
        <time>2023-09-09T06:25:16Z</time>
      </trkpt>
      <trkpt lat="48.45438" lon="4.90752">
        <ele>174.1</ele>
        <time>2023-09-09T06:25:18Z</time>
      </trkpt>
      <trkpt lat="48.45443" lon="4.90759">
        <ele>173.9</ele>
        <time>2023-09-09T06:25:19Z</time>
      </trkpt>
      <trkpt lat="48.4546" lon="4.90789">
        <ele>173</ele>
        <time>2023-09-09T06:25:23Z</time>
      </trkpt>
      <trkpt lat="48.45496" lon="4.9086">
        <ele>171.5</ele>
        <time>2023-09-09T06:25:31Z</time>
      </trkpt>
      <trkpt lat="48.45501" lon="4.90869">
        <ele>171.4</ele>
        <time>2023-09-09T06:25:32Z</time>
      </trkpt>
      <trkpt lat="48.45514" lon="4.90895">
        <ele>171.2</ele>
        <time>2023-09-09T06:25:35Z</time>
      </trkpt>
      <trkpt lat="48.45524" lon="4.90911">
        <ele>171.2</ele>
        <time>2023-09-09T06:25:37Z</time>
      </trkpt>
      <trkpt lat="48.45553" lon="4.90958">
        <ele>171</ele>
        <time>2023-09-09T06:25:43Z</time>
      </trkpt>
      <trkpt lat="48.45588" lon="4.91009">
        <ele>171.9</ele>
        <time>2023-09-09T06:25:50Z</time>
      </trkpt>
      <trkpt lat="48.45621" lon="4.91044">
        <ele>173.4</ele>
        <time>2023-09-09T06:25:56Z</time>
      </trkpt>
      <trkpt lat="48.45651" lon="4.91077">
        <ele>175.2</ele>
        <time>2023-09-09T06:26:02Z</time>
      </trkpt>
      <trkpt lat="48.45675" lon="4.91105">
        <ele>177</ele>
        <time>2023-09-09T06:26:08Z</time>
      </trkpt>
      <trkpt lat="48.45679" lon="4.91109">
        <ele>177.2</ele>
        <time>2023-09-09T06:26:09Z</time>
      </trkpt>
      <trkpt lat="48.457" lon="4.91149">
        <ele>178.2</ele>
        <time>2023-09-09T06:26:16Z</time>
      </trkpt>
      <trkpt lat="48.45717" lon="4.91201">
        <ele>178</ele>
        <time>2023-09-09T06:26:23Z</time>
      </trkpt>
      <trkpt lat="48.45732" lon="4.91262">
        <ele>176.8</ele>
        <time>2023-09-09T06:26:30Z</time>
      </trkpt>
      <trkpt lat="48.45751" lon="4.91322">
        <ele>175.6</ele>
        <time>2023-09-09T06:26:37Z</time>
      </trkpt>
      <trkpt lat="48.45782" lon="4.91386">
        <ele>175.1</ele>
        <time>2023-09-09T06:26:45Z</time>
      </trkpt>
      <trkpt lat="48.45814" lon="4.91437">
        <ele>175</ele>
        <time>2023-09-09T06:26:53Z</time>
      </trkpt>
      <trkpt lat="48.45842" lon="4.91481">
        <ele>174.9</ele>
        <time>2023-09-09T06:27:00Z</time>
      </trkpt>
      <trkpt lat="48.45865" lon="4.91513">
        <ele>175.1</ele>
        <time>2023-09-09T06:27:06Z</time>
      </trkpt>
      <trkpt lat="48.45878" lon="4.91528">
        <ele>175.1</ele>
        <time>2023-09-09T06:27:11Z</time>
      </trkpt>
      <trkpt lat="48.45886" lon="4.91535">
        <ele>175.1</ele>
        <time>2023-09-09T06:27:16Z</time>
      </trkpt>
      <trkpt lat="48.45886" lon="4.91535">
        <ele>175.1</ele>
        <time>2023-09-09T06:27:18Z</time>
      </trkpt>
      <trkpt lat="48.45885" lon="4.91535">
        <ele>175.1</ele>
        <time>2023-09-09T06:31:09Z</time>
      </trkpt>
      <trkpt lat="48.45887" lon="4.91536">
        <ele>175.1</ele>
        <time>2023-09-09T06:31:10Z</time>
      </trkpt>
      <trkpt lat="48.45898" lon="4.91547">
        <ele>175.3</ele>
        <time>2023-09-09T06:31:16Z</time>
      </trkpt>
      <trkpt lat="48.45915" lon="4.91563">
        <ele>175.6</ele>
        <time>2023-09-09T06:31:22Z</time>
      </trkpt>
      <trkpt lat="48.45928" lon="4.91555">
        <ele>175.8</ele>
        <time>2023-09-09T06:31:27Z</time>
      </trkpt>
      <trkpt lat="48.45935" lon="4.91549">
        <ele>175.9</ele>
        <time>2023-09-09T06:31:29Z</time>
      </trkpt>
      <trkpt lat="48.45942" lon="4.91542">
        <ele>176</ele>
        <time>2023-09-09T06:31:31Z</time>
      </trkpt>
      <trkpt lat="48.45946" lon="4.91539">
        <ele>176.1</ele>
        <time>2023-09-09T06:31:32Z</time>
      </trkpt>
      <trkpt lat="48.45952" lon="4.9153">
        <ele>176.2</ele>
        <time>2023-09-09T06:31:34Z</time>
      </trkpt>
      <trkpt lat="48.45962" lon="4.91511">
        <ele>176.4</ele>
        <time>2023-09-09T06:31:38Z</time>
      </trkpt>
      <trkpt lat="48.4597" lon="4.91495">
        <ele>176.6</ele>
        <time>2023-09-09T06:31:41Z</time>
      </trkpt>
      <trkpt lat="48.45978" lon="4.91487">
        <ele>176.9</ele>
        <time>2023-09-09T06:31:43Z</time>
      </trkpt>
      <trkpt lat="48.45987" lon="4.91481">
        <ele>177.3</ele>
        <time>2023-09-09T06:31:45Z</time>
      </trkpt>
      <trkpt lat="48.45995" lon="4.91481">
        <ele>177.6</ele>
        <time>2023-09-09T06:31:47Z</time>
      </trkpt>
      <trkpt lat="48.45999" lon="4.9148">
        <ele>177.8</ele>
        <time>2023-09-09T06:31:48Z</time>
      </trkpt>
      <trkpt lat="48.46022" lon="4.91478">
        <ele>178.7</ele>
        <time>2023-09-09T06:31:54Z</time>
      </trkpt>
      <trkpt lat="48.46048" lon="4.91475">
        <ele>179.5</ele>
        <time>2023-09-09T06:32:01Z</time>
      </trkpt>
      <trkpt lat="48.46072" lon="4.91473">
        <ele>180</ele>
        <time>2023-09-09T06:32:07Z</time>
      </trkpt>
      <trkpt lat="48.46101" lon="4.91481">
        <ele>180.3</ele>
        <time>2023-09-09T06:32:14Z</time>
      </trkpt>
      <trkpt lat="48.4611" lon="4.91484">
        <ele>180.4</ele>
        <time>2023-09-09T06:32:16Z</time>
      </trkpt>
      <trkpt lat="48.46127" lon="4.91489">
        <ele>180.6</ele>
        <time>2023-09-09T06:32:20Z</time>
      </trkpt>
      <trkpt lat="48.46152" lon="4.91497">
        <ele>181.1</ele>
        <time>2023-09-09T06:32:26Z</time>
      </trkpt>
      <trkpt lat="48.46155" lon="4.91498">
        <ele>181.2</ele>
        <time>2023-09-09T06:32:27Z</time>
      </trkpt>
      <trkpt lat="48.46174" lon="4.91501">
        <ele>181.6</ele>
        <time>2023-09-09T06:32:33Z</time>
      </trkpt>
      <trkpt lat="48.46192" lon="4.91493">
        <ele>182.1</ele>
        <time>2023-09-09T06:32:39Z</time>
      </trkpt>
      <trkpt lat="48.46213" lon="4.91474">
        <ele>182.9</ele>
        <time>2023-09-09T06:32:45Z</time>
      </trkpt>
      <trkpt lat="48.46239" lon="4.91447">
        <ele>184.1</ele>
        <time>2023-09-09T06:32:52Z</time>
      </trkpt>
      <trkpt lat="48.46242" lon="4.91442">
        <ele>184.3</ele>
        <time>2023-09-09T06:32:53Z</time>
      </trkpt>
      <trkpt lat="48.4626" lon="4.91419">
        <ele>185.2</ele>
        <time>2023-09-09T06:32:58Z</time>
      </trkpt>
      <trkpt lat="48.46263" lon="4.91414">
        <ele>185.4</ele>
        <time>2023-09-09T06:32:59Z</time>
      </trkpt>
      <trkpt lat="48.46283" lon="4.91385">
        <ele>186.6</ele>
        <time>2023-09-09T06:33:05Z</time>
      </trkpt>
      <trkpt lat="48.46287" lon="4.9138">
        <ele>186.8</ele>
        <time>2023-09-09T06:33:06Z</time>
      </trkpt>
      <trkpt lat="48.46307" lon="4.91349">
        <ele>187.9</ele>
        <time>2023-09-09T06:33:12Z</time>
      </trkpt>
      <trkpt lat="48.46311" lon="4.91344">
        <ele>188.1</ele>
        <time>2023-09-09T06:33:13Z</time>
      </trkpt>
      <trkpt lat="48.46334" lon="4.91309">
        <ele>189.1</ele>
        <time>2023-09-09T06:33:20Z</time>
      </trkpt>
      <trkpt lat="48.46361" lon="4.91269">
        <ele>189.8</ele>
        <time>2023-09-09T06:33:28Z</time>
      </trkpt>
      <trkpt lat="48.46382" lon="4.91237">
        <ele>190.1</ele>
        <time>2023-09-09T06:33:34Z</time>
      </trkpt>
      <trkpt lat="48.46389" lon="4.91227">
        <ele>190.1</ele>
        <time>2023-09-09T06:33:36Z</time>
      </trkpt>
      <trkpt lat="48.46407" lon="4.91193">
        <ele>190.4</ele>
        <time>2023-09-09T06:33:42Z</time>
      </trkpt>
      <trkpt lat="48.46417" lon="4.91172">
        <ele>190.5</ele>
        <time>2023-09-09T06:33:46Z</time>
      </trkpt>
      <trkpt lat="48.4642" lon="4.91167">
        <ele>190.5</ele>
        <time>2023-09-09T06:33:47Z</time>
      </trkpt>
      <trkpt lat="48.46424" lon="4.91154">
        <ele>190.5</ele>
        <time>2023-09-09T06:33:50Z</time>
      </trkpt>
      <trkpt lat="48.46425" lon="4.91152">
        <ele>190.4</ele>
        <time>2023-09-09T06:33:51Z</time>
      </trkpt>
      <trkpt lat="48.46448" lon="4.91169">
        <ele>190.3</ele>
        <time>2023-09-09T06:33:55Z</time>
      </trkpt>
      <trkpt lat="48.46467" lon="4.91176">
        <ele>190.2</ele>
        <time>2023-09-09T06:34:00Z</time>
      </trkpt>
      <trkpt lat="48.46481" lon="4.91202">
        <ele>190</ele>
        <time>2023-09-09T06:34:05Z</time>
      </trkpt>
      <trkpt lat="48.4651" lon="4.91247">
        <ele>189.8</ele>
        <time>2023-09-09T06:34:12Z</time>
      </trkpt>
      <trkpt lat="48.4655" lon="4.913">
        <ele>189.7</ele>
        <time>2023-09-09T06:34:20Z</time>
      </trkpt>
      <trkpt lat="48.46593" lon="4.91356">
        <ele>189.7</ele>
        <time>2023-09-09T06:34:28Z</time>
      </trkpt>
      <trkpt lat="48.46604" lon="4.9137">
        <ele>189.7</ele>
        <time>2023-09-09T06:34:30Z</time>
      </trkpt>
      <trkpt lat="48.46647" lon="4.91426">
        <ele>190.1</ele>
        <time>2023-09-09T06:34:38Z</time>
      </trkpt>
      <trkpt lat="48.46652" lon="4.91433">
        <ele>190.1</ele>
        <time>2023-09-09T06:34:39Z</time>
      </trkpt>
      <trkpt lat="48.46681" lon="4.9147">
        <ele>190.4</ele>
        <time>2023-09-09T06:34:45Z</time>
      </trkpt>
      <trkpt lat="48.46714" lon="4.91512">
        <ele>190.5</ele>
        <time>2023-09-09T06:34:52Z</time>
      </trkpt>
      <trkpt lat="48.46745" lon="4.91553">
        <ele>190.3</ele>
        <time>2023-09-09T06:34:58Z</time>
      </trkpt>
      <trkpt lat="48.46756" lon="4.91568">
        <ele>190.3</ele>
        <time>2023-09-09T06:35:00Z</time>
      </trkpt>
      <trkpt lat="48.46779" lon="4.91597">
        <ele>190.3</ele>
        <time>2023-09-09T06:35:04Z</time>
      </trkpt>
      <trkpt lat="48.46823" lon="4.91657">
        <ele>190.8</ele>
        <time>2023-09-09T06:35:12Z</time>
      </trkpt>
      <trkpt lat="48.46859" lon="4.91708">
        <ele>191.5</ele>
        <time>2023-09-09T06:35:19Z</time>
      </trkpt>
      <trkpt lat="48.46898" lon="4.91763">
        <ele>192.4</ele>
        <time>2023-09-09T06:35:27Z</time>
      </trkpt>
      <trkpt lat="48.46903" lon="4.9177">
        <ele>192.5</ele>
        <time>2023-09-09T06:35:28Z</time>
      </trkpt>
      <trkpt lat="48.46937" lon="4.91818">
        <ele>193.3</ele>
        <time>2023-09-09T06:35:35Z</time>
      </trkpt>
      <trkpt lat="48.46965" lon="4.91857">
        <ele>193.8</ele>
        <time>2023-09-09T06:35:41Z</time>
      </trkpt>
      <trkpt lat="48.46997" lon="4.91902">
        <ele>194.3</ele>
        <time>2023-09-09T06:35:48Z</time>
      </trkpt>
      <trkpt lat="48.47039" lon="4.9196">
        <ele>194.6</ele>
        <time>2023-09-09T06:35:57Z</time>
      </trkpt>
      <trkpt lat="48.47079" lon="4.92014">
        <ele>194.2</ele>
        <time>2023-09-09T06:36:05Z</time>
      </trkpt>
      <trkpt lat="48.47117" lon="4.92064">
        <ele>193.9</ele>
        <time>2023-09-09T06:36:12Z</time>
      </trkpt>
      <trkpt lat="48.4716" lon="4.92123">
        <ele>193</ele>
        <time>2023-09-09T06:36:20Z</time>
      </trkpt>
      <trkpt lat="48.47202" lon="4.92181">
        <ele>191.6</ele>
        <time>2023-09-09T06:36:27Z</time>
      </trkpt>
      <trkpt lat="48.47242" lon="4.92239">
        <ele>190.7</ele>
        <time>2023-09-09T06:36:34Z</time>
      </trkpt>
      <trkpt lat="48.47254" lon="4.92255">
        <ele>190.6</ele>
        <time>2023-09-09T06:36:36Z</time>
      </trkpt>
      <trkpt lat="48.47298" lon="4.92318">
        <ele>191</ele>
        <time>2023-09-09T06:36:44Z</time>
      </trkpt>
      <trkpt lat="48.47334" lon="4.92368">
        <ele>191.3</ele>
        <time>2023-09-09T06:36:51Z</time>
      </trkpt>
      <trkpt lat="48.47363" lon="4.92409">
        <ele>191.2</ele>
        <time>2023-09-09T06:36:57Z</time>
      </trkpt>
      <trkpt lat="48.47395" lon="4.92453">
        <ele>191.5</ele>
        <time>2023-09-09T06:37:03Z</time>
      </trkpt>
      <trkpt lat="48.47435" lon="4.9251">
        <ele>192.7</ele>
        <time>2023-09-09T06:37:11Z</time>
      </trkpt>
      <trkpt lat="48.4744" lon="4.92517">
        <ele>192.9</ele>
        <time>2023-09-09T06:37:12Z</time>
      </trkpt>
      <trkpt lat="48.47473" lon="4.92563">
        <ele>194.1</ele>
        <time>2023-09-09T06:37:19Z</time>
      </trkpt>
      <trkpt lat="48.4749" lon="4.92587">
        <ele>194.9</ele>
        <time>2023-09-09T06:37:23Z</time>
      </trkpt>
      <trkpt lat="48.47498" lon="4.92599">
        <ele>195.2</ele>
        <time>2023-09-09T06:37:25Z</time>
      </trkpt>
      <trkpt lat="48.47527" lon="4.9264">
        <ele>196.1</ele>
        <time>2023-09-09T06:37:32Z</time>
      </trkpt>
      <trkpt lat="48.47562" lon="4.9269">
        <ele>196.7</ele>
        <time>2023-09-09T06:37:40Z</time>
      </trkpt>
      <trkpt lat="48.47599" lon="4.9274">
        <ele>197.4</ele>
        <time>2023-09-09T06:37:48Z</time>
      </trkpt>
      <trkpt lat="48.47635" lon="4.92788">
        <ele>198.4</ele>
        <time>2023-09-09T06:37:56Z</time>
      </trkpt>
      <trkpt lat="48.47665" lon="4.92829">
        <ele>199.4</ele>
        <time>2023-09-09T06:38:03Z</time>
      </trkpt>
      <trkpt lat="48.47669" lon="4.92834">
        <ele>199.5</ele>
        <time>2023-09-09T06:38:04Z</time>
      </trkpt>
      <trkpt lat="48.47712" lon="4.92891">
        <ele>201</ele>
        <time>2023-09-09T06:38:14Z</time>
      </trkpt>
      <trkpt lat="48.47733" lon="4.9292">
        <ele>201.6</ele>
        <time>2023-09-09T06:38:19Z</time>
      </trkpt>
      <trkpt lat="48.47768" lon="4.92966">
        <ele>202.8</ele>
        <time>2023-09-09T06:38:27Z</time>
      </trkpt>
      <trkpt lat="48.47801" lon="4.93012">
        <ele>204</ele>
        <time>2023-09-09T06:38:35Z</time>
      </trkpt>
      <trkpt lat="48.47839" lon="4.93062">
        <ele>205.1</ele>
        <time>2023-09-09T06:38:44Z</time>
      </trkpt>
      <trkpt lat="48.47868" lon="4.93101">
        <ele>206</ele>
        <time>2023-09-09T06:38:51Z</time>
      </trkpt>
      <trkpt lat="48.47903" lon="4.93148">
        <ele>207</ele>
        <time>2023-09-09T06:39:00Z</time>
      </trkpt>
      <trkpt lat="48.47934" lon="4.9319">
        <ele>207.8</ele>
        <time>2023-09-09T06:39:08Z</time>
      </trkpt>
      <trkpt lat="48.47966" lon="4.93232">
        <ele>208.6</ele>
        <time>2023-09-09T06:39:16Z</time>
      </trkpt>
      <trkpt lat="48.47998" lon="4.93276">
        <ele>209.6</ele>
        <time>2023-09-09T06:39:24Z</time>
      </trkpt>
      <trkpt lat="48.4803" lon="4.93318">
        <ele>210.4</ele>
        <time>2023-09-09T06:39:32Z</time>
      </trkpt>
      <trkpt lat="48.48062" lon="4.93361">
        <ele>211.2</ele>
        <time>2023-09-09T06:39:40Z</time>
      </trkpt>
      <trkpt lat="48.48095" lon="4.93403">
        <ele>211.8</ele>
        <time>2023-09-09T06:39:48Z</time>
      </trkpt>
      <trkpt lat="48.48135" lon="4.93436">
        <ele>212</ele>
        <time>2023-09-09T06:39:56Z</time>
      </trkpt>
      <trkpt lat="48.48168" lon="4.93455">
        <ele>212.3</ele>
        <time>2023-09-09T06:40:02Z</time>
      </trkpt>
      <trkpt lat="48.4822" lon="4.93484">
        <ele>211.9</ele>
        <time>2023-09-09T06:40:11Z</time>
      </trkpt>
      <trkpt lat="48.48226" lon="4.93487">
        <ele>211.8</ele>
        <time>2023-09-09T06:40:12Z</time>
      </trkpt>
      <trkpt lat="48.48262" lon="4.93507">
        <ele>211</ele>
        <time>2023-09-09T06:40:18Z</time>
      </trkpt>
      <trkpt lat="48.48317" lon="4.93538">
        <ele>209.1</ele>
        <time>2023-09-09T06:40:26Z</time>
      </trkpt>
      <trkpt lat="48.48368" lon="4.93566">
        <ele>207.6</ele>
        <time>2023-09-09T06:40:33Z</time>
      </trkpt>
      <trkpt lat="48.48421" lon="4.93588">
        <ele>205.5</ele>
        <time>2023-09-09T06:40:40Z</time>
      </trkpt>
      <trkpt lat="48.48459" lon="4.93603">
        <ele>204.5</ele>
        <time>2023-09-09T06:40:45Z</time>
      </trkpt>
      <trkpt lat="48.48496" lon="4.9362">
        <ele>203.9</ele>
        <time>2023-09-09T06:40:50Z</time>
      </trkpt>
      <trkpt lat="48.48538" lon="4.93651">
        <ele>203.2</ele>
        <time>2023-09-09T06:40:56Z</time>
      </trkpt>
      <trkpt lat="48.48587" lon="4.93693">
        <ele>201.8</ele>
        <time>2023-09-09T06:41:03Z</time>
      </trkpt>
      <trkpt lat="48.48601" lon="4.93705">
        <ele>201.3</ele>
        <time>2023-09-09T06:41:05Z</time>
      </trkpt>
      <trkpt lat="48.48653" lon="4.93742">
        <ele>199</ele>
        <time>2023-09-09T06:41:12Z</time>
      </trkpt>
      <trkpt lat="48.48661" lon="4.93746">
        <ele>198.6</ele>
        <time>2023-09-09T06:41:13Z</time>
      </trkpt>
      <trkpt lat="48.48718" lon="4.9378">
        <ele>195.8</ele>
        <time>2023-09-09T06:41:20Z</time>
      </trkpt>
      <trkpt lat="48.48743" lon="4.93795">
        <ele>194.5</ele>
        <time>2023-09-09T06:41:23Z</time>
      </trkpt>
      <trkpt lat="48.48798" lon="4.93817">
        <ele>191.5</ele>
        <time>2023-09-09T06:41:29Z</time>
      </trkpt>
      <trkpt lat="48.48807" lon="4.9382">
        <ele>191</ele>
        <time>2023-09-09T06:41:30Z</time>
      </trkpt>
      <trkpt lat="48.48865" lon="4.93841">
        <ele>188.2</ele>
        <time>2023-09-09T06:41:36Z</time>
      </trkpt>
      <trkpt lat="48.48905" lon="4.93856">
        <ele>186.7</ele>
        <time>2023-09-09T06:41:40Z</time>
      </trkpt>
      <trkpt lat="48.48963" lon="4.9387">
        <ele>185.9</ele>
        <time>2023-09-09T06:41:46Z</time>
      </trkpt>
      <trkpt lat="48.48972" lon="4.93872">
        <ele>185.7</ele>
        <time>2023-09-09T06:41:47Z</time>
      </trkpt>
      <trkpt lat="48.49026" lon="4.93875">
        <ele>185.1</ele>
        <time>2023-09-09T06:41:53Z</time>
      </trkpt>
      <trkpt lat="48.49081" lon="4.93869">
        <ele>184.5</ele>
        <time>2023-09-09T06:41:59Z</time>
      </trkpt>
      <trkpt lat="48.4909" lon="4.93868">
        <ele>184.4</ele>
        <time>2023-09-09T06:42:00Z</time>
      </trkpt>
      <trkpt lat="48.4916" lon="4.9386">
        <ele>183</ele>
        <time>2023-09-09T06:42:08Z</time>
      </trkpt>
      <trkpt lat="48.49169" lon="4.93859">
        <ele>182.7</ele>
        <time>2023-09-09T06:42:09Z</time>
      </trkpt>
      <trkpt lat="48.49229" lon="4.93852">
        <ele>180.3</ele>
        <time>2023-09-09T06:42:16Z</time>
      </trkpt>
      <trkpt lat="48.49246" lon="4.9385">
        <ele>179.9</ele>
        <time>2023-09-09T06:42:18Z</time>
      </trkpt>
      <trkpt lat="48.49298" lon="4.93844">
        <ele>178.9</ele>
        <time>2023-09-09T06:42:24Z</time>
      </trkpt>
      <trkpt lat="48.49353" lon="4.93837">
        <ele>178.7</ele>
        <time>2023-09-09T06:42:31Z</time>
      </trkpt>
      <trkpt lat="48.4936" lon="4.93836">
        <ele>178.7</ele>
        <time>2023-09-09T06:42:32Z</time>
      </trkpt>
      <trkpt lat="48.49412" lon="4.93831">
        <ele>179.5</ele>
        <time>2023-09-09T06:42:39Z</time>
      </trkpt>
      <trkpt lat="48.49461" lon="4.93826">
        <ele>180.4</ele>
        <time>2023-09-09T06:42:47Z</time>
      </trkpt>
      <trkpt lat="48.49467" lon="4.93825">
        <ele>180.5</ele>
        <time>2023-09-09T06:42:48Z</time>
      </trkpt>
      <trkpt lat="48.49484" lon="4.93817">
        <ele>180.6</ele>
        <time>2023-09-09T06:42:51Z</time>
      </trkpt>
      <trkpt lat="48.49512" lon="4.93803">
        <ele>180.3</ele>
        <time>2023-09-09T06:42:56Z</time>
      </trkpt>
      <trkpt lat="48.49543" lon="4.93769">
        <ele>179.5</ele>
        <time>2023-09-09T06:43:02Z</time>
      </trkpt>
      <trkpt lat="48.49555" lon="4.93756">
        <ele>179</ele>
        <time>2023-09-09T06:43:04Z</time>
      </trkpt>
      <trkpt lat="48.49575" lon="4.93728">
        <ele>178.1</ele>
        <time>2023-09-09T06:43:08Z</time>
      </trkpt>
      <trkpt lat="48.49586" lon="4.93702">
        <ele>177</ele>
        <time>2023-09-09T06:43:11Z</time>
      </trkpt>
      <trkpt lat="48.49594" lon="4.93683">
        <ele>176.2</ele>
        <time>2023-09-09T06:43:13Z</time>
      </trkpt>
      <trkpt lat="48.49623" lon="4.93617">
        <ele>173.6</ele>
        <time>2023-09-09T06:43:20Z</time>
      </trkpt>
      <trkpt lat="48.49632" lon="4.93608">
        <ele>173.2</ele>
        <time>2023-09-09T06:43:22Z</time>
      </trkpt>
      <trkpt lat="48.49638" lon="4.93604">
        <ele>173</ele>
        <time>2023-09-09T06:43:23Z</time>
      </trkpt>
      <trkpt lat="48.49642" lon="4.93602">
        <ele>172.9</ele>
        <time>2023-09-09T06:43:24Z</time>
      </trkpt>
      <trkpt lat="48.49653" lon="4.93604">
        <ele>172.6</ele>
        <time>2023-09-09T06:43:27Z</time>
      </trkpt>
      <trkpt lat="48.49664" lon="4.93607">
        <ele>172.1</ele>
        <time>2023-09-09T06:43:32Z</time>
      </trkpt>
      <trkpt lat="48.49664" lon="4.93607">
        <ele>172.1</ele>
        <time>2023-09-09T06:43:34Z</time>
      </trkpt>
      <trkpt lat="48.49668" lon="4.93614">
        <ele>172</ele>
        <time>2023-09-09T06:43:41Z</time>
      </trkpt>
      <trkpt lat="48.49669" lon="4.93618">
        <ele>171.9</ele>
        <time>2023-09-09T06:43:42Z</time>
      </trkpt>
      <trkpt lat="48.49671" lon="4.93643">
        <ele>171.2</ele>
        <time>2023-09-09T06:43:47Z</time>
      </trkpt>
      <trkpt lat="48.49676" lon="4.93652">
        <ele>171.1</ele>
        <time>2023-09-09T06:43:50Z</time>
      </trkpt>
      <trkpt lat="48.49676" lon="4.93651">
        <ele>171</ele>
        <time>2023-09-09T06:43:51Z</time>
      </trkpt>
      <trkpt lat="48.49682" lon="4.93639">
        <ele>170.8</ele>
        <time>2023-09-09T06:43:55Z</time>
      </trkpt>
      <trkpt lat="48.49693" lon="4.93615">
        <ele>170.4</ele>
        <time>2023-09-09T06:44:00Z</time>
      </trkpt>
      <trkpt lat="48.49716" lon="4.9357">
        <ele>170.4</ele>
        <time>2023-09-09T06:44:07Z</time>
      </trkpt>
      <trkpt lat="48.49734" lon="4.93531">
        <ele>170.5</ele>
        <time>2023-09-09T06:44:12Z</time>
      </trkpt>
      <trkpt lat="48.49749" lon="4.935">
        <ele>170.5</ele>
        <time>2023-09-09T06:44:16Z</time>
      </trkpt>
      <trkpt lat="48.49757" lon="4.93484">
        <ele>170.4</ele>
        <time>2023-09-09T06:44:18Z</time>
      </trkpt>
      <trkpt lat="48.49761" lon="4.93477">
        <ele>170.4</ele>
        <time>2023-09-09T06:44:19Z</time>
      </trkpt>
      <trkpt lat="48.49772" lon="4.93453">
        <ele>170.2</ele>
        <time>2023-09-09T06:44:22Z</time>
      </trkpt>
      <trkpt lat="48.49788" lon="4.93421">
        <ele>170</ele>
        <time>2023-09-09T06:44:26Z</time>
      </trkpt>
      <trkpt lat="48.498" lon="4.93395">
        <ele>169.9</ele>
        <time>2023-09-09T06:44:29Z</time>
      </trkpt>
      <trkpt lat="48.4982" lon="4.93354">
        <ele>169.8</ele>
        <time>2023-09-09T06:44:34Z</time>
      </trkpt>
      <trkpt lat="48.4984" lon="4.93314">
        <ele>169.7</ele>
        <time>2023-09-09T06:44:39Z</time>
      </trkpt>
      <trkpt lat="48.49845" lon="4.93306">
        <ele>169.7</ele>
        <time>2023-09-09T06:44:40Z</time>
      </trkpt>
      <trkpt lat="48.49868" lon="4.93262">
        <ele>169.6</ele>
        <time>2023-09-09T06:44:46Z</time>
      </trkpt>
      <trkpt lat="48.49896" lon="4.93214">
        <ele>169.5</ele>
        <time>2023-09-09T06:44:52Z</time>
      </trkpt>
      <trkpt lat="48.49917" lon="4.93188">
        <ele>169</ele>
        <time>2023-09-09T06:44:56Z</time>
      </trkpt>
      <trkpt lat="48.49927" lon="4.93175">
        <ele>168.8</ele>
        <time>2023-09-09T06:44:58Z</time>
      </trkpt>
      <trkpt lat="48.49967" lon="4.93131">
        <ele>168</ele>
        <time>2023-09-09T06:45:06Z</time>
      </trkpt>
      <trkpt lat="48.50008" lon="4.93096">
        <ele>167.7</ele>
        <time>2023-09-09T06:45:14Z</time>
      </trkpt>
      <trkpt lat="48.50028" lon="4.93079">
        <ele>167.9</ele>
        <time>2023-09-09T06:45:19Z</time>
      </trkpt>
      <trkpt lat="48.50035" lon="4.93073">
        <ele>168</ele>
        <time>2023-09-09T06:45:23Z</time>
      </trkpt>
      <trkpt lat="48.50035" lon="4.93072">
        <ele>168</ele>
        <time>2023-09-09T06:45:26Z</time>
      </trkpt>
      <trkpt lat="48.50039" lon="4.93069">
        <ele>168.1</ele>
        <time>2023-09-09T06:45:55Z</time>
      </trkpt>
      <trkpt lat="48.50053" lon="4.93062">
        <ele>167.8</ele>
        <time>2023-09-09T06:46:00Z</time>
      </trkpt>
      <trkpt lat="48.5006" lon="4.93059">
        <ele>167.5</ele>
        <time>2023-09-09T06:46:02Z</time>
      </trkpt>
      <trkpt lat="48.50074" lon="4.93052">
        <ele>167.1</ele>
        <time>2023-09-09T06:46:05Z</time>
      </trkpt>
      <trkpt lat="48.50091" lon="4.93044">
        <ele>166.7</ele>
        <time>2023-09-09T06:46:08Z</time>
      </trkpt>
      <trkpt lat="48.50104" lon="4.93037">
        <ele>166.5</ele>
        <time>2023-09-09T06:46:10Z</time>
      </trkpt>
      <trkpt lat="48.50147" lon="4.93023">
        <ele>165.9</ele>
        <time>2023-09-09T06:46:16Z</time>
      </trkpt>
      <trkpt lat="48.50194" lon="4.93019">
        <ele>165.6</ele>
        <time>2023-09-09T06:46:22Z</time>
      </trkpt>
      <trkpt lat="48.50241" lon="4.93018">
        <ele>165.4</ele>
        <time>2023-09-09T06:46:28Z</time>
      </trkpt>
      <trkpt lat="48.50293" lon="4.93016">
        <ele>165.1</ele>
        <time>2023-09-09T06:46:35Z</time>
      </trkpt>
      <trkpt lat="48.50328" lon="4.93016">
        <ele>165.1</ele>
        <time>2023-09-09T06:46:41Z</time>
      </trkpt>
      <trkpt lat="48.50345" lon="4.93015">
        <ele>164.9</ele>
        <time>2023-09-09T06:46:44Z</time>
      </trkpt>
      <trkpt lat="48.50357" lon="4.93014">
        <ele>164.7</ele>
        <time>2023-09-09T06:46:46Z</time>
      </trkpt>
      <trkpt lat="48.50392" lon="4.93011">
        <ele>164.3</ele>
        <time>2023-09-09T06:46:51Z</time>
      </trkpt>
      <trkpt lat="48.50436" lon="4.92999">
        <ele>164.2</ele>
        <time>2023-09-09T06:46:57Z</time>
      </trkpt>
      <trkpt lat="48.50443" lon="4.92997">
        <ele>164.1</ele>
        <time>2023-09-09T06:46:58Z</time>
      </trkpt>
      <trkpt lat="48.50463" lon="4.92988">
        <ele>163.8</ele>
        <time>2023-09-09T06:47:01Z</time>
      </trkpt>
      <trkpt lat="48.50494" lon="4.92974">
        <ele>163.3</ele>
        <time>2023-09-09T06:47:06Z</time>
      </trkpt>
      <trkpt lat="48.50515" lon="4.9296">
        <ele>162.9</ele>
        <time>2023-09-09T06:47:10Z</time>
      </trkpt>
      <trkpt lat="48.5052" lon="4.92957">
        <ele>162.9</ele>
        <time>2023-09-09T06:47:11Z</time>
      </trkpt>
      <trkpt lat="48.50539" lon="4.92943">
        <ele>162.6</ele>
        <time>2023-09-09T06:47:15Z</time>
      </trkpt>
      <trkpt lat="48.50567" lon="4.92916">
        <ele>162.3</ele>
        <time>2023-09-09T06:47:21Z</time>
      </trkpt>
      <trkpt lat="48.50577" lon="4.92905">
        <ele>162.2</ele>
        <time>2023-09-09T06:47:23Z</time>
      </trkpt>
      <trkpt lat="48.50588" lon="4.92894">
        <ele>162.1</ele>
        <time>2023-09-09T06:47:25Z</time>
      </trkpt>
      <trkpt lat="48.5062" lon="4.92861">
        <ele>161.7</ele>
        <time>2023-09-09T06:47:31Z</time>
      </trkpt>
      <trkpt lat="48.50644" lon="4.92833">
        <ele>161.5</ele>
        <time>2023-09-09T06:47:36Z</time>
      </trkpt>
      <trkpt lat="48.5068" lon="4.92788">
        <ele>161.2</ele>
        <time>2023-09-09T06:47:43Z</time>
      </trkpt>
      <trkpt lat="48.50707" lon="4.92756">
        <ele>161.1</ele>
        <time>2023-09-09T06:47:48Z</time>
      </trkpt>
      <trkpt lat="48.50747" lon="4.92706">
        <ele>160.8</ele>
        <time>2023-09-09T06:47:55Z</time>
      </trkpt>
      <trkpt lat="48.50752" lon="4.92699">
        <ele>160.7</ele>
        <time>2023-09-09T06:47:56Z</time>
      </trkpt>
      <trkpt lat="48.50772" lon="4.92674">
        <ele>160.6</ele>
        <time>2023-09-09T06:48:00Z</time>
      </trkpt>
      <trkpt lat="48.50778" lon="4.92667">
        <ele>160.5</ele>
        <time>2023-09-09T06:48:01Z</time>
      </trkpt>
      <trkpt lat="48.50789" lon="4.92654">
        <ele>160.4</ele>
        <time>2023-09-09T06:48:03Z</time>
      </trkpt>
      <trkpt lat="48.50794" lon="4.92647">
        <ele>160.3</ele>
        <time>2023-09-09T06:48:04Z</time>
      </trkpt>
      <trkpt lat="48.50827" lon="4.92606">
        <ele>159.9</ele>
        <time>2023-09-09T06:48:10Z</time>
      </trkpt>
      <trkpt lat="48.50832" lon="4.92599">
        <ele>159.9</ele>
        <time>2023-09-09T06:48:11Z</time>
      </trkpt>
      <trkpt lat="48.50854" lon="4.92578">
        <ele>159.7</ele>
        <time>2023-09-09T06:48:15Z</time>
      </trkpt>
      <trkpt lat="48.50885" lon="4.92551">
        <ele>159.4</ele>
        <time>2023-09-09T06:48:20Z</time>
      </trkpt>
      <trkpt lat="48.50933" lon="4.92509">
        <ele>159</ele>
        <time>2023-09-09T06:48:27Z</time>
      </trkpt>
      <trkpt lat="48.50986" lon="4.92462">
        <ele>158.7</ele>
        <time>2023-09-09T06:48:35Z</time>
      </trkpt>
      <trkpt lat="48.51031" lon="4.92423">
        <ele>158.6</ele>
        <time>2023-09-09T06:48:42Z</time>
      </trkpt>
      <trkpt lat="48.51069" lon="4.92389">
        <ele>158.5</ele>
        <time>2023-09-09T06:48:48Z</time>
      </trkpt>
      <trkpt lat="48.51113" lon="4.92351">
        <ele>158.1</ele>
        <time>2023-09-09T06:48:55Z</time>
      </trkpt>
      <trkpt lat="48.51152" lon="4.92317">
        <ele>157.8</ele>
        <time>2023-09-09T06:49:01Z</time>
      </trkpt>
      <trkpt lat="48.51191" lon="4.92282">
        <ele>157.5</ele>
        <time>2023-09-09T06:49:07Z</time>
      </trkpt>
      <trkpt lat="48.51237" lon="4.92242">
        <ele>157.3</ele>
        <time>2023-09-09T06:49:14Z</time>
      </trkpt>
      <trkpt lat="48.51275" lon="4.92208">
        <ele>157.2</ele>
        <time>2023-09-09T06:49:20Z</time>
      </trkpt>
      <trkpt lat="48.5132" lon="4.9217">
        <ele>156.9</ele>
        <time>2023-09-09T06:49:27Z</time>
      </trkpt>
      <trkpt lat="48.51354" lon="4.92139">
        <ele>156.8</ele>
        <time>2023-09-09T06:49:33Z</time>
      </trkpt>
      <trkpt lat="48.514" lon="4.92099">
        <ele>157</ele>
        <time>2023-09-09T06:49:41Z</time>
      </trkpt>
      <trkpt lat="48.51422" lon="4.9208">
        <ele>157.4</ele>
        <time>2023-09-09T06:49:46Z</time>
      </trkpt>
      <trkpt lat="48.51431" lon="4.92072">
        <ele>157.6</ele>
        <time>2023-09-09T06:49:50Z</time>
      </trkpt>
      <trkpt lat="48.51439" lon="4.92065">
        <ele>157.6</ele>
        <time>2023-09-09T06:49:56Z</time>
      </trkpt>
      <trkpt lat="48.51449" lon="4.92056">
        <ele>157.3</ele>
        <time>2023-09-09T06:50:01Z</time>
      </trkpt>
      <trkpt lat="48.51456" lon="4.9205">
        <ele>157.1</ele>
        <time>2023-09-09T06:50:03Z</time>
      </trkpt>
      <trkpt lat="48.51468" lon="4.92039">
        <ele>156.9</ele>
        <time>2023-09-09T06:50:06Z</time>
      </trkpt>
      <trkpt lat="48.51499" lon="4.92013">
        <ele>156.6</ele>
        <time>2023-09-09T06:50:12Z</time>
      </trkpt>
      <trkpt lat="48.51535" lon="4.91982">
        <ele>156.4</ele>
        <time>2023-09-09T06:50:18Z</time>
      </trkpt>
      <trkpt lat="48.5158" lon="4.91944">
        <ele>156.3</ele>
        <time>2023-09-09T06:50:25Z</time>
      </trkpt>
      <trkpt lat="48.51632" lon="4.91899">
        <ele>156.3</ele>
        <time>2023-09-09T06:50:33Z</time>
      </trkpt>
      <trkpt lat="48.51639" lon="4.91894">
        <ele>156.3</ele>
        <time>2023-09-09T06:50:34Z</time>
      </trkpt>
      <trkpt lat="48.51671" lon="4.91871">
        <ele>156.3</ele>
        <time>2023-09-09T06:50:39Z</time>
      </trkpt>
      <trkpt lat="48.51677" lon="4.91867">
        <ele>156.3</ele>
        <time>2023-09-09T06:50:40Z</time>
      </trkpt>
      <trkpt lat="48.51715" lon="4.91842">
        <ele>156.2</ele>
        <time>2023-09-09T06:50:46Z</time>
      </trkpt>
      <trkpt lat="48.51765" lon="4.91814">
        <ele>156.2</ele>
        <time>2023-09-09T06:50:53Z</time>
      </trkpt>
      <trkpt lat="48.51802" lon="4.91797">
        <ele>156.1</ele>
        <time>2023-09-09T06:50:58Z</time>
      </trkpt>
      <trkpt lat="48.51848" lon="4.91779">
        <ele>156.1</ele>
        <time>2023-09-09T06:51:04Z</time>
      </trkpt>
      <trkpt lat="48.51886" lon="4.91766">
        <ele>156.1</ele>
        <time>2023-09-09T06:51:10Z</time>
      </trkpt>
      <trkpt lat="48.51933" lon="4.91754">
        <ele>156</ele>
        <time>2023-09-09T06:51:15Z</time>
      </trkpt>
      <trkpt lat="48.51972" lon="4.91744">
        <ele>156</ele>
        <time>2023-09-09T06:51:20Z</time>
      </trkpt>
      <trkpt lat="48.5201" lon="4.91734">
        <ele>155.9</ele>
        <time>2023-09-09T06:51:25Z</time>
      </trkpt>
      <trkpt lat="48.52052" lon="4.91724">
        <ele>155.9</ele>
        <time>2023-09-09T06:51:31Z</time>
      </trkpt>
      <trkpt lat="48.52073" lon="4.91718">
        <ele>155.9</ele>
        <time>2023-09-09T06:51:34Z</time>
      </trkpt>
      <trkpt lat="48.5208" lon="4.91717">
        <ele>155.9</ele>
        <time>2023-09-09T06:51:36Z</time>
      </trkpt>
      <trkpt lat="48.52122" lon="4.91702">
        <ele>155.9</ele>
        <time>2023-09-09T06:51:41Z</time>
      </trkpt>
      <trkpt lat="48.52136" lon="4.91695">
        <ele>155.9</ele>
        <time>2023-09-09T06:51:43Z</time>
      </trkpt>
      <trkpt lat="48.52151" lon="4.91689">
        <ele>155.8</ele>
        <time>2023-09-09T06:51:45Z</time>
      </trkpt>
      <trkpt lat="48.52201" lon="4.91658">
        <ele>155.6</ele>
        <time>2023-09-09T06:51:52Z</time>
      </trkpt>
      <trkpt lat="48.52222" lon="4.91645">
        <ele>155.6</ele>
        <time>2023-09-09T06:51:55Z</time>
      </trkpt>
      <trkpt lat="48.52237" lon="4.91636">
        <ele>155.7</ele>
        <time>2023-09-09T06:51:57Z</time>
      </trkpt>
      <trkpt lat="48.52265" lon="4.91619">
        <ele>155.7</ele>
        <time>2023-09-09T06:52:01Z</time>
      </trkpt>
      <trkpt lat="48.52279" lon="4.91611">
        <ele>155.7</ele>
        <time>2023-09-09T06:52:03Z</time>
      </trkpt>
      <trkpt lat="48.52321" lon="4.91587">
        <ele>155.8</ele>
        <time>2023-09-09T06:52:09Z</time>
      </trkpt>
      <trkpt lat="48.52377" lon="4.91563">
        <ele>155.5</ele>
        <time>2023-09-09T06:52:17Z</time>
      </trkpt>
      <trkpt lat="48.52398" lon="4.91556">
        <ele>155.6</ele>
        <time>2023-09-09T06:52:20Z</time>
      </trkpt>
      <trkpt lat="48.52411" lon="4.91554">
        <ele>155.5</ele>
        <time>2023-09-09T06:52:22Z</time>
      </trkpt>
      <trkpt lat="48.52453" lon="4.91546">
        <ele>155.3</ele>
        <time>2023-09-09T06:52:28Z</time>
      </trkpt>
      <trkpt lat="48.52513" lon="4.9154">
        <ele>155.3</ele>
        <time>2023-09-09T06:52:36Z</time>
      </trkpt>
      <trkpt lat="48.52555" lon="4.91535">
        <ele>155.3</ele>
        <time>2023-09-09T06:52:42Z</time>
      </trkpt>
      <trkpt lat="48.52608" lon="4.9153">
        <ele>155.3</ele>
        <time>2023-09-09T06:52:50Z</time>
      </trkpt>
      <trkpt lat="48.52652" lon="4.91525">
        <ele>155.3</ele>
        <time>2023-09-09T06:52:57Z</time>
      </trkpt>
      <trkpt lat="48.52669" lon="4.91523">
        <ele>155.2</ele>
        <time>2023-09-09T06:53:01Z</time>
      </trkpt>
      <trkpt lat="48.52677" lon="4.91523">
        <ele>155.2</ele>
        <time>2023-09-09T06:53:03Z</time>
      </trkpt>
      <trkpt lat="48.52686" lon="4.91522">
        <ele>155.1</ele>
        <time>2023-09-09T06:53:05Z</time>
      </trkpt>
      <trkpt lat="48.52714" lon="4.9152">
        <ele>154.7</ele>
        <time>2023-09-09T06:53:10Z</time>
      </trkpt>
      <trkpt lat="48.52761" lon="4.91518">
        <ele>154.3</ele>
        <time>2023-09-09T06:53:17Z</time>
      </trkpt>
      <trkpt lat="48.52789" lon="4.91516">
        <ele>154</ele>
        <time>2023-09-09T06:53:21Z</time>
      </trkpt>
      <trkpt lat="48.52796" lon="4.91516">
        <ele>154</ele>
        <time>2023-09-09T06:53:22Z</time>
      </trkpt>
      <trkpt lat="48.52845" lon="4.91514">
        <ele>153.8</ele>
        <time>2023-09-09T06:53:29Z</time>
      </trkpt>
      <trkpt lat="48.52852" lon="4.91515">
        <ele>153.7</ele>
        <time>2023-09-09T06:53:30Z</time>
      </trkpt>
      <trkpt lat="48.52867" lon="4.91516">
        <ele>153.6</ele>
        <time>2023-09-09T06:53:32Z</time>
      </trkpt>
      <trkpt lat="48.52924" lon="4.91525">
        <ele>153.5</ele>
        <time>2023-09-09T06:53:40Z</time>
      </trkpt>
      <trkpt lat="48.52971" lon="4.91538">
        <ele>153.6</ele>
        <time>2023-09-09T06:53:47Z</time>
      </trkpt>
      <trkpt lat="48.52994" lon="4.91548">
        <ele>153.5</ele>
        <time>2023-09-09T06:53:51Z</time>
      </trkpt>
      <trkpt lat="48.5303" lon="4.91564">
        <ele>153.4</ele>
        <time>2023-09-09T06:53:57Z</time>
      </trkpt>
      <trkpt lat="48.5307" lon="4.91583">
        <ele>153.1</ele>
        <time>2023-09-09T06:54:03Z</time>
      </trkpt>
      <trkpt lat="48.53121" lon="4.9161">
        <ele>153.1</ele>
        <time>2023-09-09T06:54:10Z</time>
      </trkpt>
      <trkpt lat="48.53163" lon="4.91632">
        <ele>153</ele>
        <time>2023-09-09T06:54:16Z</time>
      </trkpt>
      <trkpt lat="48.53215" lon="4.91659">
        <ele>153.1</ele>
        <time>2023-09-09T06:54:24Z</time>
      </trkpt>
      <trkpt lat="48.53242" lon="4.91673">
        <ele>153.1</ele>
        <time>2023-09-09T06:54:28Z</time>
      </trkpt>
      <trkpt lat="48.53255" lon="4.9168">
        <ele>153.1</ele>
        <time>2023-09-09T06:54:30Z</time>
      </trkpt>
      <trkpt lat="48.53312" lon="4.91709">
        <ele>153.2</ele>
        <time>2023-09-09T06:54:38Z</time>
      </trkpt>
      <trkpt lat="48.53359" lon="4.91734">
        <ele>153.1</ele>
        <time>2023-09-09T06:54:45Z</time>
      </trkpt>
      <trkpt lat="48.53382" lon="4.91747">
        <ele>153.1</ele>
        <time>2023-09-09T06:54:50Z</time>
      </trkpt>
      <trkpt lat="48.53399" lon="4.91758">
        <ele>152.8</ele>
        <time>2023-09-09T06:54:52Z</time>
      </trkpt>
      <trkpt lat="48.53411" lon="4.91764">
        <ele>152.7</ele>
        <time>2023-09-09T06:54:54Z</time>
      </trkpt>
      <trkpt lat="48.5345" lon="4.91785">
        <ele>152.3</ele>
        <time>2023-09-09T06:55:00Z</time>
      </trkpt>
      <trkpt lat="48.53493" lon="4.91807">
        <ele>152</ele>
        <time>2023-09-09T06:55:06Z</time>
      </trkpt>
      <trkpt lat="48.53537" lon="4.9183">
        <ele>151.6</ele>
        <time>2023-09-09T06:55:12Z</time>
      </trkpt>
      <trkpt lat="48.53572" lon="4.91849">
        <ele>151.2</ele>
        <time>2023-09-09T06:55:17Z</time>
      </trkpt>
      <trkpt lat="48.53622" lon="4.91875">
        <ele>150.9</ele>
        <time>2023-09-09T06:55:24Z</time>
      </trkpt>
      <trkpt lat="48.53674" lon="4.919">
        <ele>150.6</ele>
        <time>2023-09-09T06:55:31Z</time>
      </trkpt>
      <trkpt lat="48.53716" lon="4.91923">
        <ele>150.4</ele>
        <time>2023-09-09T06:55:37Z</time>
      </trkpt>
      <trkpt lat="48.53767" lon="4.9195">
        <ele>150.3</ele>
        <time>2023-09-09T06:55:44Z</time>
      </trkpt>
      <trkpt lat="48.53817" lon="4.91975">
        <ele>150.2</ele>
        <time>2023-09-09T06:55:51Z</time>
      </trkpt>
      <trkpt lat="48.53824" lon="4.91979">
        <ele>150.2</ele>
        <time>2023-09-09T06:55:52Z</time>
      </trkpt>
      <trkpt lat="48.53856" lon="4.91995">
        <ele>150.3</ele>
        <time>2023-09-09T06:55:57Z</time>
      </trkpt>
      <trkpt lat="48.53892" lon="4.92015">
        <ele>150.4</ele>
        <time>2023-09-09T06:56:04Z</time>
      </trkpt>
      <trkpt lat="48.5391" lon="4.91996">
        <ele>150.6</ele>
        <time>2023-09-09T06:56:09Z</time>
      </trkpt>
      <trkpt lat="48.53921" lon="4.92002">
        <ele>150.4</ele>
        <time>2023-09-09T06:56:15Z</time>
      </trkpt>
      <trkpt lat="48.53937" lon="4.92012">
        <ele>150</ele>
        <time>2023-09-09T06:56:20Z</time>
      </trkpt>
      <trkpt lat="48.5396" lon="4.92027">
        <ele>149.5</ele>
        <time>2023-09-09T06:56:25Z</time>
      </trkpt>
      <trkpt lat="48.54009" lon="4.9205">
        <ele>148.9</ele>
        <time>2023-09-09T06:56:33Z</time>
      </trkpt>
      <trkpt lat="48.54048" lon="4.92066">
        <ele>148.6</ele>
        <time>2023-09-09T06:56:39Z</time>
      </trkpt>
      <trkpt lat="48.54091" lon="4.92079">
        <ele>148.4</ele>
        <time>2023-09-09T06:56:46Z</time>
      </trkpt>
      <trkpt lat="48.5413" lon="4.92091">
        <ele>148.2</ele>
        <time>2023-09-09T06:56:52Z</time>
      </trkpt>
      <trkpt lat="48.54149" lon="4.92097">
        <ele>148.2</ele>
        <time>2023-09-09T06:56:55Z</time>
      </trkpt>
      <trkpt lat="48.54168" lon="4.92103">
        <ele>148.2</ele>
        <time>2023-09-09T06:56:58Z</time>
      </trkpt>
      <trkpt lat="48.54222" lon="4.92112">
        <ele>148.1</ele>
        <time>2023-09-09T06:57:06Z</time>
      </trkpt>
      <trkpt lat="48.54266" lon="4.92118">
        <ele>148.2</ele>
        <time>2023-09-09T06:57:13Z</time>
      </trkpt>
      <trkpt lat="48.54314" lon="4.92122">
        <ele>148.2</ele>
        <time>2023-09-09T06:57:21Z</time>
      </trkpt>
      <trkpt lat="48.5436" lon="4.92122">
        <ele>148.2</ele>
        <time>2023-09-09T06:57:29Z</time>
      </trkpt>
      <trkpt lat="48.5438" lon="4.92118">
        <ele>148.4</ele>
        <time>2023-09-09T06:57:34Z</time>
      </trkpt>
      <trkpt lat="48.54398" lon="4.92121">
        <ele>148.4</ele>
        <time>2023-09-09T06:57:39Z</time>
      </trkpt>
      <trkpt lat="48.54408" lon="4.92126">
        <ele>148.3</ele>
        <time>2023-09-09T06:57:43Z</time>
      </trkpt>
      <trkpt lat="48.54417" lon="4.9213">
        <ele>148.1</ele>
        <time>2023-09-09T06:57:45Z</time>
      </trkpt>
      <trkpt lat="48.54427" lon="4.92135">
        <ele>148</ele>
        <time>2023-09-09T06:57:48Z</time>
      </trkpt>
      <trkpt lat="48.54463" lon="4.9213">
        <ele>147.5</ele>
        <time>2023-09-09T06:57:54Z</time>
      </trkpt>
      <trkpt lat="48.54483" lon="4.92125">
        <ele>147.3</ele>
        <time>2023-09-09T06:57:57Z</time>
      </trkpt>
      <trkpt lat="48.54496" lon="4.92121">
        <ele>147.2</ele>
        <time>2023-09-09T06:57:59Z</time>
      </trkpt>
      <trkpt lat="48.54503" lon="4.92119">
        <ele>147.1</ele>
        <time>2023-09-09T06:58:00Z</time>
      </trkpt>
      <trkpt lat="48.54537" lon="4.92111">
        <ele>146.8</ele>
        <time>2023-09-09T06:58:05Z</time>
      </trkpt>
      <trkpt lat="48.54593" lon="4.92094">
        <ele>146.5</ele>
        <time>2023-09-09T06:58:13Z</time>
      </trkpt>
      <trkpt lat="48.54644" lon="4.92079">
        <ele>146.3</ele>
        <time>2023-09-09T06:58:20Z</time>
      </trkpt>
      <trkpt lat="48.54693" lon="4.92063">
        <ele>146</ele>
        <time>2023-09-09T06:58:27Z</time>
      </trkpt>
      <trkpt lat="48.54745" lon="4.92048">
        <ele>145.8</ele>
        <time>2023-09-09T06:58:34Z</time>
      </trkpt>
      <trkpt lat="48.54784" lon="4.92036">
        <ele>145.9</ele>
        <time>2023-09-09T06:58:40Z</time>
      </trkpt>
      <trkpt lat="48.54828" lon="4.92024">
        <ele>145.7</ele>
        <time>2023-09-09T06:58:47Z</time>
      </trkpt>
      <trkpt lat="48.54882" lon="4.92006">
        <ele>145.7</ele>
        <time>2023-09-09T06:58:55Z</time>
      </trkpt>
      <trkpt lat="48.54923" lon="4.91994">
        <ele>145.7</ele>
        <time>2023-09-09T06:59:02Z</time>
      </trkpt>
      <trkpt lat="48.54969" lon="4.91981">
        <ele>146.1</ele>
        <time>2023-09-09T06:59:10Z</time>
      </trkpt>
      <trkpt lat="48.54992" lon="4.91973">
        <ele>146.5</ele>
        <time>2023-09-09T06:59:15Z</time>
      </trkpt>
      <trkpt lat="48.55004" lon="4.91969">
        <ele>146.9</ele>
        <time>2023-09-09T06:59:20Z</time>
      </trkpt>
      <trkpt lat="48.55004" lon="4.91957">
        <ele>146.8</ele>
        <time>2023-09-09T06:59:24Z</time>
      </trkpt>
      <trkpt lat="48.55005" lon="4.91926">
        <ele>146.5</ele>
        <time>2023-09-09T06:59:30Z</time>
      </trkpt>
      <trkpt lat="48.55005" lon="4.9192">
        <ele>146.5</ele>
        <time>2023-09-09T06:59:31Z</time>
      </trkpt>
      <trkpt lat="48.55006" lon="4.91902">
        <ele>146.5</ele>
        <time>2023-09-09T06:59:35Z</time>
      </trkpt>
      <trkpt lat="48.55006" lon="4.91892">
        <ele>146.5</ele>
        <time>2023-09-09T06:59:41Z</time>
      </trkpt>
      <trkpt lat="48.55006" lon="4.919">
        <ele>146.5</ele>
        <time>2023-09-09T06:59:45Z</time>
      </trkpt>
      <trkpt lat="48.55005" lon="4.91927">
        <ele>146.5</ele>
        <time>2023-09-09T06:59:51Z</time>
      </trkpt>
      <trkpt lat="48.55004" lon="4.91951">
        <ele>146.7</ele>
        <time>2023-09-09T06:59:57Z</time>
      </trkpt>
      <trkpt lat="48.55003" lon="4.91976">
        <ele>146.9</ele>
        <time>2023-09-09T07:00:03Z</time>
      </trkpt>
      <trkpt lat="48.55002" lon="4.92015">
        <ele>147</ele>
        <time>2023-09-09T07:00:09Z</time>
      </trkpt>
      <trkpt lat="48.55" lon="4.92057">
        <ele>147.1</ele>
        <time>2023-09-09T07:00:15Z</time>
      </trkpt>
      <trkpt lat="48.54997" lon="4.92088">
        <ele>147.3</ele>
        <time>2023-09-09T07:00:21Z</time>
      </trkpt>
      <trkpt lat="48.54999" lon="4.9209">
        <ele>147.3</ele>
        <time>2023-09-09T07:00:24Z</time>
      </trkpt>
      <trkpt lat="48.55" lon="4.92088">
        <ele>147.3</ele>
        <time>2023-09-09T07:00:25Z</time>
      </trkpt>
      <trkpt lat="48.54999" lon="4.9207">
        <ele>147.2</ele>
        <time>2023-09-09T07:00:30Z</time>
      </trkpt>
      <trkpt lat="48.55001" lon="4.92042">
        <ele>147.1</ele>
        <time>2023-09-09T07:00:35Z</time>
      </trkpt>
      <trkpt lat="48.55002" lon="4.92004">
        <ele>147</ele>
        <time>2023-09-09T07:00:40Z</time>
      </trkpt>
      <trkpt lat="48.55005" lon="4.91934">
        <ele>146.6</ele>
        <time>2023-09-09T07:00:48Z</time>
      </trkpt>
      <trkpt lat="48.55007" lon="4.91876">
        <ele>146.5</ele>
        <time>2023-09-09T07:00:54Z</time>
      </trkpt>
      <trkpt lat="48.55008" lon="4.91802">
        <ele>146.5</ele>
        <time>2023-09-09T07:01:02Z</time>
      </trkpt>
      <trkpt lat="48.55007" lon="4.91739">
        <ele>146.3</ele>
        <time>2023-09-09T07:01:09Z</time>
      </trkpt>
      <trkpt lat="48.55012" lon="4.91701">
        <ele>146.2</ele>
        <time>2023-09-09T07:01:13Z</time>
      </trkpt>
      <trkpt lat="48.55014" lon="4.91692">
        <ele>146.2</ele>
        <time>2023-09-09T07:01:14Z</time>
      </trkpt>
      <trkpt lat="48.55027" lon="4.91649">
        <ele>146.2</ele>
        <time>2023-09-09T07:01:19Z</time>
      </trkpt>
      <trkpt lat="48.55029" lon="4.9164">
        <ele>146.2</ele>
        <time>2023-09-09T07:01:20Z</time>
      </trkpt>
      <trkpt lat="48.55039" lon="4.91609">
        <ele>146.3</ele>
        <time>2023-09-09T07:01:24Z</time>
      </trkpt>
      <trkpt lat="48.5505" lon="4.91579">
        <ele>146.2</ele>
        <time>2023-09-09T07:01:28Z</time>
      </trkpt>
      <trkpt lat="48.55058" lon="4.91565">
        <ele>146</ele>
        <time>2023-09-09T07:01:30Z</time>
      </trkpt>
      <trkpt lat="48.55062" lon="4.91558">
        <ele>145.9</ele>
        <time>2023-09-09T07:01:31Z</time>
      </trkpt>
      <trkpt lat="48.55089" lon="4.91521">
        <ele>145.6</ele>
        <time>2023-09-09T07:01:37Z</time>
      </trkpt>
      <trkpt lat="48.55098" lon="4.91509">
        <ele>145.6</ele>
        <time>2023-09-09T07:01:39Z</time>
      </trkpt>
      <trkpt lat="48.55111" lon="4.91491">
        <ele>145.6</ele>
        <time>2023-09-09T07:01:42Z</time>
      </trkpt>
      <trkpt lat="48.55134" lon="4.91459">
        <ele>145.7</ele>
        <time>2023-09-09T07:01:48Z</time>
      </trkpt>
      <trkpt lat="48.55144" lon="4.91445">
        <ele>145.7</ele>
        <time>2023-09-09T07:01:51Z</time>
      </trkpt>
      <trkpt lat="48.55153" lon="4.91432">
        <ele>145.7</ele>
        <time>2023-09-09T07:01:54Z</time>
      </trkpt>
      <trkpt lat="48.55177" lon="4.91398">
        <ele>145.7</ele>
        <time>2023-09-09T07:02:01Z</time>
      </trkpt>
      <trkpt lat="48.55196" lon="4.91373">
        <ele>145.7</ele>
        <time>2023-09-09T07:02:06Z</time>
      </trkpt>
      <trkpt lat="48.55203" lon="4.91363">
        <ele>145.7</ele>
        <time>2023-09-09T07:02:08Z</time>
      </trkpt>
      <trkpt lat="48.55217" lon="4.91341">
        <ele>145.6</ele>
        <time>2023-09-09T07:02:14Z</time>
      </trkpt>
      <trkpt lat="48.55213" lon="4.91336">
        <ele>145.1</ele>
        <time>2023-09-09T07:02:17Z</time>
      </trkpt>
      <trkpt lat="48.55184" lon="4.9133">
        <ele>144.7</ele>
        <time>2023-09-09T07:02:23Z</time>
      </trkpt>
      <trkpt lat="48.55147" lon="4.91316">
        <ele>144.7</ele>
        <time>2023-09-09T07:02:31Z</time>
      </trkpt>
      <trkpt lat="48.55117" lon="4.913">
        <ele>144.8</ele>
        <time>2023-09-09T07:02:38Z</time>
      </trkpt>
      <trkpt lat="48.55089" lon="4.91283">
        <ele>144.9</ele>
        <time>2023-09-09T07:02:44Z</time>
      </trkpt>
      <trkpt lat="48.55068" lon="4.91266">
        <ele>144.9</ele>
        <time>2023-09-09T07:02:49Z</time>
      </trkpt>
      <trkpt lat="48.55063" lon="4.91259">
        <ele>144.9</ele>
        <time>2023-09-09T07:02:51Z</time>
      </trkpt>
      <trkpt lat="48.55053" lon="4.91246">
        <ele>145</ele>
        <time>2023-09-09T07:02:56Z</time>
      </trkpt>
      <trkpt lat="48.55052" lon="4.91245">
        <ele>145</ele>
        <time>2023-09-09T07:02:59Z</time>
      </trkpt>
      <trkpt lat="48.5505" lon="4.91242">
        <ele>145</ele>
        <time>2023-09-09T07:03:05Z</time>
      </trkpt>
      <trkpt lat="48.55043" lon="4.91233">
        <ele>145.1</ele>
        <time>2023-09-09T07:03:10Z</time>
      </trkpt>
      <trkpt lat="48.55028" lon="4.91215">
        <ele>145.2</ele>
        <time>2023-09-09T07:03:15Z</time>
      </trkpt>
      <trkpt lat="48.55018" lon="4.91204">
        <ele>145.2</ele>
        <time>2023-09-09T07:03:20Z</time>
      </trkpt>
      <trkpt lat="48.55011" lon="4.91198">
        <ele>145.2</ele>
        <time>2023-09-09T07:03:26Z</time>
      </trkpt>
      <trkpt lat="48.55014" lon="4.91201">
        <ele>145.2</ele>
        <time>2023-09-09T07:04:49Z</time>
      </trkpt>
      <trkpt lat="48.5502" lon="4.91206">
        <ele>145.3</ele>
        <time>2023-09-09T07:04:51Z</time>
      </trkpt>
      <trkpt lat="48.55033" lon="4.91222">
        <ele>145.2</ele>
        <time>2023-09-09T07:04:58Z</time>
      </trkpt>
      <trkpt lat="48.55043" lon="4.91234">
        <ele>145.1</ele>
        <time>2023-09-09T07:05:03Z</time>
      </trkpt>
      <trkpt lat="48.55057" lon="4.91252">
        <ele>145</ele>
        <time>2023-09-09T07:05:10Z</time>
      </trkpt>
      <trkpt lat="48.55074" lon="4.91272">
        <ele>144.9</ele>
        <time>2023-09-09T07:05:17Z</time>
      </trkpt>
      <trkpt lat="48.55078" lon="4.91274">
        <ele>144.9</ele>
        <time>2023-09-09T07:05:21Z</time>
      </trkpt>
      <trkpt lat="48.55081" lon="4.91277">
        <ele>144.9</ele>
        <time>2023-09-09T07:05:28Z</time>
      </trkpt>
      <trkpt lat="48.55085" lon="4.9128">
        <ele>144.9</ele>
        <time>2023-09-09T07:05:30Z</time>
      </trkpt>
      <trkpt lat="48.551" lon="4.91291">
        <ele>144.8</ele>
        <time>2023-09-09T07:05:36Z</time>
      </trkpt>
      <trkpt lat="48.55121" lon="4.91303">
        <ele>144.7</ele>
        <time>2023-09-09T07:05:42Z</time>
      </trkpt>
      <trkpt lat="48.55154" lon="4.91319">
        <ele>144.7</ele>
        <time>2023-09-09T07:05:49Z</time>
      </trkpt>
      <trkpt lat="48.5519" lon="4.91332">
        <ele>144.8</ele>
        <time>2023-09-09T07:05:57Z</time>
      </trkpt>
      <trkpt lat="48.55209" lon="4.91345">
        <ele>145.6</ele>
        <time>2023-09-09T07:06:03Z</time>
      </trkpt>
      <trkpt lat="48.55217" lon="4.91341">
        <ele>145.6</ele>
        <time>2023-09-09T07:06:08Z</time>
      </trkpt>
      <trkpt lat="48.55231" lon="4.91323">
        <ele>145.5</ele>
        <time>2023-09-09T07:06:14Z</time>
      </trkpt>
      <trkpt lat="48.55252" lon="4.91293">
        <ele>145.4</ele>
        <time>2023-09-09T07:06:21Z</time>
      </trkpt>
      <trkpt lat="48.5527" lon="4.9127">
        <ele>145.5</ele>
        <time>2023-09-09T07:06:27Z</time>
      </trkpt>
      <trkpt lat="48.55281" lon="4.9126">
        <ele>145.6</ele>
        <time>2023-09-09T07:06:32Z</time>
      </trkpt>
      <trkpt lat="48.55281" lon="4.9124">
        <ele>145.6</ele>
        <time>2023-09-09T07:06:36Z</time>
      </trkpt>
      <trkpt lat="48.55279" lon="4.91218">
        <ele>145.7</ele>
        <time>2023-09-09T07:06:40Z</time>
      </trkpt>
      <trkpt lat="48.55276" lon="4.91205">
        <ele>145.7</ele>
        <time>2023-09-09T07:06:42Z</time>
      </trkpt>
      <trkpt lat="48.55272" lon="4.91193">
        <ele>145.7</ele>
        <time>2023-09-09T07:06:44Z</time>
      </trkpt>
      <trkpt lat="48.55264" lon="4.91177">
        <ele>145.8</ele>
        <time>2023-09-09T07:06:47Z</time>
      </trkpt>
      <trkpt lat="48.55265" lon="4.91169">
        <ele>145.8</ele>
        <time>2023-09-09T07:06:48Z</time>
      </trkpt>
      <trkpt lat="48.55257" lon="4.91155">
        <ele>145.9</ele>
        <time>2023-09-09T07:06:51Z</time>
      </trkpt>
      <trkpt lat="48.55253" lon="4.91155">
        <ele>146</ele>
        <time>2023-09-09T07:06:52Z</time>
      </trkpt>
      <trkpt lat="48.55249" lon="4.91158">
        <ele>146</ele>
        <time>2023-09-09T07:06:54Z</time>
      </trkpt>
      <trkpt lat="48.55242" lon="4.91175">
        <ele>145.9</ele>
        <time>2023-09-09T07:06:56Z</time>
      </trkpt>
      <trkpt lat="48.55234" lon="4.91176">
        <ele>145.8</ele>
        <time>2023-09-09T07:06:58Z</time>
      </trkpt>
      <trkpt lat="48.55205" lon="4.91178">
        <ele>145.7</ele>
        <time>2023-09-09T07:07:04Z</time>
      </trkpt>
      <trkpt lat="48.55175" lon="4.91174">
        <ele>145.7</ele>
        <time>2023-09-09T07:07:10Z</time>
      </trkpt>
      <trkpt lat="48.55124" lon="4.91159">
        <ele>145.7</ele>
        <time>2023-09-09T07:07:19Z</time>
      </trkpt>
      <trkpt lat="48.551" lon="4.91154">
        <ele>145.7</ele>
        <time>2023-09-09T07:07:24Z</time>
      </trkpt>
      <trkpt lat="48.55097" lon="4.91154">
        <ele>145.7</ele>
        <time>2023-09-09T07:07:28Z</time>
      </trkpt>
      <trkpt lat="48.55105" lon="4.91153">
        <ele>145.7</ele>
        <time>2023-09-09T07:08:48Z</time>
      </trkpt>
      <trkpt lat="48.55096" lon="4.91154">
        <ele>145.8</ele>
        <time>2023-09-09T07:08:51Z</time>
      </trkpt>
      <trkpt lat="48.55096" lon="4.91154">
        <ele>145.8</ele>
        <time>2023-09-09T07:08:53Z</time>
      </trkpt>
      <trkpt lat="48.55105" lon="4.91153">
        <ele>145.9</ele>
        <time>2023-09-09T07:15:32Z</time>
      </trkpt>
      <trkpt lat="48.55105" lon="4.91153">
        <ele>145.9</ele>
        <time>2023-09-09T07:15:33Z</time>
      </trkpt>
      <trkpt lat="48.55122" lon="4.91158">
        <ele>145.7</ele>
        <time>2023-09-09T07:15:38Z</time>
      </trkpt>
      <trkpt lat="48.55129" lon="4.9116">
        <ele>145.7</ele>
        <time>2023-09-09T07:15:40Z</time>
      </trkpt>
      <trkpt lat="48.55139" lon="4.91163">
        <ele>145.7</ele>
        <time>2023-09-09T07:15:42Z</time>
      </trkpt>
      <trkpt lat="48.55144" lon="4.91165">
        <ele>145.7</ele>
        <time>2023-09-09T07:15:43Z</time>
      </trkpt>
      <trkpt lat="48.55178" lon="4.91174">
        <ele>145.6</ele>
        <time>2023-09-09T07:15:49Z</time>
      </trkpt>
      <trkpt lat="48.55194" lon="4.91179">
        <ele>145.7</ele>
        <time>2023-09-09T07:15:52Z</time>
      </trkpt>
      <trkpt lat="48.55204" lon="4.91178">
        <ele>145.7</ele>
        <time>2023-09-09T07:15:54Z</time>
      </trkpt>
      <trkpt lat="48.55225" lon="4.91177">
        <ele>145.7</ele>
        <time>2023-09-09T07:15:58Z</time>
      </trkpt>
      <trkpt lat="48.55234" lon="4.91176">
        <ele>145.8</ele>
        <time>2023-09-09T07:16:00Z</time>
      </trkpt>
      <trkpt lat="48.55254" lon="4.91182">
        <ele>145.9</ele>
        <time>2023-09-09T07:16:05Z</time>
      </trkpt>
      <trkpt lat="48.5527" lon="4.91189">
        <ele>145.8</ele>
        <time>2023-09-09T07:16:09Z</time>
      </trkpt>
      <trkpt lat="48.55272" lon="4.91194">
        <ele>145.7</ele>
        <time>2023-09-09T07:16:10Z</time>
      </trkpt>
      <trkpt lat="48.55275" lon="4.91198">
        <ele>145.7</ele>
        <time>2023-09-09T07:16:11Z</time>
      </trkpt>
      <trkpt lat="48.55279" lon="4.91219">
        <ele>145.7</ele>
        <time>2023-09-09T07:16:15Z</time>
      </trkpt>
      <trkpt lat="48.55281" lon="4.91236">
        <ele>145.7</ele>
        <time>2023-09-09T07:16:20Z</time>
      </trkpt>
      <trkpt lat="48.55281" lon="4.91239">
        <ele>145.6</ele>
        <time>2023-09-09T07:16:21Z</time>
      </trkpt>
      <trkpt lat="48.55278" lon="4.91263">
        <ele>145.6</ele>
        <time>2023-09-09T07:16:27Z</time>
      </trkpt>
      <trkpt lat="48.55276" lon="4.91265">
        <ele>145.6</ele>
        <time>2023-09-09T07:16:28Z</time>
      </trkpt>
      <trkpt lat="48.55282" lon="4.91262">
        <ele>145.5</ele>
        <time>2023-09-09T07:16:30Z</time>
      </trkpt>
      <trkpt lat="48.55292" lon="4.91281">
        <ele>145.5</ele>
        <time>2023-09-09T07:16:35Z</time>
      </trkpt>
      <trkpt lat="48.55297" lon="4.91306">
        <ele>145.4</ele>
        <time>2023-09-09T07:16:40Z</time>
      </trkpt>
      <trkpt lat="48.55298" lon="4.91313">
        <ele>145.4</ele>
        <time>2023-09-09T07:16:44Z</time>
      </trkpt>
      <trkpt lat="48.55298" lon="4.91311">
        <ele>145.4</ele>
        <time>2023-09-09T07:16:45Z</time>
      </trkpt>
      <trkpt lat="48.55297" lon="4.91305">
        <ele>145.4</ele>
        <time>2023-09-09T07:16:48Z</time>
      </trkpt>
      <trkpt lat="48.55291" lon="4.91281">
        <ele>145.5</ele>
        <time>2023-09-09T07:16:54Z</time>
      </trkpt>
      <trkpt lat="48.55281" lon="4.91261">
        <ele>145.6</ele>
        <time>2023-09-09T07:16:59Z</time>
      </trkpt>
      <trkpt lat="48.55275" lon="4.91266">
        <ele>145.5</ele>
        <time>2023-09-09T07:17:01Z</time>
      </trkpt>
      <trkpt lat="48.55271" lon="4.91269">
        <ele>145.5</ele>
        <time>2023-09-09T07:17:02Z</time>
      </trkpt>
      <trkpt lat="48.55248" lon="4.91299">
        <ele>145.5</ele>
        <time>2023-09-09T07:17:08Z</time>
      </trkpt>
      <trkpt lat="48.55225" lon="4.91331">
        <ele>145.6</ele>
        <time>2023-09-09T07:17:15Z</time>
      </trkpt>
      <trkpt lat="48.55196" lon="4.91373">
        <ele>145.7</ele>
        <time>2023-09-09T07:17:23Z</time>
      </trkpt>
      <trkpt lat="48.55176" lon="4.914">
        <ele>145.7</ele>
        <time>2023-09-09T07:17:28Z</time>
      </trkpt>
      <trkpt lat="48.55172" lon="4.91405">
        <ele>145.7</ele>
        <time>2023-09-09T07:17:29Z</time>
      </trkpt>
      <trkpt lat="48.55145" lon="4.91443">
        <ele>145.7</ele>
        <time>2023-09-09T07:17:36Z</time>
      </trkpt>
      <trkpt lat="48.55108" lon="4.91495">
        <ele>145.6</ele>
        <time>2023-09-09T07:17:44Z</time>
      </trkpt>
      <trkpt lat="48.55082" lon="4.9153">
        <ele>145.6</ele>
        <time>2023-09-09T07:17:50Z</time>
      </trkpt>
      <trkpt lat="48.55053" lon="4.91574">
        <ele>146.1</ele>
        <time>2023-09-09T07:17:57Z</time>
      </trkpt>
      <trkpt lat="48.55046" lon="4.91587">
        <ele>146.2</ele>
        <time>2023-09-09T07:17:59Z</time>
      </trkpt>
      <trkpt lat="48.55038" lon="4.91611">
        <ele>146.3</ele>
        <time>2023-09-09T07:18:02Z</time>
      </trkpt>
      <trkpt lat="48.55022" lon="4.91667">
        <ele>146.2</ele>
        <time>2023-09-09T07:18:09Z</time>
      </trkpt>
      <trkpt lat="48.55007" lon="4.9172">
        <ele>146.2</ele>
        <time>2023-09-09T07:18:15Z</time>
      </trkpt>
      <trkpt lat="48.55007" lon="4.9173">
        <ele>146.2</ele>
        <time>2023-09-09T07:18:16Z</time>
      </trkpt>
      <trkpt lat="48.55007" lon="4.91739">
        <ele>146.3</ele>
        <time>2023-09-09T07:18:17Z</time>
      </trkpt>
      <trkpt lat="48.55008" lon="4.91776">
        <ele>146.5</ele>
        <time>2023-09-09T07:18:21Z</time>
      </trkpt>
      <trkpt lat="48.55008" lon="4.91851">
        <ele>146.5</ele>
        <time>2023-09-09T07:18:29Z</time>
      </trkpt>
      <trkpt lat="48.55006" lon="4.91912">
        <ele>146.5</ele>
        <time>2023-09-09T07:18:36Z</time>
      </trkpt>
      <trkpt lat="48.55005" lon="4.91942">
        <ele>146.7</ele>
        <time>2023-09-09T07:18:40Z</time>
      </trkpt>
      <trkpt lat="48.55004" lon="4.91949">
        <ele>146.7</ele>
        <time>2023-09-09T07:18:41Z</time>
      </trkpt>
      <trkpt lat="48.55004" lon="4.91965">
        <ele>146.9</ele>
        <time>2023-09-09T07:18:44Z</time>
      </trkpt>
      <trkpt lat="48.55003" lon="4.91969">
        <ele>146.8</ele>
        <time>2023-09-09T07:18:45Z</time>
      </trkpt>
      <trkpt lat="48.54995" lon="4.91973">
        <ele>146.6</ele>
        <time>2023-09-09T07:18:47Z</time>
      </trkpt>
      <trkpt lat="48.54991" lon="4.91974">
        <ele>146.5</ele>
        <time>2023-09-09T07:18:48Z</time>
      </trkpt>
      <trkpt lat="48.54964" lon="4.91979">
        <ele>146</ele>
        <time>2023-09-09T07:18:53Z</time>
      </trkpt>
      <trkpt lat="48.54927" lon="4.91992">
        <ele>145.8</ele>
        <time>2023-09-09T07:18:59Z</time>
      </trkpt>
      <trkpt lat="48.54873" lon="4.92009">
        <ele>145.7</ele>
        <time>2023-09-09T07:19:08Z</time>
      </trkpt>
      <trkpt lat="48.54824" lon="4.92024">
        <ele>145.7</ele>
        <time>2023-09-09T07:19:16Z</time>
      </trkpt>
      <trkpt lat="48.5478" lon="4.92038">
        <ele>145.9</ele>
        <time>2023-09-09T07:19:23Z</time>
      </trkpt>
      <trkpt lat="48.54746" lon="4.92047">
        <ele>145.8</ele>
        <time>2023-09-09T07:19:28Z</time>
      </trkpt>
      <trkpt lat="48.5474" lon="4.92049">
        <ele>145.8</ele>
        <time>2023-09-09T07:19:29Z</time>
      </trkpt>
      <trkpt lat="48.547" lon="4.92062">
        <ele>146</ele>
        <time>2023-09-09T07:19:35Z</time>
      </trkpt>
      <trkpt lat="48.54647" lon="4.92079">
        <ele>146.3</ele>
        <time>2023-09-09T07:19:43Z</time>
      </trkpt>
      <trkpt lat="48.54588" lon="4.92097">
        <ele>146.5</ele>
        <time>2023-09-09T07:19:52Z</time>
      </trkpt>
      <trkpt lat="48.54549" lon="4.92108">
        <ele>146.6</ele>
        <time>2023-09-09T07:19:58Z</time>
      </trkpt>
      <trkpt lat="48.54509" lon="4.92118">
        <ele>147</ele>
        <time>2023-09-09T07:20:04Z</time>
      </trkpt>
      <trkpt lat="48.54466" lon="4.92126">
        <ele>147.4</ele>
        <time>2023-09-09T07:20:11Z</time>
      </trkpt>
      <trkpt lat="48.54424" lon="4.92131">
        <ele>148</ele>
        <time>2023-09-09T07:20:18Z</time>
      </trkpt>
      <trkpt lat="48.54401" lon="4.92134">
        <ele>148.3</ele>
        <time>2023-09-09T07:20:23Z</time>
      </trkpt>
      <trkpt lat="48.54383" lon="4.92136">
        <ele>148.5</ele>
        <time>2023-09-09T07:20:28Z</time>
      </trkpt>
      <trkpt lat="48.54365" lon="4.92121">
        <ele>148.7</ele>
        <time>2023-09-09T07:20:32Z</time>
      </trkpt>
      <trkpt lat="48.54355" lon="4.92123">
        <ele>148.8</ele>
        <time>2023-09-09T07:20:34Z</time>
      </trkpt>
      <trkpt lat="48.54306" lon="4.92122">
        <ele>149</ele>
        <time>2023-09-09T07:20:42Z</time>
      </trkpt>
      <trkpt lat="48.54249" lon="4.92116">
        <ele>149.3</ele>
        <time>2023-09-09T07:20:51Z</time>
      </trkpt>
      <trkpt lat="48.54197" lon="4.92109">
        <ele>149.5</ele>
        <time>2023-09-09T07:20:59Z</time>
      </trkpt>
      <trkpt lat="48.5415" lon="4.92097">
        <ele>149.7</ele>
        <time>2023-09-09T07:21:06Z</time>
      </trkpt>
      <trkpt lat="48.54138" lon="4.92093">
        <ele>149.8</ele>
        <time>2023-09-09T07:21:08Z</time>
      </trkpt>
      <trkpt lat="48.54092" lon="4.9208">
        <ele>150</ele>
        <time>2023-09-09T07:21:15Z</time>
      </trkpt>
      <trkpt lat="48.54047" lon="4.92066">
        <ele>150.2</ele>
        <time>2023-09-09T07:21:22Z</time>
      </trkpt>
      <trkpt lat="48.54012" lon="4.92051">
        <ele>150.4</ele>
        <time>2023-09-09T07:21:28Z</time>
      </trkpt>
      <trkpt lat="48.53972" lon="4.92032">
        <ele>150.6</ele>
        <time>2023-09-09T07:21:35Z</time>
      </trkpt>
      <trkpt lat="48.53946" lon="4.92018">
        <ele>150.7</ele>
        <time>2023-09-09T07:21:41Z</time>
      </trkpt>
      <trkpt lat="48.53918" lon="4.92001">
        <ele>150.9</ele>
        <time>2023-09-09T07:21:48Z</time>
      </trkpt>
      <trkpt lat="48.53902" lon="4.91991">
        <ele>151</ele>
        <time>2023-09-09T07:21:53Z</time>
      </trkpt>
      <trkpt lat="48.53897" lon="4.91988">
        <ele>151</ele>
        <time>2023-09-09T07:21:54Z</time>
      </trkpt>
      <trkpt lat="48.53893" lon="4.91982">
        <ele>151</ele>
        <time>2023-09-09T07:21:57Z</time>
      </trkpt>
      <trkpt lat="48.5389" lon="4.91975">
        <ele>151</ele>
        <time>2023-09-09T07:21:58Z</time>
      </trkpt>
      <trkpt lat="48.53882" lon="4.91962">
        <ele>150.9</ele>
        <time>2023-09-09T07:21:59Z</time>
      </trkpt>
      <trkpt lat="48.53864" lon="4.91944">
        <ele>150.9</ele>
        <time>2023-09-09T07:22:02Z</time>
      </trkpt>
      <trkpt lat="48.53829" lon="4.91915">
        <ele>151.1</ele>
        <time>2023-09-09T07:22:08Z</time>
      </trkpt>
      <trkpt lat="48.53824" lon="4.91911">
        <ele>151.1</ele>
        <time>2023-09-09T07:22:09Z</time>
      </trkpt>
      <trkpt lat="48.53808" lon="4.91894">
        <ele>151.1</ele>
        <time>2023-09-09T07:22:12Z</time>
      </trkpt>
      <trkpt lat="48.53775" lon="4.91861">
        <ele>151.3</ele>
        <time>2023-09-09T07:22:18Z</time>
      </trkpt>
      <trkpt lat="48.53746" lon="4.91825">
        <ele>151.5</ele>
        <time>2023-09-09T07:22:24Z</time>
      </trkpt>
      <trkpt lat="48.53707" lon="4.91774">
        <ele>151.4</ele>
        <time>2023-09-09T07:22:32Z</time>
      </trkpt>
      <trkpt lat="48.53695" lon="4.91758">
        <ele>151.2</ele>
        <time>2023-09-09T07:22:37Z</time>
      </trkpt>
      <trkpt lat="48.53682" lon="4.91764">
        <ele>151.2</ele>
        <time>2023-09-09T07:22:43Z</time>
      </trkpt>
      <trkpt lat="48.53669" lon="4.9177">
        <ele>151.1</ele>
        <time>2023-09-09T07:22:44Z</time>
      </trkpt>
      <trkpt lat="48.53539" lon="4.91826">
        <ele>151.6</ele>
        <time>2023-09-09T07:22:49Z</time>
      </trkpt>
      <trkpt lat="48.53499" lon="4.91805">
        <ele>151.9</ele>
        <time>2023-09-09T07:22:55Z</time>
      </trkpt>
      <trkpt lat="48.53453" lon="4.9178">
        <ele>152.3</ele>
        <time>2023-09-09T07:23:02Z</time>
      </trkpt>
      <trkpt lat="48.53413" lon="4.91757">
        <ele>152.7</ele>
        <time>2023-09-09T07:23:08Z</time>
      </trkpt>
      <trkpt lat="48.53406" lon="4.91754">
        <ele>152.8</ele>
        <time>2023-09-09T07:23:09Z</time>
      </trkpt>
      <trkpt lat="48.53374" lon="4.91738">
        <ele>153.1</ele>
        <time>2023-09-09T07:23:14Z</time>
      </trkpt>
      <trkpt lat="48.53358" lon="4.91733">
        <ele>153.1</ele>
        <time>2023-09-09T07:23:17Z</time>
      </trkpt>
      <trkpt lat="48.53345" lon="4.91727">
        <ele>153.1</ele>
        <time>2023-09-09T07:23:19Z</time>
      </trkpt>
      <trkpt lat="48.53306" lon="4.91706">
        <ele>153.2</ele>
        <time>2023-09-09T07:23:25Z</time>
      </trkpt>
      <trkpt lat="48.53263" lon="4.91684">
        <ele>153.1</ele>
        <time>2023-09-09T07:23:31Z</time>
      </trkpt>
      <trkpt lat="48.53229" lon="4.91666">
        <ele>153.1</ele>
        <time>2023-09-09T07:23:36Z</time>
      </trkpt>
      <trkpt lat="48.53189" lon="4.91646">
        <ele>153.1</ele>
        <time>2023-09-09T07:23:42Z</time>
      </trkpt>
      <trkpt lat="48.53157" lon="4.91629">
        <ele>153.1</ele>
        <time>2023-09-09T07:23:47Z</time>
      </trkpt>
      <trkpt lat="48.53151" lon="4.91625">
        <ele>153.1</ele>
        <time>2023-09-09T07:23:48Z</time>
      </trkpt>
      <trkpt lat="48.53108" lon="4.91603">
        <ele>153.1</ele>
        <time>2023-09-09T07:23:54Z</time>
      </trkpt>
      <trkpt lat="48.53073" lon="4.91585">
        <ele>153.1</ele>
        <time>2023-09-09T07:23:59Z</time>
      </trkpt>
      <trkpt lat="48.53032" lon="4.91565">
        <ele>153.4</ele>
        <time>2023-09-09T07:24:05Z</time>
      </trkpt>
      <trkpt lat="48.52998" lon="4.9155">
        <ele>153.5</ele>
        <time>2023-09-09T07:24:10Z</time>
      </trkpt>
      <trkpt lat="48.52958" lon="4.91534">
        <ele>153.6</ele>
        <time>2023-09-09T07:24:16Z</time>
      </trkpt>
      <trkpt lat="48.52924" lon="4.91525">
        <ele>153.5</ele>
        <time>2023-09-09T07:24:21Z</time>
      </trkpt>
      <trkpt lat="48.52904" lon="4.9152">
        <ele>153.5</ele>
        <time>2023-09-09T07:24:24Z</time>
      </trkpt>
      <trkpt lat="48.5289" lon="4.91519">
        <ele>153.6</ele>
        <time>2023-09-09T07:24:26Z</time>
      </trkpt>
      <trkpt lat="48.52869" lon="4.91517">
        <ele>153.6</ele>
        <time>2023-09-09T07:24:29Z</time>
      </trkpt>
      <trkpt lat="48.52847" lon="4.91515">
        <ele>153.8</ele>
        <time>2023-09-09T07:24:32Z</time>
      </trkpt>
      <trkpt lat="48.52807" lon="4.91515">
        <ele>154</ele>
        <time>2023-09-09T07:24:38Z</time>
      </trkpt>
      <trkpt lat="48.52768" lon="4.91518">
        <ele>154.2</ele>
        <time>2023-09-09T07:24:44Z</time>
      </trkpt>
      <trkpt lat="48.52728" lon="4.9152">
        <ele>154.5</ele>
        <time>2023-09-09T07:24:51Z</time>
      </trkpt>
      <trkpt lat="48.52699" lon="4.91521">
        <ele>154.9</ele>
        <time>2023-09-09T07:24:56Z</time>
      </trkpt>
      <trkpt lat="48.52694" lon="4.91522">
        <ele>155</ele>
        <time>2023-09-09T07:24:57Z</time>
      </trkpt>
      <trkpt lat="48.52673" lon="4.91523">
        <ele>155.2</ele>
        <time>2023-09-09T07:25:02Z</time>
      </trkpt>
      <trkpt lat="48.52669" lon="4.91523">
        <ele>155.2</ele>
        <time>2023-09-09T07:25:03Z</time>
      </trkpt>
      <trkpt lat="48.5265" lon="4.91525">
        <ele>155.3</ele>
        <time>2023-09-09T07:25:07Z</time>
      </trkpt>
      <trkpt lat="48.52626" lon="4.91528">
        <ele>155.4</ele>
        <time>2023-09-09T07:25:11Z</time>
      </trkpt>
      <trkpt lat="48.52614" lon="4.91529">
        <ele>155.4</ele>
        <time>2023-09-09T07:25:13Z</time>
      </trkpt>
      <trkpt lat="48.52565" lon="4.91534">
        <ele>155.2</ele>
        <time>2023-09-09T07:25:20Z</time>
      </trkpt>
      <trkpt lat="48.52521" lon="4.91539">
        <ele>155.3</ele>
        <time>2023-09-09T07:25:26Z</time>
      </trkpt>
      <trkpt lat="48.52461" lon="4.91545">
        <ele>155.3</ele>
        <time>2023-09-09T07:25:34Z</time>
      </trkpt>
      <trkpt lat="48.52453" lon="4.91546">
        <ele>155.3</ele>
        <time>2023-09-09T07:25:35Z</time>
      </trkpt>
      <trkpt lat="48.52418" lon="4.91552">
        <ele>155.5</ele>
        <time>2023-09-09T07:25:40Z</time>
      </trkpt>
      <trkpt lat="48.52369" lon="4.91567">
        <ele>155.5</ele>
        <time>2023-09-09T07:25:47Z</time>
      </trkpt>
      <trkpt lat="48.5232" lon="4.91588">
        <ele>155.8</ele>
        <time>2023-09-09T07:25:54Z</time>
      </trkpt>
      <trkpt lat="48.52301" lon="4.91598">
        <ele>155.8</ele>
        <time>2023-09-09T07:25:57Z</time>
      </trkpt>
      <trkpt lat="48.52288" lon="4.91605">
        <ele>155.8</ele>
        <time>2023-09-09T07:25:59Z</time>
      </trkpt>
      <trkpt lat="48.52243" lon="4.91633">
        <ele>155.7</ele>
        <time>2023-09-09T07:26:06Z</time>
      </trkpt>
      <trkpt lat="48.52236" lon="4.91637">
        <ele>155.7</ele>
        <time>2023-09-09T07:26:07Z</time>
      </trkpt>
      <trkpt lat="48.52211" lon="4.91652">
        <ele>155.6</ele>
        <time>2023-09-09T07:26:11Z</time>
      </trkpt>
      <trkpt lat="48.52167" lon="4.91679">
        <ele>155.8</ele>
        <time>2023-09-09T07:26:18Z</time>
      </trkpt>
      <trkpt lat="48.52149" lon="4.91689">
        <ele>155.9</ele>
        <time>2023-09-09T07:26:21Z</time>
      </trkpt>
      <trkpt lat="48.52142" lon="4.91692">
        <ele>155.9</ele>
        <time>2023-09-09T07:26:22Z</time>
      </trkpt>
      <trkpt lat="48.52107" lon="4.91709">
        <ele>155.9</ele>
        <time>2023-09-09T07:26:27Z</time>
      </trkpt>
      <trkpt lat="48.52062" lon="4.91721">
        <ele>155.9</ele>
        <time>2023-09-09T07:26:33Z</time>
      </trkpt>
      <trkpt lat="48.52012" lon="4.91734">
        <ele>155.9</ele>
        <time>2023-09-09T07:26:40Z</time>
      </trkpt>
      <trkpt lat="48.5197" lon="4.91745">
        <ele>156</ele>
        <time>2023-09-09T07:26:46Z</time>
      </trkpt>
      <trkpt lat="48.51926" lon="4.91756">
        <ele>156</ele>
        <time>2023-09-09T07:26:52Z</time>
      </trkpt>
      <trkpt lat="48.51876" lon="4.91769">
        <ele>156.1</ele>
        <time>2023-09-09T07:26:59Z</time>
      </trkpt>
      <trkpt lat="48.51842" lon="4.91781">
        <ele>156.1</ele>
        <time>2023-09-09T07:27:04Z</time>
      </trkpt>
      <trkpt lat="48.51785" lon="4.91803">
        <ele>156.1</ele>
        <time>2023-09-09T07:27:12Z</time>
      </trkpt>
      <trkpt lat="48.51743" lon="4.91826">
        <ele>156.1</ele>
        <time>2023-09-09T07:27:18Z</time>
      </trkpt>
      <trkpt lat="48.51703" lon="4.91849">
        <ele>156.2</ele>
        <time>2023-09-09T07:27:24Z</time>
      </trkpt>
      <trkpt lat="48.51665" lon="4.91875">
        <ele>156.3</ele>
        <time>2023-09-09T07:27:30Z</time>
      </trkpt>
      <trkpt lat="48.51621" lon="4.91908">
        <ele>156.3</ele>
        <time>2023-09-09T07:27:37Z</time>
      </trkpt>
      <trkpt lat="48.5158" lon="4.91944">
        <ele>156.3</ele>
        <time>2023-09-09T07:27:44Z</time>
      </trkpt>
      <trkpt lat="48.5154" lon="4.91978">
        <ele>156.4</ele>
        <time>2023-09-09T07:27:51Z</time>
      </trkpt>
      <trkpt lat="48.51505" lon="4.92008">
        <ele>156.6</ele>
        <time>2023-09-09T07:27:57Z</time>
      </trkpt>
      <trkpt lat="48.51468" lon="4.9204">
        <ele>156.9</ele>
        <time>2023-09-09T07:28:04Z</time>
      </trkpt>
      <trkpt lat="48.51446" lon="4.92059">
        <ele>157.4</ele>
        <time>2023-09-09T07:28:10Z</time>
      </trkpt>
      <trkpt lat="48.51438" lon="4.92066">
        <ele>157.7</ele>
        <time>2023-09-09T07:28:14Z</time>
      </trkpt>
      <trkpt lat="48.51436" lon="4.92066">
        <ele>157.7</ele>
        <time>2023-09-09T07:28:15Z</time>
      </trkpt>
      <trkpt lat="48.51436" lon="4.92057">
        <ele>157.8</ele>
        <time>2023-09-09T07:28:18Z</time>
      </trkpt>
      <trkpt lat="48.51436" lon="4.92025">
        <ele>157.9</ele>
        <time>2023-09-09T07:28:24Z</time>
      </trkpt>
      <trkpt lat="48.51436" lon="4.91998">
        <ele>158.1</ele>
        <time>2023-09-09T07:28:29Z</time>
      </trkpt>
      <trkpt lat="48.51436" lon="4.91992">
        <ele>158.1</ele>
        <time>2023-09-09T07:28:30Z</time>
      </trkpt>
      <trkpt lat="48.51436" lon="4.91978">
        <ele>158.2</ele>
        <time>2023-09-09T07:28:32Z</time>
      </trkpt>
      <trkpt lat="48.51436" lon="4.91951">
        <ele>158.7</ele>
        <time>2023-09-09T07:28:36Z</time>
      </trkpt>
      <trkpt lat="48.51437" lon="4.91904">
        <ele>160.1</ele>
        <time>2023-09-09T07:28:43Z</time>
      </trkpt>
      <trkpt lat="48.51435" lon="4.91861">
        <ele>161.2</ele>
        <time>2023-09-09T07:28:50Z</time>
      </trkpt>
      <trkpt lat="48.51429" lon="4.91817">
        <ele>162</ele>
        <time>2023-09-09T07:28:57Z</time>
      </trkpt>
      <trkpt lat="48.51423" lon="4.91787">
        <ele>162.7</ele>
        <time>2023-09-09T07:29:02Z</time>
      </trkpt>
      <trkpt lat="48.51421" lon="4.91781">
        <ele>162.8</ele>
        <time>2023-09-09T07:29:03Z</time>
      </trkpt>
      <trkpt lat="48.51407" lon="4.91747">
        <ele>164</ele>
        <time>2023-09-09T07:29:09Z</time>
      </trkpt>
      <trkpt lat="48.51392" lon="4.91717">
        <ele>165.5</ele>
        <time>2023-09-09T07:29:15Z</time>
      </trkpt>
      <trkpt lat="48.5139" lon="4.91712">
        <ele>165.7</ele>
        <time>2023-09-09T07:29:16Z</time>
      </trkpt>
      <trkpt lat="48.51384" lon="4.91686">
        <ele>167</ele>
        <time>2023-09-09T07:29:21Z</time>
      </trkpt>
      <trkpt lat="48.51394" lon="4.91671">
        <ele>168</ele>
        <time>2023-09-09T07:29:25Z</time>
      </trkpt>
      <trkpt lat="48.51408" lon="4.91649">
        <ele>169.6</ele>
        <time>2023-09-09T07:29:31Z</time>
      </trkpt>
      <trkpt lat="48.51414" lon="4.91629">
        <ele>170.8</ele>
        <time>2023-09-09T07:29:36Z</time>
      </trkpt>
      <trkpt lat="48.51409" lon="4.91598">
        <ele>172.2</ele>
        <time>2023-09-09T07:29:42Z</time>
      </trkpt>
      <trkpt lat="48.51401" lon="4.91567">
        <ele>173.6</ele>
        <time>2023-09-09T07:29:48Z</time>
      </trkpt>
      <trkpt lat="48.51392" lon="4.91533">
        <ele>175.1</ele>
        <time>2023-09-09T07:29:55Z</time>
      </trkpt>
      <trkpt lat="48.51382" lon="4.91496">
        <ele>176.7</ele>
        <time>2023-09-09T07:30:03Z</time>
      </trkpt>
      <trkpt lat="48.51373" lon="4.91462">
        <ele>178</ele>
        <time>2023-09-09T07:30:10Z</time>
      </trkpt>
      <trkpt lat="48.51365" lon="4.91429">
        <ele>179.5</ele>
        <time>2023-09-09T07:30:17Z</time>
      </trkpt>
      <trkpt lat="48.51355" lon="4.91393">
        <ele>181</ele>
        <time>2023-09-09T07:30:25Z</time>
      </trkpt>
      <trkpt lat="48.51347" lon="4.9136">
        <ele>182.5</ele>
        <time>2023-09-09T07:30:32Z</time>
      </trkpt>
      <trkpt lat="48.51339" lon="4.91333">
        <ele>183.8</ele>
        <time>2023-09-09T07:30:38Z</time>
      </trkpt>
      <trkpt lat="48.5133" lon="4.91296">
        <ele>185.5</ele>
        <time>2023-09-09T07:30:46Z</time>
      </trkpt>
      <trkpt lat="48.51321" lon="4.91264">
        <ele>186.9</ele>
        <time>2023-09-09T07:30:53Z</time>
      </trkpt>
      <trkpt lat="48.51313" lon="4.91233">
        <ele>188.4</ele>
        <time>2023-09-09T07:31:00Z</time>
      </trkpt>
      <trkpt lat="48.51304" lon="4.91197">
        <ele>190</ele>
        <time>2023-09-09T07:31:08Z</time>
      </trkpt>
      <trkpt lat="48.51297" lon="4.91172">
        <ele>191.1</ele>
        <time>2023-09-09T07:31:14Z</time>
      </trkpt>
      <trkpt lat="48.51292" lon="4.9115">
        <ele>191.8</ele>
        <time>2023-09-09T07:31:19Z</time>
      </trkpt>
      <trkpt lat="48.51281" lon="4.9111">
        <ele>192.6</ele>
        <time>2023-09-09T07:31:27Z</time>
      </trkpt>
      <trkpt lat="48.5127" lon="4.91068">
        <ele>192.8</ele>
        <time>2023-09-09T07:31:33Z</time>
      </trkpt>
      <trkpt lat="48.51258" lon="4.9102">
        <ele>192.6</ele>
        <time>2023-09-09T07:31:39Z</time>
      </trkpt>
      <trkpt lat="48.51241" lon="4.90955">
        <ele>191.9</ele>
        <time>2023-09-09T07:31:46Z</time>
      </trkpt>
      <trkpt lat="48.51224" lon="4.9089">
        <ele>191.1</ele>
        <time>2023-09-09T07:31:53Z</time>
      </trkpt>
      <trkpt lat="48.51203" lon="4.9081">
        <ele>190.4</ele>
        <time>2023-09-09T07:32:01Z</time>
      </trkpt>
      <trkpt lat="48.51186" lon="4.90748">
        <ele>189.7</ele>
        <time>2023-09-09T07:32:07Z</time>
      </trkpt>
      <trkpt lat="48.5117" lon="4.90684">
        <ele>189</ele>
        <time>2023-09-09T07:32:13Z</time>
      </trkpt>
      <trkpt lat="48.51148" lon="4.90603">
        <ele>188.1</ele>
        <time>2023-09-09T07:32:20Z</time>
      </trkpt>
      <trkpt lat="48.51127" lon="4.90521">
        <ele>187.5</ele>
        <time>2023-09-09T07:32:27Z</time>
      </trkpt>
      <trkpt lat="48.51114" lon="4.90474">
        <ele>186.8</ele>
        <time>2023-09-09T07:32:31Z</time>
      </trkpt>
      <trkpt lat="48.51089" lon="4.90388">
        <ele>185.2</ele>
        <time>2023-09-09T07:32:38Z</time>
      </trkpt>
      <trkpt lat="48.51086" lon="4.90375">
        <ele>185</ele>
        <time>2023-09-09T07:32:39Z</time>
      </trkpt>
      <trkpt lat="48.51063" lon="4.90292">
        <ele>183.8</ele>
        <time>2023-09-09T07:32:46Z</time>
      </trkpt>
      <trkpt lat="48.51039" lon="4.9021">
        <ele>182.8</ele>
        <time>2023-09-09T07:32:53Z</time>
      </trkpt>
      <trkpt lat="48.51016" lon="4.90125">
        <ele>182.1</ele>
        <time>2023-09-09T07:33:00Z</time>
      </trkpt>
      <trkpt lat="48.51009" lon="4.901">
        <ele>181.9</ele>
        <time>2023-09-09T07:33:02Z</time>
      </trkpt>
      <trkpt lat="48.50996" lon="4.90027">
        <ele>181.4</ele>
        <time>2023-09-09T07:33:08Z</time>
      </trkpt>
      <trkpt lat="48.50986" lon="4.89971">
        <ele>180.8</ele>
        <time>2023-09-09T07:33:13Z</time>
      </trkpt>
      <trkpt lat="48.50985" lon="4.89961">
        <ele>180.7</ele>
        <time>2023-09-09T07:33:14Z</time>
      </trkpt>
      <trkpt lat="48.50985" lon="4.89895">
        <ele>180.1</ele>
        <time>2023-09-09T07:33:20Z</time>
      </trkpt>
      <trkpt lat="48.50991" lon="4.89811">
        <ele>180.3</ele>
        <time>2023-09-09T07:33:28Z</time>
      </trkpt>
      <trkpt lat="48.50997" lon="4.89761">
        <ele>180.8</ele>
        <time>2023-09-09T07:33:33Z</time>
      </trkpt>
      <trkpt lat="48.51007" lon="4.89728">
        <ele>180.9</ele>
        <time>2023-09-09T07:33:37Z</time>
      </trkpt>
      <trkpt lat="48.5101" lon="4.8972">
        <ele>180.9</ele>
        <time>2023-09-09T07:33:38Z</time>
      </trkpt>
      <trkpt lat="48.51023" lon="4.89689">
        <ele>181</ele>
        <time>2023-09-09T07:33:42Z</time>
      </trkpt>
      <trkpt lat="48.51027" lon="4.89681">
        <ele>181</ele>
        <time>2023-09-09T07:33:43Z</time>
      </trkpt>
      <trkpt lat="48.5103" lon="4.89673">
        <ele>181</ele>
        <time>2023-09-09T07:33:44Z</time>
      </trkpt>
      <trkpt lat="48.5104" lon="4.89634">
        <ele>180.6</ele>
        <time>2023-09-09T07:33:48Z</time>
      </trkpt>
      <trkpt lat="48.5105" lon="4.89578">
        <ele>179.7</ele>
        <time>2023-09-09T07:33:54Z</time>
      </trkpt>
      <trkpt lat="48.51061" lon="4.89515">
        <ele>178.1</ele>
        <time>2023-09-09T07:34:00Z</time>
      </trkpt>
      <trkpt lat="48.51072" lon="4.89455">
        <ele>176.9</ele>
        <time>2023-09-09T07:34:05Z</time>
      </trkpt>
      <trkpt lat="48.51085" lon="4.8938">
        <ele>177.4</ele>
        <time>2023-09-09T07:34:11Z</time>
      </trkpt>
      <trkpt lat="48.51091" lon="4.89348">
        <ele>177.9</ele>
        <time>2023-09-09T07:34:14Z</time>
      </trkpt>
      <trkpt lat="48.51092" lon="4.89338">
        <ele>178.1</ele>
        <time>2023-09-09T07:34:15Z</time>
      </trkpt>
      <trkpt lat="48.51099" lon="4.89292">
        <ele>178.8</ele>
        <time>2023-09-09T07:34:20Z</time>
      </trkpt>
      <trkpt lat="48.51107" lon="4.89233">
        <ele>179.1</ele>
        <time>2023-09-09T07:34:26Z</time>
      </trkpt>
      <trkpt lat="48.51115" lon="4.89181">
        <ele>178.9</ele>
        <time>2023-09-09T07:34:31Z</time>
      </trkpt>
      <trkpt lat="48.51127" lon="4.891">
        <ele>178.3</ele>
        <time>2023-09-09T07:34:39Z</time>
      </trkpt>
      <trkpt lat="48.51133" lon="4.89059">
        <ele>177.7</ele>
        <time>2023-09-09T07:34:43Z</time>
      </trkpt>
      <trkpt lat="48.51134" lon="4.89049">
        <ele>177.5</ele>
        <time>2023-09-09T07:34:44Z</time>
      </trkpt>
      <trkpt lat="48.51144" lon="4.88985">
        <ele>176.1</ele>
        <time>2023-09-09T07:34:50Z</time>
      </trkpt>
      <trkpt lat="48.51155" lon="4.88931">
        <ele>174.8</ele>
        <time>2023-09-09T07:34:55Z</time>
      </trkpt>
      <trkpt lat="48.51174" lon="4.88853">
        <ele>173</ele>
        <time>2023-09-09T07:35:02Z</time>
      </trkpt>
      <trkpt lat="48.51179" lon="4.8883">
        <ele>172.4</ele>
        <time>2023-09-09T07:35:04Z</time>
      </trkpt>
      <trkpt lat="48.51195" lon="4.88745">
        <ele>170.3</ele>
        <time>2023-09-09T07:35:11Z</time>
      </trkpt>
      <trkpt lat="48.51197" lon="4.88732">
        <ele>170.1</ele>
        <time>2023-09-09T07:35:12Z</time>
      </trkpt>
      <trkpt lat="48.51205" lon="4.88666">
        <ele>168.6</ele>
        <time>2023-09-09T07:35:17Z</time>
      </trkpt>
      <trkpt lat="48.51204" lon="4.88581">
        <ele>166.5</ele>
        <time>2023-09-09T07:35:24Z</time>
      </trkpt>
      <trkpt lat="48.51197" lon="4.88527">
        <ele>165.6</ele>
        <time>2023-09-09T07:35:28Z</time>
      </trkpt>
      <trkpt lat="48.51172" lon="4.88441">
        <ele>164.8</ele>
        <time>2023-09-09T07:35:35Z</time>
      </trkpt>
      <trkpt lat="48.51148" lon="4.88361">
        <ele>164.6</ele>
        <time>2023-09-09T07:35:42Z</time>
      </trkpt>
      <trkpt lat="48.51124" lon="4.88283">
        <ele>164.5</ele>
        <time>2023-09-09T07:35:49Z</time>
      </trkpt>
      <trkpt lat="48.51117" lon="4.88261">
        <ele>164.6</ele>
        <time>2023-09-09T07:35:51Z</time>
      </trkpt>
      <trkpt lat="48.51095" lon="4.88188">
        <ele>165.1</ele>
        <time>2023-09-09T07:35:58Z</time>
      </trkpt>
      <trkpt lat="48.51073" lon="4.88105">
        <ele>165.1</ele>
        <time>2023-09-09T07:36:06Z</time>
      </trkpt>
      <trkpt lat="48.51051" lon="4.88024">
        <ele>164.5</ele>
        <time>2023-09-09T07:36:14Z</time>
      </trkpt>
      <trkpt lat="48.51031" lon="4.87948">
        <ele>163.4</ele>
        <time>2023-09-09T07:36:21Z</time>
      </trkpt>
      <trkpt lat="48.51029" lon="4.87938">
        <ele>163.3</ele>
        <time>2023-09-09T07:36:22Z</time>
      </trkpt>
      <trkpt lat="48.51009" lon="4.87862">
        <ele>162</ele>
        <time>2023-09-09T07:36:29Z</time>
      </trkpt>
      <trkpt lat="48.50997" lon="4.87819">
        <ele>161</ele>
        <time>2023-09-09T07:36:33Z</time>
      </trkpt>
      <trkpt lat="48.50976" lon="4.87739">
        <ele>158.8</ele>
        <time>2023-09-09T07:36:40Z</time>
      </trkpt>
      <trkpt lat="48.50973" lon="4.87728">
        <ele>158.5</ele>
        <time>2023-09-09T07:36:41Z</time>
      </trkpt>
      <trkpt lat="48.50955" lon="4.87661">
        <ele>156.7</ele>
        <time>2023-09-09T07:36:47Z</time>
      </trkpt>
      <trkpt lat="48.50922" lon="4.87587">
        <ele>153.8</ele>
        <time>2023-09-09T07:36:54Z</time>
      </trkpt>
      <trkpt lat="48.50889" lon="4.87522">
        <ele>151.3</ele>
        <time>2023-09-09T07:37:00Z</time>
      </trkpt>
      <trkpt lat="48.50884" lon="4.87511">
        <ele>150.8</ele>
        <time>2023-09-09T07:37:01Z</time>
      </trkpt>
      <trkpt lat="48.50867" lon="4.87477">
        <ele>149</ele>
        <time>2023-09-09T07:37:04Z</time>
      </trkpt>
      <trkpt lat="48.50856" lon="4.87455">
        <ele>148.1</ele>
        <time>2023-09-09T07:37:06Z</time>
      </trkpt>
      <trkpt lat="48.50851" lon="4.87429">
        <ele>147.3</ele>
        <time>2023-09-09T07:37:08Z</time>
      </trkpt>
      <trkpt lat="48.50851" lon="4.87415">
        <ele>146.8</ele>
        <time>2023-09-09T07:37:09Z</time>
      </trkpt>
      <trkpt lat="48.50847" lon="4.87331">
        <ele>144.8</ele>
        <time>2023-09-09T07:37:15Z</time>
      </trkpt>
      <trkpt lat="48.50846" lon="4.87317">
        <ele>144.7</ele>
        <time>2023-09-09T07:37:16Z</time>
      </trkpt>
      <trkpt lat="48.50842" lon="4.8724">
        <ele>144.6</ele>
        <time>2023-09-09T07:37:22Z</time>
      </trkpt>
      <trkpt lat="48.50831" lon="4.87206">
        <ele>144.6</ele>
        <time>2023-09-09T07:37:25Z</time>
      </trkpt>
      <trkpt lat="48.50823" lon="4.87184">
        <ele>144.6</ele>
        <time>2023-09-09T07:37:27Z</time>
      </trkpt>
      <trkpt lat="48.508" lon="4.87123">
        <ele>144.7</ele>
        <time>2023-09-09T07:37:33Z</time>
      </trkpt>
      <trkpt lat="48.50763" lon="4.87051">
        <ele>144.3</ele>
        <time>2023-09-09T07:37:41Z</time>
      </trkpt>
      <trkpt lat="48.50758" lon="4.87042">
        <ele>144.3</ele>
        <time>2023-09-09T07:37:42Z</time>
      </trkpt>
      <trkpt lat="48.50726" lon="4.86984">
        <ele>144</ele>
        <time>2023-09-09T07:37:49Z</time>
      </trkpt>
      <trkpt lat="48.50686" lon="4.86928">
        <ele>143.5</ele>
        <time>2023-09-09T07:37:57Z</time>
      </trkpt>
      <trkpt lat="48.50644" lon="4.86873">
        <ele>143</ele>
        <time>2023-09-09T07:38:06Z</time>
      </trkpt>
      <trkpt lat="48.50614" lon="4.86834">
        <ele>142.3</ele>
        <time>2023-09-09T07:38:13Z</time>
      </trkpt>
      <trkpt lat="48.50581" lon="4.86797">
        <ele>141.8</ele>
        <time>2023-09-09T07:38:20Z</time>
      </trkpt>
      <trkpt lat="48.50559" lon="4.86783">
        <ele>141.5</ele>
        <time>2023-09-09T07:38:25Z</time>
      </trkpt>
      <trkpt lat="48.50555" lon="4.86781">
        <ele>141.5</ele>
        <time>2023-09-09T07:38:26Z</time>
      </trkpt>
      <trkpt lat="48.50551" lon="4.86779">
        <ele>141.4</ele>
        <time>2023-09-09T07:38:27Z</time>
      </trkpt>
      <trkpt lat="48.50551" lon="4.8676">
        <ele>141.4</ele>
        <time>2023-09-09T07:38:29Z</time>
      </trkpt>
      <trkpt lat="48.50552" lon="4.86753">
        <ele>141.4</ele>
        <time>2023-09-09T07:38:30Z</time>
      </trkpt>
      <trkpt lat="48.50553" lon="4.86745">
        <ele>141.4</ele>
        <time>2023-09-09T07:38:31Z</time>
      </trkpt>
      <trkpt lat="48.50554" lon="4.86728">
        <ele>141.4</ele>
        <time>2023-09-09T07:38:33Z</time>
      </trkpt>
      <trkpt lat="48.50555" lon="4.86711">
        <ele>141.5</ele>
        <time>2023-09-09T07:38:35Z</time>
      </trkpt>
      <trkpt lat="48.50562" lon="4.86654">
        <ele>141.6</ele>
        <time>2023-09-09T07:38:42Z</time>
      </trkpt>
      <trkpt lat="48.50578" lon="4.86606">
        <ele>141.8</ele>
        <time>2023-09-09T07:38:48Z</time>
      </trkpt>
      <trkpt lat="48.50595" lon="4.86556">
        <ele>142.3</ele>
        <time>2023-09-09T07:38:55Z</time>
      </trkpt>
      <trkpt lat="48.50613" lon="4.86498">
        <ele>143</ele>
        <time>2023-09-09T07:39:03Z</time>
      </trkpt>
      <trkpt lat="48.50629" lon="4.86445">
        <ele>144</ele>
        <time>2023-09-09T07:39:10Z</time>
      </trkpt>
      <trkpt lat="48.50642" lon="4.86402">
        <ele>144.9</ele>
        <time>2023-09-09T07:39:16Z</time>
      </trkpt>
      <trkpt lat="48.50657" lon="4.86352">
        <ele>146.3</ele>
        <time>2023-09-09T07:39:23Z</time>
      </trkpt>
      <trkpt lat="48.50669" lon="4.86314">
        <ele>147.7</ele>
        <time>2023-09-09T07:39:29Z</time>
      </trkpt>
      <trkpt lat="48.5068" lon="4.86277">
        <ele>148.6</ele>
        <time>2023-09-09T07:39:35Z</time>
      </trkpt>
      <trkpt lat="48.50688" lon="4.86236">
        <ele>149.5</ele>
        <time>2023-09-09T07:39:41Z</time>
      </trkpt>
      <trkpt lat="48.50693" lon="4.86198">
        <ele>150.5</ele>
        <time>2023-09-09T07:39:46Z</time>
      </trkpt>
      <trkpt lat="48.50695" lon="4.86183">
        <ele>150.9</ele>
        <time>2023-09-09T07:39:48Z</time>
      </trkpt>
      <trkpt lat="48.50698" lon="4.86162">
        <ele>151.3</ele>
        <time>2023-09-09T07:39:51Z</time>
      </trkpt>
      <trkpt lat="48.507" lon="4.86148">
        <ele>151.6</ele>
        <time>2023-09-09T07:39:53Z</time>
      </trkpt>
      <trkpt lat="48.50699" lon="4.86117">
        <ele>151.7</ele>
        <time>2023-09-09T07:39:57Z</time>
      </trkpt>
      <trkpt lat="48.50697" lon="4.86044">
        <ele>151.2</ele>
        <time>2023-09-09T07:40:06Z</time>
      </trkpt>
      <trkpt lat="48.50696" lon="4.85977">
        <ele>150.6</ele>
        <time>2023-09-09T07:40:14Z</time>
      </trkpt>
      <trkpt lat="48.50687" lon="4.85919">
        <ele>150</ele>
        <time>2023-09-09T07:40:21Z</time>
      </trkpt>
      <trkpt lat="48.50676" lon="4.85854">
        <ele>149.8</ele>
        <time>2023-09-09T07:40:28Z</time>
      </trkpt>
      <trkpt lat="48.50663" lon="4.85773">
        <ele>149.7</ele>
        <time>2023-09-09T07:40:37Z</time>
      </trkpt>
      <trkpt lat="48.50648" lon="4.85697">
        <ele>149.3</ele>
        <time>2023-09-09T07:40:45Z</time>
      </trkpt>
      <trkpt lat="48.50626" lon="4.85625">
        <ele>149.1</ele>
        <time>2023-09-09T07:40:53Z</time>
      </trkpt>
      <trkpt lat="48.50604" lon="4.85575">
        <ele>149.3</ele>
        <time>2023-09-09T07:40:59Z</time>
      </trkpt>
      <trkpt lat="48.50601" lon="4.85567">
        <ele>149.3</ele>
        <time>2023-09-09T07:41:00Z</time>
      </trkpt>
      <trkpt lat="48.50583" lon="4.85527">
        <ele>149.6</ele>
        <time>2023-09-09T07:41:05Z</time>
      </trkpt>
      <trkpt lat="48.5056" lon="4.85475">
        <ele>150</ele>
        <time>2023-09-09T07:41:12Z</time>
      </trkpt>
      <trkpt lat="48.50551" lon="4.85449">
        <ele>150.1</ele>
        <time>2023-09-09T07:41:16Z</time>
      </trkpt>
      <trkpt lat="48.50547" lon="4.85435">
        <ele>150.1</ele>
        <time>2023-09-09T07:41:18Z</time>
      </trkpt>
      <trkpt lat="48.50544" lon="4.85419">
        <ele>150.1</ele>
        <time>2023-09-09T07:41:20Z</time>
      </trkpt>
      <trkpt lat="48.50545" lon="4.85403">
        <ele>150</ele>
        <time>2023-09-09T07:41:22Z</time>
      </trkpt>
      <trkpt lat="48.50545" lon="4.85395">
        <ele>150</ele>
        <time>2023-09-09T07:41:23Z</time>
      </trkpt>
      <trkpt lat="48.50546" lon="4.85387">
        <ele>149.9</ele>
        <time>2023-09-09T07:41:24Z</time>
      </trkpt>
      <trkpt lat="48.50554" lon="4.85352">
        <ele>149</ele>
        <time>2023-09-09T07:41:28Z</time>
      </trkpt>
      <trkpt lat="48.50567" lon="4.853">
        <ele>147.7</ele>
        <time>2023-09-09T07:41:33Z</time>
      </trkpt>
      <trkpt lat="48.50592" lon="4.85232">
        <ele>146.5</ele>
        <time>2023-09-09T07:41:40Z</time>
      </trkpt>
      <trkpt lat="48.50608" lon="4.85195">
        <ele>146.3</ele>
        <time>2023-09-09T07:41:44Z</time>
      </trkpt>
      <trkpt lat="48.50619" lon="4.8518">
        <ele>146.2</ele>
        <time>2023-09-09T07:41:46Z</time>
      </trkpt>
      <trkpt lat="48.50662" lon="4.85128">
        <ele>146</ele>
        <time>2023-09-09T07:41:53Z</time>
      </trkpt>
      <trkpt lat="48.50668" lon="4.85122">
        <ele>146</ele>
        <time>2023-09-09T07:41:54Z</time>
      </trkpt>
      <trkpt lat="48.50707" lon="4.85085">
        <ele>145.3</ele>
        <time>2023-09-09T07:42:00Z</time>
      </trkpt>
      <trkpt lat="48.50758" lon="4.85044">
        <ele>143.4</ele>
        <time>2023-09-09T07:42:08Z</time>
      </trkpt>
      <trkpt lat="48.50809" lon="4.85004">
        <ele>140.1</ele>
        <time>2023-09-09T07:42:15Z</time>
      </trkpt>
      <trkpt lat="48.50847" lon="4.84963">
        <ele>137.6</ele>
        <time>2023-09-09T07:42:20Z</time>
      </trkpt>
      <trkpt lat="48.5089" lon="4.84901">
        <ele>135.3</ele>
        <time>2023-09-09T07:42:26Z</time>
      </trkpt>
      <trkpt lat="48.50912" lon="4.84872">
        <ele>134.8</ele>
        <time>2023-09-09T07:42:29Z</time>
      </trkpt>
      <trkpt lat="48.5092" lon="4.84864">
        <ele>134.7</ele>
        <time>2023-09-09T07:42:30Z</time>
      </trkpt>
      <trkpt lat="48.50936" lon="4.8485">
        <ele>134.5</ele>
        <time>2023-09-09T07:42:32Z</time>
      </trkpt>
      <trkpt lat="48.50977" lon="4.84824">
        <ele>134.1</ele>
        <time>2023-09-09T07:42:37Z</time>
      </trkpt>
      <trkpt lat="48.51031" lon="4.84795">
        <ele>133.8</ele>
        <time>2023-09-09T07:42:44Z</time>
      </trkpt>
      <trkpt lat="48.51038" lon="4.84791">
        <ele>133.8</ele>
        <time>2023-09-09T07:42:45Z</time>
      </trkpt>
      <trkpt lat="48.51089" lon="4.84763">
        <ele>134</ele>
        <time>2023-09-09T07:42:52Z</time>
      </trkpt>
      <trkpt lat="48.51104" lon="4.84756">
        <ele>134.2</ele>
        <time>2023-09-09T07:42:54Z</time>
      </trkpt>
      <trkpt lat="48.51143" lon="4.84721">
        <ele>134.8</ele>
        <time>2023-09-09T07:43:00Z</time>
      </trkpt>
      <trkpt lat="48.51177" lon="4.8468">
        <ele>135.4</ele>
        <time>2023-09-09T07:43:06Z</time>
      </trkpt>
      <trkpt lat="48.51213" lon="4.84636">
        <ele>136.5</ele>
        <time>2023-09-09T07:43:13Z</time>
      </trkpt>
      <trkpt lat="48.51248" lon="4.84597">
        <ele>137.6</ele>
        <time>2023-09-09T07:43:20Z</time>
      </trkpt>
      <trkpt lat="48.51283" lon="4.84565">
        <ele>138.8</ele>
        <time>2023-09-09T07:43:27Z</time>
      </trkpt>
      <trkpt lat="48.51289" lon="4.84562">
        <ele>139</ele>
        <time>2023-09-09T07:43:28Z</time>
      </trkpt>
      <trkpt lat="48.51305" lon="4.84553">
        <ele>139.5</ele>
        <time>2023-09-09T07:43:31Z</time>
      </trkpt>
      <trkpt lat="48.51311" lon="4.8455">
        <ele>139.6</ele>
        <time>2023-09-09T07:43:32Z</time>
      </trkpt>
      <trkpt lat="48.51349" lon="4.84529">
        <ele>140.8</ele>
        <time>2023-09-09T07:43:39Z</time>
      </trkpt>
      <trkpt lat="48.51359" lon="4.84521">
        <ele>141.1</ele>
        <time>2023-09-09T07:43:41Z</time>
      </trkpt>
      <trkpt lat="48.51374" lon="4.84507">
        <ele>141.6</ele>
        <time>2023-09-09T07:43:44Z</time>
      </trkpt>
      <trkpt lat="48.51411" lon="4.84473">
        <ele>142.3</ele>
        <time>2023-09-09T07:43:51Z</time>
      </trkpt>
      <trkpt lat="48.5144" lon="4.84438">
        <ele>142.8</ele>
        <time>2023-09-09T07:43:57Z</time>
      </trkpt>
      <trkpt lat="48.51474" lon="4.84399">
        <ele>143.2</ele>
        <time>2023-09-09T07:44:04Z</time>
      </trkpt>
      <trkpt lat="48.51499" lon="4.84356">
        <ele>143.4</ele>
        <time>2023-09-09T07:44:10Z</time>
      </trkpt>
      <trkpt lat="48.51529" lon="4.84305">
        <ele>143.6</ele>
        <time>2023-09-09T07:44:17Z</time>
      </trkpt>
      <trkpt lat="48.51564" lon="4.84246">
        <ele>144.2</ele>
        <time>2023-09-09T07:44:25Z</time>
      </trkpt>
      <trkpt lat="48.51576" lon="4.84226">
        <ele>144.4</ele>
        <time>2023-09-09T07:44:28Z</time>
      </trkpt>
      <trkpt lat="48.51588" lon="4.84206">
        <ele>144.6</ele>
        <time>2023-09-09T07:44:31Z</time>
      </trkpt>
      <trkpt lat="48.51598" lon="4.84182">
        <ele>144.9</ele>
        <time>2023-09-09T07:44:34Z</time>
      </trkpt>
      <trkpt lat="48.51603" lon="4.84166">
        <ele>145.2</ele>
        <time>2023-09-09T07:44:36Z</time>
      </trkpt>
      <trkpt lat="48.51605" lon="4.84158">
        <ele>145.3</ele>
        <time>2023-09-09T07:44:37Z</time>
      </trkpt>
      <trkpt lat="48.51622" lon="4.84101">
        <ele>146.5</ele>
        <time>2023-09-09T07:44:44Z</time>
      </trkpt>
      <trkpt lat="48.51624" lon="4.84094">
        <ele>146.6</ele>
        <time>2023-09-09T07:44:45Z</time>
      </trkpt>
      <trkpt lat="48.51645" lon="4.84041">
        <ele>147.9</ele>
        <time>2023-09-09T07:44:52Z</time>
      </trkpt>
      <trkpt lat="48.51661" lon="4.84003">
        <ele>148.9</ele>
        <time>2023-09-09T07:44:57Z</time>
      </trkpt>
      <trkpt lat="48.51677" lon="4.83965">
        <ele>149.7</ele>
        <time>2023-09-09T07:45:02Z</time>
      </trkpt>
      <trkpt lat="48.51693" lon="4.83928">
        <ele>150.5</ele>
        <time>2023-09-09T07:45:07Z</time>
      </trkpt>
      <trkpt lat="48.5171" lon="4.8389">
        <ele>151.5</ele>
        <time>2023-09-09T07:45:13Z</time>
      </trkpt>
      <trkpt lat="48.51724" lon="4.83853">
        <ele>152</ele>
        <time>2023-09-09T07:45:19Z</time>
      </trkpt>
      <trkpt lat="48.51727" lon="4.83823">
        <ele>151.4</ele>
        <time>2023-09-09T07:45:23Z</time>
      </trkpt>
      <trkpt lat="48.51731" lon="4.83773">
        <ele>150</ele>
        <time>2023-09-09T07:45:28Z</time>
      </trkpt>
      <trkpt lat="48.51737" lon="4.83704">
        <ele>148.7</ele>
        <time>2023-09-09T07:45:34Z</time>
      </trkpt>
      <trkpt lat="48.51749" lon="4.83615">
        <ele>147.5</ele>
        <time>2023-09-09T07:45:42Z</time>
      </trkpt>
      <trkpt lat="48.51764" lon="4.83536">
        <ele>146.8</ele>
        <time>2023-09-09T07:45:49Z</time>
      </trkpt>
      <trkpt lat="48.51768" lon="4.8349">
        <ele>146.1</ele>
        <time>2023-09-09T07:45:53Z</time>
      </trkpt>
      <trkpt lat="48.51768" lon="4.83478">
        <ele>146</ele>
        <time>2023-09-09T07:45:54Z</time>
      </trkpt>
      <trkpt lat="48.51767" lon="4.83393">
        <ele>145.7</ele>
        <time>2023-09-09T07:46:01Z</time>
      </trkpt>
      <trkpt lat="48.51767" lon="4.83381">
        <ele>145.8</ele>
        <time>2023-09-09T07:46:02Z</time>
      </trkpt>
      <trkpt lat="48.5177" lon="4.8331">
        <ele>146.8</ele>
        <time>2023-09-09T07:46:08Z</time>
      </trkpt>
      <trkpt lat="48.5178" lon="4.83247">
        <ele>146.5</ele>
        <time>2023-09-09T07:46:14Z</time>
      </trkpt>
      <trkpt lat="48.51791" lon="4.83177">
        <ele>144.5</ele>
        <time>2023-09-09T07:46:20Z</time>
      </trkpt>
      <trkpt lat="48.51804" lon="4.83091">
        <ele>142.8</ele>
        <time>2023-09-09T07:46:27Z</time>
      </trkpt>
      <trkpt lat="48.51806" lon="4.83078">
        <ele>142.6</ele>
        <time>2023-09-09T07:46:28Z</time>
      </trkpt>
      <trkpt lat="48.51814" lon="4.82993">
        <ele>141</ele>
        <time>2023-09-09T07:46:35Z</time>
      </trkpt>
      <trkpt lat="48.51814" lon="4.82981">
        <ele>140.8</ele>
        <time>2023-09-09T07:46:36Z</time>
      </trkpt>
      <trkpt lat="48.51819" lon="4.82906">
        <ele>139</ele>
        <time>2023-09-09T07:46:42Z</time>
      </trkpt>
      <trkpt lat="48.51825" lon="4.82812">
        <ele>137.4</ele>
        <time>2023-09-09T07:46:49Z</time>
      </trkpt>
      <trkpt lat="48.51823" lon="4.82748">
        <ele>136.9</ele>
        <time>2023-09-09T07:46:54Z</time>
      </trkpt>
      <trkpt lat="48.51821" lon="4.82721">
        <ele>136.9</ele>
        <time>2023-09-09T07:46:57Z</time>
      </trkpt>
      <trkpt lat="48.51821" lon="4.82692">
        <ele>137</ele>
        <time>2023-09-09T07:47:02Z</time>
      </trkpt>
      <trkpt lat="48.51821" lon="4.82686">
        <ele>137</ele>
        <time>2023-09-09T07:47:03Z</time>
      </trkpt>
      <trkpt lat="48.51822" lon="4.82673">
        <ele>137</ele>
        <time>2023-09-09T07:47:05Z</time>
      </trkpt>
      <trkpt lat="48.51822" lon="4.82658">
        <ele>137</ele>
        <time>2023-09-09T07:47:07Z</time>
      </trkpt>
      <trkpt lat="48.51822" lon="4.8265">
        <ele>137</ele>
        <time>2023-09-09T07:47:08Z</time>
      </trkpt>
      <trkpt lat="48.51825" lon="4.82625">
        <ele>137</ele>
        <time>2023-09-09T07:47:11Z</time>
      </trkpt>
      <trkpt lat="48.51831" lon="4.82579">
        <ele>137.4</ele>
        <time>2023-09-09T07:47:16Z</time>
      </trkpt>
      <trkpt lat="48.51839" lon="4.82507">
        <ele>138.1</ele>
        <time>2023-09-09T07:47:24Z</time>
      </trkpt>
      <trkpt lat="48.5184" lon="4.82491">
        <ele>138.5</ele>
        <time>2023-09-09T07:47:26Z</time>
      </trkpt>
      <trkpt lat="48.51843" lon="4.82457">
        <ele>139.4</ele>
        <time>2023-09-09T07:47:30Z</time>
      </trkpt>
      <trkpt lat="48.51848" lon="4.82404">
        <ele>140.9</ele>
        <time>2023-09-09T07:47:37Z</time>
      </trkpt>
      <trkpt lat="48.5185" lon="4.82344">
        <ele>142.5</ele>
        <time>2023-09-09T07:47:45Z</time>
      </trkpt>
      <trkpt lat="48.5185" lon="4.82292">
        <ele>143.6</ele>
        <time>2023-09-09T07:47:52Z</time>
      </trkpt>
      <trkpt lat="48.5185" lon="4.82237">
        <ele>144.5</ele>
        <time>2023-09-09T07:47:59Z</time>
      </trkpt>
      <trkpt lat="48.5185" lon="4.82229">
        <ele>144.6</ele>
        <time>2023-09-09T07:48:00Z</time>
      </trkpt>
      <trkpt lat="48.51856" lon="4.82178">
        <ele>145.2</ele>
        <time>2023-09-09T07:48:06Z</time>
      </trkpt>
      <trkpt lat="48.51857" lon="4.82169">
        <ele>145.3</ele>
        <time>2023-09-09T07:48:07Z</time>
      </trkpt>
      <trkpt lat="48.51867" lon="4.82103">
        <ele>145.6</ele>
        <time>2023-09-09T07:48:15Z</time>
      </trkpt>
      <trkpt lat="48.51878" lon="4.82045">
        <ele>145.8</ele>
        <time>2023-09-09T07:48:22Z</time>
      </trkpt>
      <trkpt lat="48.51891" lon="4.81988">
        <ele>145.9</ele>
        <time>2023-09-09T07:48:29Z</time>
      </trkpt>
      <trkpt lat="48.51906" lon="4.81927">
        <ele>146.2</ele>
        <time>2023-09-09T07:48:36Z</time>
      </trkpt>
      <trkpt lat="48.51922" lon="4.81864">
        <ele>146.1</ele>
        <time>2023-09-09T07:48:43Z</time>
      </trkpt>
      <trkpt lat="48.51933" lon="4.81802">
        <ele>145.7</ele>
        <time>2023-09-09T07:48:50Z</time>
      </trkpt>
      <trkpt lat="48.51936" lon="4.81737">
        <ele>145.1</ele>
        <time>2023-09-09T07:48:57Z</time>
      </trkpt>
      <trkpt lat="48.51931" lon="4.81674">
        <ele>144.7</ele>
        <time>2023-09-09T07:49:04Z</time>
      </trkpt>
      <trkpt lat="48.51919" lon="4.81607">
        <ele>144.3</ele>
        <time>2023-09-09T07:49:11Z</time>
      </trkpt>
      <trkpt lat="48.51905" lon="4.81545">
        <ele>144.2</ele>
        <time>2023-09-09T07:49:18Z</time>
      </trkpt>
      <trkpt lat="48.51891" lon="4.81501">
        <ele>144.1</ele>
        <time>2023-09-09T07:49:23Z</time>
      </trkpt>
      <trkpt lat="48.51885" lon="4.81483">
        <ele>144.1</ele>
        <time>2023-09-09T07:49:25Z</time>
      </trkpt>
      <trkpt lat="48.51859" lon="4.81428">
        <ele>144.4</ele>
        <time>2023-09-09T07:49:32Z</time>
      </trkpt>
      <trkpt lat="48.51849" lon="4.81406">
        <ele>144.6</ele>
        <time>2023-09-09T07:49:36Z</time>
      </trkpt>
      <trkpt lat="48.51847" lon="4.81403">
        <ele>144.6</ele>
        <time>2023-09-09T07:49:39Z</time>
      </trkpt>
      <trkpt lat="48.51845" lon="4.81399">
        <ele>144.7</ele>
        <time>2023-09-09T07:50:00Z</time>
      </trkpt>
      <trkpt lat="48.51843" lon="4.81394">
        <ele>144.7</ele>
        <time>2023-09-09T07:50:02Z</time>
      </trkpt>
      <trkpt lat="48.51834" lon="4.81376">
        <ele>145</ele>
        <time>2023-09-09T07:50:08Z</time>
      </trkpt>
      <trkpt lat="48.51824" lon="4.81354">
        <ele>145.4</ele>
        <time>2023-09-09T07:50:13Z</time>
      </trkpt>
      <trkpt lat="48.51816" lon="4.81336">
        <ele>145.7</ele>
        <time>2023-09-09T07:50:16Z</time>
      </trkpt>
      <trkpt lat="48.51812" lon="4.81321">
        <ele>146</ele>
        <time>2023-09-09T07:50:18Z</time>
      </trkpt>
      <trkpt lat="48.5181" lon="4.81279">
        <ele>147.1</ele>
        <time>2023-09-09T07:50:23Z</time>
      </trkpt>
      <trkpt lat="48.51813" lon="4.81229">
        <ele>148.3</ele>
        <time>2023-09-09T07:50:29Z</time>
      </trkpt>
      <trkpt lat="48.5182" lon="4.81169">
        <ele>149.3</ele>
        <time>2023-09-09T07:50:36Z</time>
      </trkpt>
      <trkpt lat="48.5183" lon="4.81107">
        <ele>150.4</ele>
        <time>2023-09-09T07:50:43Z</time>
      </trkpt>
      <trkpt lat="48.51842" lon="4.81026">
        <ele>151</ele>
        <time>2023-09-09T07:50:52Z</time>
      </trkpt>
      <trkpt lat="48.51852" lon="4.80965">
        <ele>150</ele>
        <time>2023-09-09T07:50:59Z</time>
      </trkpt>
      <trkpt lat="48.51854" lon="4.8095">
        <ele>149.9</ele>
        <time>2023-09-09T07:51:03Z</time>
      </trkpt>
      <trkpt lat="48.51854" lon="4.80946">
        <ele>149.9</ele>
        <time>2023-09-09T07:51:05Z</time>
      </trkpt>
      <trkpt lat="48.51854" lon="4.80941">
        <ele>149.8</ele>
        <time>2023-09-09T07:51:25Z</time>
      </trkpt>
      <trkpt lat="48.51854" lon="4.80937">
        <ele>149.7</ele>
        <time>2023-09-09T07:51:26Z</time>
      </trkpt>
      <trkpt lat="48.51844" lon="4.80934">
        <ele>149.2</ele>
        <time>2023-09-09T07:51:29Z</time>
      </trkpt>
      <trkpt lat="48.51839" lon="4.80932">
        <ele>149</ele>
        <time>2023-09-09T07:51:30Z</time>
      </trkpt>
      <trkpt lat="48.51809" lon="4.80923">
        <ele>147.8</ele>
        <time>2023-09-09T07:51:35Z</time>
      </trkpt>
      <trkpt lat="48.51758" lon="4.80896">
        <ele>145.8</ele>
        <time>2023-09-09T07:51:43Z</time>
      </trkpt>
      <trkpt lat="48.51712" lon="4.80856">
        <ele>143.6</ele>
        <time>2023-09-09T07:51:50Z</time>
      </trkpt>
      <trkpt lat="48.51664" lon="4.8081">
        <ele>141.6</ele>
        <time>2023-09-09T07:51:57Z</time>
      </trkpt>
      <trkpt lat="48.51642" lon="4.80789">
        <ele>140.8</ele>
        <time>2023-09-09T07:52:00Z</time>
      </trkpt>
      <trkpt lat="48.5159" lon="4.80738">
        <ele>139.3</ele>
        <time>2023-09-09T07:52:07Z</time>
      </trkpt>
      <trkpt lat="48.51576" lon="4.80724">
        <ele>138.9</ele>
        <time>2023-09-09T07:52:09Z</time>
      </trkpt>
      <trkpt lat="48.51525" lon="4.80676">
        <ele>137.6</ele>
        <time>2023-09-09T07:52:16Z</time>
      </trkpt>
      <trkpt lat="48.51511" lon="4.80661">
        <ele>137.1</ele>
        <time>2023-09-09T07:52:18Z</time>
      </trkpt>
      <trkpt lat="48.51459" lon="4.80611">
        <ele>135.5</ele>
        <time>2023-09-09T07:52:25Z</time>
      </trkpt>
      <trkpt lat="48.51435" lon="4.80589">
        <ele>134.8</ele>
        <time>2023-09-09T07:52:28Z</time>
      </trkpt>
      <trkpt lat="48.51388" lon="4.80543">
        <ele>133.1</ele>
        <time>2023-09-09T07:52:34Z</time>
      </trkpt>
      <trkpt lat="48.51364" lon="4.8052">
        <ele>132.4</ele>
        <time>2023-09-09T07:52:37Z</time>
      </trkpt>
      <trkpt lat="48.51316" lon="4.80473">
        <ele>131</ele>
        <time>2023-09-09T07:52:43Z</time>
      </trkpt>
      <trkpt lat="48.51284" lon="4.80442">
        <ele>130.7</ele>
        <time>2023-09-09T07:52:47Z</time>
      </trkpt>
      <trkpt lat="48.51236" lon="4.80395">
        <ele>130.6</ele>
        <time>2023-09-09T07:52:53Z</time>
      </trkpt>
      <trkpt lat="48.51212" lon="4.80372">
        <ele>130.6</ele>
        <time>2023-09-09T07:52:56Z</time>
      </trkpt>
      <trkpt lat="48.51166" lon="4.80328">
        <ele>131.1</ele>
        <time>2023-09-09T07:53:02Z</time>
      </trkpt>
      <trkpt lat="48.51146" lon="4.80306">
        <ele>131.1</ele>
        <time>2023-09-09T07:53:05Z</time>
      </trkpt>
      <trkpt lat="48.51109" lon="4.80252">
        <ele>131</ele>
        <time>2023-09-09T07:53:11Z</time>
      </trkpt>
      <trkpt lat="48.5107" lon="4.80179">
        <ele>130.5</ele>
        <time>2023-09-09T07:53:18Z</time>
      </trkpt>
      <trkpt lat="48.51065" lon="4.80169">
        <ele>130.4</ele>
        <time>2023-09-09T07:53:19Z</time>
      </trkpt>
      <trkpt lat="48.51029" lon="4.80094">
        <ele>130</ele>
        <time>2023-09-09T07:53:26Z</time>
      </trkpt>
      <trkpt lat="48.51024" lon="4.80083">
        <ele>129.9</ele>
        <time>2023-09-09T07:53:27Z</time>
      </trkpt>
      <trkpt lat="48.51005" lon="4.80025">
        <ele>129.4</ele>
        <time>2023-09-09T07:53:32Z</time>
      </trkpt>
      <trkpt lat="48.50987" lon="4.79935">
        <ele>129</ele>
        <time>2023-09-09T07:53:39Z</time>
      </trkpt>
      <trkpt lat="48.50985" lon="4.79923">
        <ele>129</ele>
        <time>2023-09-09T07:53:40Z</time>
      </trkpt>
      <trkpt lat="48.50968" lon="4.79839">
        <ele>128.8</ele>
        <time>2023-09-09T07:53:47Z</time>
      </trkpt>
      <trkpt lat="48.50964" lon="4.79829">
        <ele>128.8</ele>
        <time>2023-09-09T07:53:48Z</time>
      </trkpt>
      <trkpt lat="48.50935" lon="4.7975">
        <ele>128.7</ele>
        <time>2023-09-09T07:53:56Z</time>
      </trkpt>
      <trkpt lat="48.50909" lon="4.79677">
        <ele>128.1</ele>
        <time>2023-09-09T07:54:03Z</time>
      </trkpt>
      <trkpt lat="48.50904" lon="4.79667">
        <ele>128.1</ele>
        <time>2023-09-09T07:54:04Z</time>
      </trkpt>
      <trkpt lat="48.5088" lon="4.79636">
        <ele>128.1</ele>
        <time>2023-09-09T07:54:08Z</time>
      </trkpt>
      <trkpt lat="48.50834" lon="4.79586">
        <ele>128.1</ele>
        <time>2023-09-09T07:54:16Z</time>
      </trkpt>
      <trkpt lat="48.50812" lon="4.7956">
        <ele>128.1</ele>
        <time>2023-09-09T07:54:20Z</time>
      </trkpt>
      <trkpt lat="48.50806" lon="4.79553">
        <ele>128.1</ele>
        <time>2023-09-09T07:54:21Z</time>
      </trkpt>
      <trkpt lat="48.5078" lon="4.7952">
        <ele>128.1</ele>
        <time>2023-09-09T07:54:26Z</time>
      </trkpt>
      <trkpt lat="48.50765" lon="4.79487">
        <ele>128.3</ele>
        <time>2023-09-09T07:54:32Z</time>
      </trkpt>
      <trkpt lat="48.50745" lon="4.79443">
        <ele>128.6</ele>
        <time>2023-09-09T07:54:39Z</time>
      </trkpt>
      <trkpt lat="48.50724" lon="4.79398">
        <ele>128.8</ele>
        <time>2023-09-09T07:54:45Z</time>
      </trkpt>
      <trkpt lat="48.50696" lon="4.79335">
        <ele>128.7</ele>
        <time>2023-09-09T07:54:52Z</time>
      </trkpt>
      <trkpt lat="48.5067" lon="4.79288">
        <ele>128.7</ele>
        <time>2023-09-09T07:54:58Z</time>
      </trkpt>
      <trkpt lat="48.50642" lon="4.79237">
        <ele>128.7</ele>
        <time>2023-09-09T07:55:05Z</time>
      </trkpt>
      <trkpt lat="48.5061" lon="4.79178">
        <ele>128.6</ele>
        <time>2023-09-09T07:55:12Z</time>
      </trkpt>
      <trkpt lat="48.50579" lon="4.79122">
        <ele>128.7</ele>
        <time>2023-09-09T07:55:19Z</time>
      </trkpt>
      <trkpt lat="48.50557" lon="4.79089">
        <ele>128.7</ele>
        <time>2023-09-09T07:55:24Z</time>
      </trkpt>
      <trkpt lat="48.50535" lon="4.79073">
        <ele>128.7</ele>
        <time>2023-09-09T07:55:29Z</time>
      </trkpt>
      <trkpt lat="48.50513" lon="4.79056">
        <ele>128.9</ele>
        <time>2023-09-09T07:55:35Z</time>
      </trkpt>
      <trkpt lat="48.505" lon="4.79044">
        <ele>129.1</ele>
        <time>2023-09-09T07:55:38Z</time>
      </trkpt>
      <trkpt lat="48.505" lon="4.79038">
        <ele>129.1</ele>
        <time>2023-09-09T07:55:39Z</time>
      </trkpt>
      <trkpt lat="48.50505" lon="4.79027">
        <ele>128.9</ele>
        <time>2023-09-09T07:55:40Z</time>
      </trkpt>
      <trkpt lat="48.50511" lon="4.79016">
        <ele>128.7</ele>
        <time>2023-09-09T07:55:42Z</time>
      </trkpt>
      <trkpt lat="48.50527" lon="4.78967">
        <ele>128.3</ele>
        <time>2023-09-09T07:55:48Z</time>
      </trkpt>
      <trkpt lat="48.50553" lon="4.78888">
        <ele>128</ele>
        <time>2023-09-09T07:55:57Z</time>
      </trkpt>
      <trkpt lat="48.50571" lon="4.78837">
        <ele>127.9</ele>
        <time>2023-09-09T07:56:03Z</time>
      </trkpt>
      <trkpt lat="48.50591" lon="4.78787">
        <ele>127.8</ele>
        <time>2023-09-09T07:56:09Z</time>
      </trkpt>
      <trkpt lat="48.50609" lon="4.78746">
        <ele>128</ele>
        <time>2023-09-09T07:56:14Z</time>
      </trkpt>
      <trkpt lat="48.50631" lon="4.78696">
        <ele>127.9</ele>
        <time>2023-09-09T07:56:20Z</time>
      </trkpt>
      <trkpt lat="48.50636" lon="4.78676">
        <ele>128</ele>
        <time>2023-09-09T07:56:22Z</time>
      </trkpt>
      <trkpt lat="48.50641" lon="4.78657">
        <ele>128.2</ele>
        <time>2023-09-09T07:56:24Z</time>
      </trkpt>
      <trkpt lat="48.50642" lon="4.78639">
        <ele>128.4</ele>
        <time>2023-09-09T07:56:26Z</time>
      </trkpt>
      <trkpt lat="48.50642" lon="4.7863">
        <ele>128.4</ele>
        <time>2023-09-09T07:56:27Z</time>
      </trkpt>
      <trkpt lat="48.50642" lon="4.78621">
        <ele>128.5</ele>
        <time>2023-09-09T07:56:28Z</time>
      </trkpt>
      <trkpt lat="48.50641" lon="4.78566">
        <ele>129.3</ele>
        <time>2023-09-09T07:56:35Z</time>
      </trkpt>
      <trkpt lat="48.5064" lon="4.78507">
        <ele>130.5</ele>
        <time>2023-09-09T07:56:41Z</time>
      </trkpt>
      <trkpt lat="48.5064" lon="4.78498">
        <ele>130.7</ele>
        <time>2023-09-09T07:56:42Z</time>
      </trkpt>
      <trkpt lat="48.5064" lon="4.78474">
        <ele>131.3</ele>
        <time>2023-09-09T07:56:46Z</time>
      </trkpt>
      <trkpt lat="48.50644" lon="4.7845">
        <ele>132</ele>
        <time>2023-09-09T07:56:48Z</time>
      </trkpt>
      <trkpt lat="48.50649" lon="4.78435">
        <ele>132.4</ele>
        <time>2023-09-09T07:56:50Z</time>
      </trkpt>
      <trkpt lat="48.50658" lon="4.78429">
        <ele>132.6</ele>
        <time>2023-09-09T07:56:52Z</time>
      </trkpt>
      <trkpt lat="48.50664" lon="4.78427">
        <ele>132.7</ele>
        <time>2023-09-09T07:56:53Z</time>
      </trkpt>
      <trkpt lat="48.50687" lon="4.7843">
        <ele>132.9</ele>
        <time>2023-09-09T07:56:57Z</time>
      </trkpt>
      <trkpt lat="48.50696" lon="4.78431">
        <ele>133</ele>
        <time>2023-09-09T07:56:59Z</time>
      </trkpt>
      <trkpt lat="48.50713" lon="4.78433">
        <ele>133.1</ele>
        <time>2023-09-09T07:57:02Z</time>
      </trkpt>
      <trkpt lat="48.50729" lon="4.78431">
        <ele>133.1</ele>
        <time>2023-09-09T07:57:05Z</time>
      </trkpt>
      <trkpt lat="48.50769" lon="4.78415">
        <ele>132.6</ele>
        <time>2023-09-09T07:57:12Z</time>
      </trkpt>
      <trkpt lat="48.50792" lon="4.78403">
        <ele>132.3</ele>
        <time>2023-09-09T07:57:16Z</time>
      </trkpt>
      <trkpt lat="48.50801" lon="4.78393">
        <ele>132.3</ele>
        <time>2023-09-09T07:57:18Z</time>
      </trkpt>
      <trkpt lat="48.5081" lon="4.78378">
        <ele>132.2</ele>
        <time>2023-09-09T07:57:20Z</time>
      </trkpt>
      <trkpt lat="48.50812" lon="4.78368">
        <ele>132.2</ele>
        <time>2023-09-09T07:57:21Z</time>
      </trkpt>
      <trkpt lat="48.50812" lon="4.78359">
        <ele>132.2</ele>
        <time>2023-09-09T07:57:22Z</time>
      </trkpt>
      <trkpt lat="48.50814" lon="4.78338">
        <ele>132.3</ele>
        <time>2023-09-09T07:57:24Z</time>
      </trkpt>
      <trkpt lat="48.50815" lon="4.78318">
        <ele>132.4</ele>
        <time>2023-09-09T07:57:26Z</time>
      </trkpt>
      <trkpt lat="48.50817" lon="4.78298">
        <ele>132.5</ele>
        <time>2023-09-09T07:57:28Z</time>
      </trkpt>
      <trkpt lat="48.50824" lon="4.78281">
        <ele>132.7</ele>
        <time>2023-09-09T07:57:30Z</time>
      </trkpt>
      <trkpt lat="48.50829" lon="4.78277">
        <ele>132.7</ele>
        <time>2023-09-09T07:57:31Z</time>
      </trkpt>
      <trkpt lat="48.50835" lon="4.78272">
        <ele>132.8</ele>
        <time>2023-09-09T07:57:32Z</time>
      </trkpt>
      <trkpt lat="48.50857" lon="4.78253">
        <ele>133.2</ele>
        <time>2023-09-09T07:57:36Z</time>
      </trkpt>
      <trkpt lat="48.50893" lon="4.78222">
        <ele>134.1</ele>
        <time>2023-09-09T07:57:43Z</time>
      </trkpt>
      <trkpt lat="48.50928" lon="4.7819">
        <ele>134.6</ele>
        <time>2023-09-09T07:57:50Z</time>
      </trkpt>
      <trkpt lat="48.50953" lon="4.78147">
        <ele>134.8</ele>
        <time>2023-09-09T07:57:56Z</time>
      </trkpt>
      <trkpt lat="48.50977" lon="4.78106">
        <ele>134.8</ele>
        <time>2023-09-09T07:58:02Z</time>
      </trkpt>
      <trkpt lat="48.51014" lon="4.78042">
        <ele>134.6</ele>
        <time>2023-09-09T07:58:11Z</time>
      </trkpt>
      <trkpt lat="48.51041" lon="4.78">
        <ele>133.6</ele>
        <time>2023-09-09T07:58:17Z</time>
      </trkpt>
      <trkpt lat="48.51053" lon="4.77989">
        <ele>133.2</ele>
        <time>2023-09-09T07:58:19Z</time>
      </trkpt>
      <trkpt lat="48.51065" lon="4.77979">
        <ele>132.9</ele>
        <time>2023-09-09T07:58:21Z</time>
      </trkpt>
      <trkpt lat="48.5109" lon="4.77961">
        <ele>132.1</ele>
        <time>2023-09-09T07:58:25Z</time>
      </trkpt>
      <trkpt lat="48.51097" lon="4.77957">
        <ele>132</ele>
        <time>2023-09-09T07:58:26Z</time>
      </trkpt>
      <trkpt lat="48.51102" lon="4.77947">
        <ele>131.8</ele>
        <time>2023-09-09T07:58:27Z</time>
      </trkpt>
      <trkpt lat="48.5111" lon="4.77928">
        <ele>131.7</ele>
        <time>2023-09-09T07:58:29Z</time>
      </trkpt>
      <trkpt lat="48.51121" lon="4.77873">
        <ele>131.8</ele>
        <time>2023-09-09T07:58:34Z</time>
      </trkpt>
      <trkpt lat="48.51134" lon="4.77799">
        <ele>132.3</ele>
        <time>2023-09-09T07:58:41Z</time>
      </trkpt>
      <trkpt lat="48.51149" lon="4.77719">
        <ele>132.9</ele>
        <time>2023-09-09T07:58:49Z</time>
      </trkpt>
      <trkpt lat="48.51164" lon="4.77652">
        <ele>133</ele>
        <time>2023-09-09T07:58:56Z</time>
      </trkpt>
      <trkpt lat="48.51178" lon="4.77589">
        <ele>133.2</ele>
        <time>2023-09-09T07:59:03Z</time>
      </trkpt>
      <trkpt lat="48.51192" lon="4.77523">
        <ele>133.2</ele>
        <time>2023-09-09T07:59:11Z</time>
      </trkpt>
      <trkpt lat="48.51198" lon="4.7749">
        <ele>133</ele>
        <time>2023-09-09T07:59:15Z</time>
      </trkpt>
      <trkpt lat="48.51198" lon="4.77473">
        <ele>133</ele>
        <time>2023-09-09T07:59:17Z</time>
      </trkpt>
      <trkpt lat="48.51195" lon="4.77424">
        <ele>132.1</ele>
        <time>2023-09-09T07:59:22Z</time>
      </trkpt>
      <trkpt lat="48.512" lon="4.77366">
        <ele>131.1</ele>
        <time>2023-09-09T07:59:27Z</time>
      </trkpt>
      <trkpt lat="48.51208" lon="4.77275">
        <ele>130.3</ele>
        <time>2023-09-09T07:59:35Z</time>
      </trkpt>
      <trkpt lat="48.51209" lon="4.77264">
        <ele>130.3</ele>
        <time>2023-09-09T07:59:36Z</time>
      </trkpt>
      <trkpt lat="48.51215" lon="4.77196">
        <ele>130.1</ele>
        <time>2023-09-09T07:59:42Z</time>
      </trkpt>
      <trkpt lat="48.51232" lon="4.77114">
        <ele>130.3</ele>
        <time>2023-09-09T07:59:50Z</time>
      </trkpt>
      <trkpt lat="48.5125" lon="4.7703">
        <ele>130.8</ele>
        <time>2023-09-09T07:59:58Z</time>
      </trkpt>
      <trkpt lat="48.51268" lon="4.76948">
        <ele>131.5</ele>
        <time>2023-09-09T08:00:06Z</time>
      </trkpt>
      <trkpt lat="48.5127" lon="4.76938">
        <ele>131.6</ele>
        <time>2023-09-09T08:00:07Z</time>
      </trkpt>
      <trkpt lat="48.51288" lon="4.76855">
        <ele>132.2</ele>
        <time>2023-09-09T08:00:15Z</time>
      </trkpt>
      <trkpt lat="48.51303" lon="4.76785">
        <ele>132.6</ele>
        <time>2023-09-09T08:00:22Z</time>
      </trkpt>
      <trkpt lat="48.51317" lon="4.76709">
        <ele>132.8</ele>
        <time>2023-09-09T08:00:29Z</time>
      </trkpt>
      <trkpt lat="48.51324" lon="4.76628">
        <ele>132.8</ele>
        <time>2023-09-09T08:00:36Z</time>
      </trkpt>
      <trkpt lat="48.51326" lon="4.76605">
        <ele>132.8</ele>
        <time>2023-09-09T08:00:38Z</time>
      </trkpt>
      <trkpt lat="48.51334" lon="4.76514">
        <ele>132.4</ele>
        <time>2023-09-09T08:00:46Z</time>
      </trkpt>
      <trkpt lat="48.51335" lon="4.76503">
        <ele>132.4</ele>
        <time>2023-09-09T08:00:47Z</time>
      </trkpt>
      <trkpt lat="48.51342" lon="4.76427">
        <ele>132</ele>
        <time>2023-09-09T08:00:54Z</time>
      </trkpt>
      <trkpt lat="48.51346" lon="4.76343">
        <ele>131.3</ele>
        <time>2023-09-09T08:01:01Z</time>
      </trkpt>
      <trkpt lat="48.51347" lon="4.76331">
        <ele>131.2</ele>
        <time>2023-09-09T08:01:02Z</time>
      </trkpt>
      <trkpt lat="48.51343" lon="4.7626">
        <ele>130.9</ele>
        <time>2023-09-09T08:01:08Z</time>
      </trkpt>
      <trkpt lat="48.51336" lon="4.762">
        <ele>131</ele>
        <time>2023-09-09T08:01:13Z</time>
      </trkpt>
      <trkpt lat="48.51314" lon="4.76135">
        <ele>131.3</ele>
        <time>2023-09-09T08:01:19Z</time>
      </trkpt>
      <trkpt lat="48.51288" lon="4.76061">
        <ele>131.8</ele>
        <time>2023-09-09T08:01:26Z</time>
      </trkpt>
      <trkpt lat="48.5128" lon="4.7604">
        <ele>132</ele>
        <time>2023-09-09T08:01:28Z</time>
      </trkpt>
      <trkpt lat="48.51256" lon="4.75971">
        <ele>132.4</ele>
        <time>2023-09-09T08:01:35Z</time>
      </trkpt>
      <trkpt lat="48.51228" lon="4.75891">
        <ele>132.7</ele>
        <time>2023-09-09T08:01:43Z</time>
      </trkpt>
      <trkpt lat="48.51204" lon="4.75825">
        <ele>132.8</ele>
        <time>2023-09-09T08:01:50Z</time>
      </trkpt>
      <trkpt lat="48.51175" lon="4.75747">
        <ele>132.9</ele>
        <time>2023-09-09T08:01:58Z</time>
      </trkpt>
      <trkpt lat="48.51168" lon="4.75727">
        <ele>132.8</ele>
        <time>2023-09-09T08:02:00Z</time>
      </trkpt>
      <trkpt lat="48.51138" lon="4.75647">
        <ele>132.8</ele>
        <time>2023-09-09T08:02:08Z</time>
      </trkpt>
      <trkpt lat="48.51131" lon="4.75627">
        <ele>132.8</ele>
        <time>2023-09-09T08:02:10Z</time>
      </trkpt>
      <trkpt lat="48.51103" lon="4.75547">
        <ele>132.6</ele>
        <time>2023-09-09T08:02:18Z</time>
      </trkpt>
      <trkpt lat="48.51096" lon="4.75527">
        <ele>132.5</ele>
        <time>2023-09-09T08:02:20Z</time>
      </trkpt>
      <trkpt lat="48.51067" lon="4.75447">
        <ele>132.5</ele>
        <time>2023-09-09T08:02:28Z</time>
      </trkpt>
      <trkpt lat="48.51039" lon="4.75369">
        <ele>132.3</ele>
        <time>2023-09-09T08:02:36Z</time>
      </trkpt>
      <trkpt lat="48.51011" lon="4.7529">
        <ele>132.1</ele>
        <time>2023-09-09T08:02:44Z</time>
      </trkpt>
      <trkpt lat="48.51003" lon="4.7527">
        <ele>132</ele>
        <time>2023-09-09T08:02:46Z</time>
      </trkpt>
      <trkpt lat="48.50975" lon="4.75191">
        <ele>131.5</ele>
        <time>2023-09-09T08:02:54Z</time>
      </trkpt>
      <trkpt lat="48.50955" lon="4.75134">
        <ele>130.8</ele>
        <time>2023-09-09T08:03:00Z</time>
      </trkpt>
      <trkpt lat="48.50927" lon="4.75059">
        <ele>129.6</ele>
        <time>2023-09-09T08:03:07Z</time>
      </trkpt>
      <trkpt lat="48.50898" lon="4.74988">
        <ele>128.8</ele>
        <time>2023-09-09T08:03:14Z</time>
      </trkpt>
      <trkpt lat="48.50894" lon="4.74978">
        <ele>128.7</ele>
        <time>2023-09-09T08:03:15Z</time>
      </trkpt>
      <trkpt lat="48.50861" lon="4.74907">
        <ele>128.4</ele>
        <time>2023-09-09T08:03:23Z</time>
      </trkpt>
      <trkpt lat="48.50842" lon="4.7487">
        <ele>128.7</ele>
        <time>2023-09-09T08:03:28Z</time>
      </trkpt>
      <trkpt lat="48.50834" lon="4.74851">
        <ele>129</ele>
        <time>2023-09-09T08:03:31Z</time>
      </trkpt>
      <trkpt lat="48.5083" lon="4.74837">
        <ele>129.3</ele>
        <time>2023-09-09T08:03:33Z</time>
      </trkpt>
      <trkpt lat="48.50826" lon="4.74819">
        <ele>129.6</ele>
        <time>2023-09-09T08:03:37Z</time>
      </trkpt>
      <trkpt lat="48.50825" lon="4.74815">
        <ele>129.6</ele>
        <time>2023-09-09T08:03:41Z</time>
      </trkpt>
      <trkpt lat="48.50823" lon="4.74808">
        <ele>129.7</ele>
        <time>2023-09-09T08:03:51Z</time>
      </trkpt>
      <trkpt lat="48.50822" lon="4.74804">
        <ele>129.8</ele>
        <time>2023-09-09T08:03:53Z</time>
      </trkpt>
      <trkpt lat="48.50813" lon="4.74786">
        <ele>129.5</ele>
        <time>2023-09-09T08:03:58Z</time>
      </trkpt>
      <trkpt lat="48.508" lon="4.74758">
        <ele>129.2</ele>
        <time>2023-09-09T08:04:03Z</time>
      </trkpt>
      <trkpt lat="48.50775" lon="4.74707">
        <ele>129.3</ele>
        <time>2023-09-09T08:04:10Z</time>
      </trkpt>
      <trkpt lat="48.50757" lon="4.7466">
        <ele>129.8</ele>
        <time>2023-09-09T08:04:16Z</time>
      </trkpt>
      <trkpt lat="48.50739" lon="4.74602">
        <ele>130.7</ele>
        <time>2023-09-09T08:04:23Z</time>
      </trkpt>
      <trkpt lat="48.50719" lon="4.74534">
        <ele>131.9</ele>
        <time>2023-09-09T08:04:32Z</time>
      </trkpt>
      <trkpt lat="48.50702" lon="4.74464">
        <ele>133.1</ele>
        <time>2023-09-09T08:04:40Z</time>
      </trkpt>
      <trkpt lat="48.50684" lon="4.74383">
        <ele>134.2</ele>
        <time>2023-09-09T08:04:49Z</time>
      </trkpt>
      <trkpt lat="48.50667" lon="4.74313">
        <ele>134.9</ele>
        <time>2023-09-09T08:04:57Z</time>
      </trkpt>
      <trkpt lat="48.50653" lon="4.74238">
        <ele>135.4</ele>
        <time>2023-09-09T08:05:05Z</time>
      </trkpt>
      <trkpt lat="48.50642" lon="4.74173">
        <ele>135.7</ele>
        <time>2023-09-09T08:05:12Z</time>
      </trkpt>
      <trkpt lat="48.50631" lon="4.74106">
        <ele>135.9</ele>
        <time>2023-09-09T08:05:19Z</time>
      </trkpt>
      <trkpt lat="48.50625" lon="4.74051">
        <ele>136.3</ele>
        <time>2023-09-09T08:05:25Z</time>
      </trkpt>
      <trkpt lat="48.50622" lon="4.73969">
        <ele>136.6</ele>
        <time>2023-09-09T08:05:33Z</time>
      </trkpt>
      <trkpt lat="48.50619" lon="4.7389">
        <ele>137.1</ele>
        <time>2023-09-09T08:05:41Z</time>
      </trkpt>
      <trkpt lat="48.50616" lon="4.73807">
        <ele>137.8</ele>
        <time>2023-09-09T08:05:49Z</time>
      </trkpt>
      <trkpt lat="48.50607" lon="4.73741">
        <ele>138.3</ele>
        <time>2023-09-09T08:05:56Z</time>
      </trkpt>
      <trkpt lat="48.50596" lon="4.73663">
        <ele>139</ele>
        <time>2023-09-09T08:06:04Z</time>
      </trkpt>
      <trkpt lat="48.50589" lon="4.73595">
        <ele>139.2</ele>
        <time>2023-09-09T08:06:11Z</time>
      </trkpt>
      <trkpt lat="48.50587" lon="4.73523">
        <ele>139.6</ele>
        <time>2023-09-09T08:06:18Z</time>
      </trkpt>
      <trkpt lat="48.50584" lon="4.73448">
        <ele>139.5</ele>
        <time>2023-09-09T08:06:26Z</time>
      </trkpt>
      <trkpt lat="48.50582" lon="4.73389">
        <ele>139</ele>
        <time>2023-09-09T08:06:33Z</time>
      </trkpt>
      <trkpt lat="48.50581" lon="4.73349">
        <ele>138.4</ele>
        <time>2023-09-09T08:06:38Z</time>
      </trkpt>
      <trkpt lat="48.5058" lon="4.73342">
        <ele>138.3</ele>
        <time>2023-09-09T08:06:39Z</time>
      </trkpt>
      <trkpt lat="48.5058" lon="4.73334">
        <ele>138.1</ele>
        <time>2023-09-09T08:06:40Z</time>
      </trkpt>
      <trkpt lat="48.50583" lon="4.73317">
        <ele>137.7</ele>
        <time>2023-09-09T08:06:42Z</time>
      </trkpt>
      <trkpt lat="48.50613" lon="4.73274">
        <ele>136.4</ele>
        <time>2023-09-09T08:06:48Z</time>
      </trkpt>
      <trkpt lat="48.50656" lon="4.73212">
        <ele>134.7</ele>
        <time>2023-09-09T08:06:56Z</time>
      </trkpt>
      <trkpt lat="48.50661" lon="4.73205">
        <ele>134.5</ele>
        <time>2023-09-09T08:06:58Z</time>
      </trkpt>
      <trkpt lat="48.50668" lon="4.73195">
        <ele>134.3</ele>
        <time>2023-09-09T08:06:59Z</time>
      </trkpt>
      <trkpt lat="48.50666" lon="4.73181">
        <ele>133.8</ele>
        <time>2023-09-09T08:07:00Z</time>
      </trkpt>
      <trkpt lat="48.50658" lon="4.7317">
        <ele>133.3</ele>
        <time>2023-09-09T08:07:02Z</time>
      </trkpt>
      <trkpt lat="48.5063" lon="4.73134">
        <ele>131.6</ele>
        <time>2023-09-09T08:07:07Z</time>
      </trkpt>
      <trkpt lat="48.50595" lon="4.73085">
        <ele>130.2</ele>
        <time>2023-09-09T08:07:13Z</time>
      </trkpt>
      <trkpt lat="48.5059" lon="4.73075">
        <ele>130</ele>
        <time>2023-09-09T08:07:14Z</time>
      </trkpt>
      <trkpt lat="48.50557" lon="4.73008">
        <ele>128.2</ele>
        <time>2023-09-09T08:07:21Z</time>
      </trkpt>
      <trkpt lat="48.50527" lon="4.72949">
        <ele>126.7</ele>
        <time>2023-09-09T08:07:27Z</time>
      </trkpt>
      <trkpt lat="48.50497" lon="4.72907">
        <ele>125.3</ele>
        <time>2023-09-09T08:07:32Z</time>
      </trkpt>
      <trkpt lat="48.50452" lon="4.72868">
        <ele>123.7</ele>
        <time>2023-09-09T08:07:38Z</time>
      </trkpt>
      <trkpt lat="48.50398" lon="4.72821">
        <ele>122.9</ele>
        <time>2023-09-09T08:07:45Z</time>
      </trkpt>
      <trkpt lat="48.50391" lon="4.72815">
        <ele>122.8</ele>
        <time>2023-09-09T08:07:46Z</time>
      </trkpt>
      <trkpt lat="48.50359" lon="4.72785">
        <ele>122.7</ele>
        <time>2023-09-09T08:07:51Z</time>
      </trkpt>
      <trkpt lat="48.50344" lon="4.72768">
        <ele>122.8</ele>
        <time>2023-09-09T08:07:54Z</time>
      </trkpt>
      <trkpt lat="48.50337" lon="4.72767">
        <ele>122.8</ele>
        <time>2023-09-09T08:07:55Z</time>
      </trkpt>
      <trkpt lat="48.50333" lon="4.72766">
        <ele>122.9</ele>
        <time>2023-09-09T08:07:56Z</time>
      </trkpt>
      <trkpt lat="48.50329" lon="4.72777">
        <ele>122.8</ele>
        <time>2023-09-09T08:07:58Z</time>
      </trkpt>
      <trkpt lat="48.50314" lon="4.72816">
        <ele>122.7</ele>
        <time>2023-09-09T08:08:03Z</time>
      </trkpt>
      <trkpt lat="48.50295" lon="4.72867">
        <ele>122.8</ele>
        <time>2023-09-09T08:08:09Z</time>
      </trkpt>
      <trkpt lat="48.5027" lon="4.72915">
        <ele>122.9</ele>
        <time>2023-09-09T08:08:15Z</time>
      </trkpt>
      <trkpt lat="48.50238" lon="4.72973">
        <ele>122.6</ele>
        <time>2023-09-09T08:08:22Z</time>
      </trkpt>
      <trkpt lat="48.5023" lon="4.72989">
        <ele>122.6</ele>
        <time>2023-09-09T08:08:24Z</time>
      </trkpt>
      <trkpt lat="48.5022" lon="4.73002">
        <ele>122.5</ele>
        <time>2023-09-09T08:08:26Z</time>
      </trkpt>
      <trkpt lat="48.50208" lon="4.73002">
        <ele>122.3</ele>
        <time>2023-09-09T08:08:28Z</time>
      </trkpt>
      <trkpt lat="48.50202" lon="4.72999">
        <ele>122.1</ele>
        <time>2023-09-09T08:08:29Z</time>
      </trkpt>
      <trkpt lat="48.50177" lon="4.72963">
        <ele>121.6</ele>
        <time>2023-09-09T08:08:34Z</time>
      </trkpt>
      <trkpt lat="48.50144" lon="4.72898">
        <ele>121.1</ele>
        <time>2023-09-09T08:08:41Z</time>
      </trkpt>
      <trkpt lat="48.50134" lon="4.72878">
        <ele>120.9</ele>
        <time>2023-09-09T08:08:43Z</time>
      </trkpt>
      <trkpt lat="48.501" lon="4.72811">
        <ele>120.7</ele>
        <time>2023-09-09T08:08:50Z</time>
      </trkpt>
      <trkpt lat="48.50096" lon="4.72802">
        <ele>120.7</ele>
        <time>2023-09-09T08:08:51Z</time>
      </trkpt>
      <trkpt lat="48.50063" lon="4.72737">
        <ele>120.8</ele>
        <time>2023-09-09T08:08:58Z</time>
      </trkpt>
      <trkpt lat="48.50057" lon="4.72729">
        <ele>120.8</ele>
        <time>2023-09-09T08:08:59Z</time>
      </trkpt>
      <trkpt lat="48.50027" lon="4.727">
        <ele>121.1</ele>
        <time>2023-09-09T08:09:04Z</time>
      </trkpt>
      <trkpt lat="48.49974" lon="4.72662">
        <ele>121.1</ele>
        <time>2023-09-09T08:09:12Z</time>
      </trkpt>
      <trkpt lat="48.49967" lon="4.72657">
        <ele>121.1</ele>
        <time>2023-09-09T08:09:13Z</time>
      </trkpt>
      <trkpt lat="48.49918" lon="4.72621">
        <ele>121.3</ele>
        <time>2023-09-09T08:09:21Z</time>
      </trkpt>
      <trkpt lat="48.49911" lon="4.72617">
        <ele>121.3</ele>
        <time>2023-09-09T08:09:22Z</time>
      </trkpt>
      <trkpt lat="48.49878" lon="4.72588">
        <ele>121.3</ele>
        <time>2023-09-09T08:09:28Z</time>
      </trkpt>
      <trkpt lat="48.49856" lon="4.72564">
        <ele>121.5</ele>
        <time>2023-09-09T08:09:33Z</time>
      </trkpt>
      <trkpt lat="48.49852" lon="4.7256">
        <ele>121.6</ele>
        <time>2023-09-09T08:09:34Z</time>
      </trkpt>
      <trkpt lat="48.49839" lon="4.72538">
        <ele>121.7</ele>
        <time>2023-09-09T08:09:39Z</time>
      </trkpt>
      <trkpt lat="48.49822" lon="4.7251">
        <ele>121.5</ele>
        <time>2023-09-09T08:09:44Z</time>
      </trkpt>
      <trkpt lat="48.49796" lon="4.72466">
        <ele>121.4</ele>
        <time>2023-09-09T08:09:50Z</time>
      </trkpt>
      <trkpt lat="48.49764" lon="4.72404">
        <ele>121.5</ele>
        <time>2023-09-09T08:09:57Z</time>
      </trkpt>
      <trkpt lat="48.49742" lon="4.72356">
        <ele>121.6</ele>
        <time>2023-09-09T08:10:03Z</time>
      </trkpt>
      <trkpt lat="48.49739" lon="4.72349">
        <ele>121.6</ele>
        <time>2023-09-09T08:10:04Z</time>
      </trkpt>
      <trkpt lat="48.49733" lon="4.72337">
        <ele>121.6</ele>
        <time>2023-09-09T08:10:06Z</time>
      </trkpt>
      <trkpt lat="48.49729" lon="4.72328">
        <ele>121.6</ele>
        <time>2023-09-09T08:10:08Z</time>
      </trkpt>
      <trkpt lat="48.49737" lon="4.72293">
        <ele>121.6</ele>
        <time>2023-09-09T08:10:14Z</time>
      </trkpt>
      <trkpt lat="48.49746" lon="4.72258">
        <ele>121.3</ele>
        <time>2023-09-09T08:10:19Z</time>
      </trkpt>
      <trkpt lat="48.4975" lon="4.72232">
        <ele>121</ele>
        <time>2023-09-09T08:10:22Z</time>
      </trkpt>
      <trkpt lat="48.49751" lon="4.72203">
        <ele>120.9</ele>
        <time>2023-09-09T08:10:25Z</time>
      </trkpt>
      <trkpt lat="48.49748" lon="4.72152">
        <ele>120.7</ele>
        <time>2023-09-09T08:10:30Z</time>
      </trkpt>
      <trkpt lat="48.49729" lon="4.72082">
        <ele>120.4</ele>
        <time>2023-09-09T08:10:37Z</time>
      </trkpt>
      <trkpt lat="48.49712" lon="4.72032">
        <ele>120.4</ele>
        <time>2023-09-09T08:10:43Z</time>
      </trkpt>
      <trkpt lat="48.4969" lon="4.71964">
        <ele>120.5</ele>
        <time>2023-09-09T08:10:51Z</time>
      </trkpt>
      <trkpt lat="48.49665" lon="4.7189">
        <ele>120.7</ele>
        <time>2023-09-09T08:10:59Z</time>
      </trkpt>
      <trkpt lat="48.4966" lon="4.71869">
        <ele>120.8</ele>
        <time>2023-09-09T08:11:01Z</time>
      </trkpt>
      <trkpt lat="48.49647" lon="4.71786">
        <ele>120.7</ele>
        <time>2023-09-09T08:11:09Z</time>
      </trkpt>
      <trkpt lat="48.49645" lon="4.71774">
        <ele>120.6</ele>
        <time>2023-09-09T08:11:10Z</time>
      </trkpt>
      <trkpt lat="48.49633" lon="4.71699">
        <ele>120.3</ele>
        <time>2023-09-09T08:11:17Z</time>
      </trkpt>
      <trkpt lat="48.49623" lon="4.71618">
        <ele>120.2</ele>
        <time>2023-09-09T08:11:24Z</time>
      </trkpt>
      <trkpt lat="48.49609" lon="4.71544">
        <ele>120</ele>
        <time>2023-09-09T08:11:31Z</time>
      </trkpt>
      <trkpt lat="48.49589" lon="4.715">
        <ele>119.9</ele>
        <time>2023-09-09T08:11:36Z</time>
      </trkpt>
      <trkpt lat="48.49554" lon="4.71426">
        <ele>119.9</ele>
        <time>2023-09-09T08:11:44Z</time>
      </trkpt>
      <trkpt lat="48.49549" lon="4.71417">
        <ele>119.9</ele>
        <time>2023-09-09T08:11:45Z</time>
      </trkpt>
      <trkpt lat="48.49524" lon="4.71363">
        <ele>119.6</ele>
        <time>2023-09-09T08:11:51Z</time>
      </trkpt>
      <trkpt lat="48.49501" lon="4.71308">
        <ele>119.3</ele>
        <time>2023-09-09T08:11:57Z</time>
      </trkpt>
      <trkpt lat="48.49486" lon="4.71232">
        <ele>119.2</ele>
        <time>2023-09-09T08:12:04Z</time>
      </trkpt>
      <trkpt lat="48.49481" lon="4.7118">
        <ele>119</ele>
        <time>2023-09-09T08:12:09Z</time>
      </trkpt>
      <trkpt lat="48.49481" lon="4.71126">
        <ele>119</ele>
        <time>2023-09-09T08:12:14Z</time>
      </trkpt>
      <trkpt lat="48.49481" lon="4.71069">
        <ele>118.8</ele>
        <time>2023-09-09T08:12:19Z</time>
      </trkpt>
      <trkpt lat="48.4948" lon="4.71006">
        <ele>118.7</ele>
        <time>2023-09-09T08:12:25Z</time>
      </trkpt>
      <trkpt lat="48.4948" lon="4.70919">
        <ele>118.7</ele>
        <time>2023-09-09T08:12:33Z</time>
      </trkpt>
      <trkpt lat="48.4948" lon="4.70839">
        <ele>118.7</ele>
        <time>2023-09-09T08:12:40Z</time>
      </trkpt>
      <trkpt lat="48.49479" lon="4.70752">
        <ele>118.8</ele>
        <time>2023-09-09T08:12:48Z</time>
      </trkpt>
      <trkpt lat="48.49479" lon="4.70664">
        <ele>118.7</ele>
        <time>2023-09-09T08:12:56Z</time>
      </trkpt>
      <trkpt lat="48.49479" lon="4.70653">
        <ele>118.7</ele>
        <time>2023-09-09T08:12:57Z</time>
      </trkpt>
      <trkpt lat="48.49478" lon="4.70583">
        <ele>118.7</ele>
        <time>2023-09-09T08:13:04Z</time>
      </trkpt>
      <trkpt lat="48.49477" lon="4.7051">
        <ele>118.6</ele>
        <time>2023-09-09T08:13:11Z</time>
      </trkpt>
      <trkpt lat="48.49477" lon="4.70438">
        <ele>118.4</ele>
        <time>2023-09-09T08:13:18Z</time>
      </trkpt>
      <trkpt lat="48.49476" lon="4.7038">
        <ele>118.4</ele>
        <time>2023-09-09T08:13:25Z</time>
      </trkpt>
      <trkpt lat="48.49476" lon="4.70372">
        <ele>118.4</ele>
        <time>2023-09-09T08:13:26Z</time>
      </trkpt>
      <trkpt lat="48.49476" lon="4.70354">
        <ele>118.4</ele>
        <time>2023-09-09T08:13:29Z</time>
      </trkpt>
      <trkpt lat="48.49476" lon="4.70347">
        <ele>118.5</ele>
        <time>2023-09-09T08:13:33Z</time>
      </trkpt>
      <trkpt lat="48.49476" lon="4.70346">
        <ele>118.5</ele>
        <time>2023-09-09T08:13:38Z</time>
      </trkpt>
      <trkpt lat="48.49476" lon="4.70344">
        <ele>118.5</ele>
        <time>2023-09-09T08:13:41Z</time>
      </trkpt>
      <trkpt lat="48.49476" lon="4.7034">
        <ele>118.5</ele>
        <time>2023-09-09T08:13:45Z</time>
      </trkpt>
      <trkpt lat="48.49476" lon="4.70341">
        <ele>118.5</ele>
        <time>2023-09-09T08:21:44Z</time>
      </trkpt>
      <trkpt lat="48.49476" lon="4.70339">
        <ele>118.5</ele>
        <time>2023-09-09T08:21:45Z</time>
      </trkpt>
      <trkpt lat="48.49476" lon="4.7032">
        <ele>118.5</ele>
        <time>2023-09-09T08:21:51Z</time>
      </trkpt>
      <trkpt lat="48.49476" lon="4.70294">
        <ele>118.4</ele>
        <time>2023-09-09T08:21:56Z</time>
      </trkpt>
      <trkpt lat="48.49475" lon="4.7025">
        <ele>118.2</ele>
        <time>2023-09-09T08:22:02Z</time>
      </trkpt>
      <trkpt lat="48.49475" lon="4.70182">
        <ele>118</ele>
        <time>2023-09-09T08:22:10Z</time>
      </trkpt>
      <trkpt lat="48.49469" lon="4.70141">
        <ele>118.5</ele>
        <time>2023-09-09T08:22:16Z</time>
      </trkpt>
      <trkpt lat="48.49466" lon="4.7012">
        <ele>119</ele>
        <time>2023-09-09T08:22:21Z</time>
      </trkpt>
      <trkpt lat="48.49464" lon="4.70116">
        <ele>119.2</ele>
        <time>2023-09-09T08:22:23Z</time>
      </trkpt>
      <trkpt lat="48.49462" lon="4.70113">
        <ele>119.3</ele>
        <time>2023-09-09T08:22:26Z</time>
      </trkpt>
      <trkpt lat="48.4946" lon="4.70111">
        <ele>119.3</ele>
        <time>2023-09-09T08:22:27Z</time>
      </trkpt>
      <trkpt lat="48.4945" lon="4.70113">
        <ele>119.2</ele>
        <time>2023-09-09T08:22:31Z</time>
      </trkpt>
      <trkpt lat="48.49424" lon="4.70118">
        <ele>118.8</ele>
        <time>2023-09-09T08:22:37Z</time>
      </trkpt>
      <trkpt lat="48.494" lon="4.70124">
        <ele>118.7</ele>
        <time>2023-09-09T08:22:42Z</time>
      </trkpt>
      <trkpt lat="48.49395" lon="4.70125">
        <ele>118.7</ele>
        <time>2023-09-09T08:22:43Z</time>
      </trkpt>
      <trkpt lat="48.49387" lon="4.70121">
        <ele>118.7</ele>
        <time>2023-09-09T08:22:45Z</time>
      </trkpt>
      <trkpt lat="48.49373" lon="4.70114">
        <ele>118.7</ele>
        <time>2023-09-09T08:22:48Z</time>
      </trkpt>
      <trkpt lat="48.49335" lon="4.70086">
        <ele>118.7</ele>
        <time>2023-09-09T08:22:57Z</time>
      </trkpt>
      <trkpt lat="48.49305" lon="4.70054">
        <ele>119</ele>
        <time>2023-09-09T08:23:04Z</time>
      </trkpt>
      <trkpt lat="48.4928" lon="4.70028">
        <ele>119.3</ele>
        <time>2023-09-09T08:23:10Z</time>
      </trkpt>
      <trkpt lat="48.49254" lon="4.70006">
        <ele>119.6</ele>
        <time>2023-09-09T08:23:16Z</time>
      </trkpt>
      <trkpt lat="48.49241" lon="4.7">
        <ele>119.7</ele>
        <time>2023-09-09T08:23:19Z</time>
      </trkpt>
      <trkpt lat="48.49233" lon="4.69997">
        <ele>119.7</ele>
        <time>2023-09-09T08:23:21Z</time>
      </trkpt>
      <trkpt lat="48.4923" lon="4.69995">
        <ele>119.7</ele>
        <time>2023-09-09T08:23:22Z</time>
      </trkpt>
      <trkpt lat="48.49226" lon="4.69994">
        <ele>119.7</ele>
        <time>2023-09-09T08:23:23Z</time>
      </trkpt>
      <trkpt lat="48.49217" lon="4.7001">
        <ele>119.6</ele>
        <time>2023-09-09T08:23:26Z</time>
      </trkpt>
      <trkpt lat="48.49214" lon="4.70015">
        <ele>119.6</ele>
        <time>2023-09-09T08:23:27Z</time>
      </trkpt>
      <trkpt lat="48.49199" lon="4.70044">
        <ele>119.5</ele>
        <time>2023-09-09T08:23:32Z</time>
      </trkpt>
      <trkpt lat="48.49179" lon="4.70072">
        <ele>119.5</ele>
        <time>2023-09-09T08:23:37Z</time>
      </trkpt>
      <trkpt lat="48.4917" lon="4.7008">
        <ele>119.4</ele>
        <time>2023-09-09T08:23:39Z</time>
      </trkpt>
      <trkpt lat="48.49135" lon="4.70102">
        <ele>119.3</ele>
        <time>2023-09-09T08:23:46Z</time>
      </trkpt>
      <trkpt lat="48.49107" lon="4.70119">
        <ele>119.2</ele>
        <time>2023-09-09T08:23:52Z</time>
      </trkpt>
      <trkpt lat="48.49084" lon="4.70133">
        <ele>119.1</ele>
        <time>2023-09-09T08:23:57Z</time>
      </trkpt>
      <trkpt lat="48.49068" lon="4.70146">
        <ele>118.9</ele>
        <time>2023-09-09T08:24:01Z</time>
      </trkpt>
      <trkpt lat="48.49057" lon="4.70158">
        <ele>118.9</ele>
        <time>2023-09-09T08:24:04Z</time>
      </trkpt>
      <trkpt lat="48.49033" lon="4.70188">
        <ele>118.6</ele>
        <time>2023-09-09T08:24:11Z</time>
      </trkpt>
      <trkpt lat="48.49016" lon="4.70194">
        <ele>118.6</ele>
        <time>2023-09-09T08:24:16Z</time>
      </trkpt>
      <trkpt lat="48.4901" lon="4.702">
        <ele>118.6</ele>
        <time>2023-09-09T08:24:22Z</time>
      </trkpt>
      <trkpt lat="48.49022" lon="4.70225">
        <ele>118.6</ele>
        <time>2023-09-09T08:24:27Z</time>
      </trkpt>
      <trkpt lat="48.49022" lon="4.70231">
        <ele>118.6</ele>
        <time>2023-09-09T08:32:00Z</time>
      </trkpt>
      <trkpt lat="48.49019" lon="4.70222">
        <ele>118.6</ele>
        <time>2023-09-09T08:32:08Z</time>
      </trkpt>
      <trkpt lat="48.49019" lon="4.70213">
        <ele>118.7</ele>
        <time>2023-09-09T08:32:31Z</time>
      </trkpt>
      <trkpt lat="48.49018" lon="4.70205">
        <ele>118.7</ele>
        <time>2023-09-09T08:32:34Z</time>
      </trkpt>
      <trkpt lat="48.49018" lon="4.70191">
        <ele>118.8</ele>
        <time>2023-09-09T08:32:40Z</time>
      </trkpt>
      <trkpt lat="48.49018" lon="4.70191">
        <ele>118.8</ele>
        <time>2023-09-09T08:32:44Z</time>
      </trkpt>
      <trkpt lat="48.4903" lon="4.70188">
        <ele>118.8</ele>
        <time>2023-09-09T08:32:47Z</time>
      </trkpt>
      <trkpt lat="48.49042" lon="4.70178">
        <ele>118.9</ele>
        <time>2023-09-09T08:32:53Z</time>
      </trkpt>
      <trkpt lat="48.49043" lon="4.70176">
        <ele>118.9</ele>
        <time>2023-09-09T08:32:54Z</time>
      </trkpt>
      <trkpt lat="48.49046" lon="4.70173">
        <ele>118.9</ele>
        <time>2023-09-09T08:32:57Z</time>
      </trkpt>
      <trkpt lat="48.49049" lon="4.70169">
        <ele>118.9</ele>
        <time>2023-09-09T08:33:08Z</time>
      </trkpt>
      <trkpt lat="48.49051" lon="4.70167">
        <ele>118.9</ele>
        <time>2023-09-09T08:33:10Z</time>
      </trkpt>
      <trkpt lat="48.49061" lon="4.70153">
        <ele>118.9</ele>
        <time>2023-09-09T08:33:15Z</time>
      </trkpt>
      <trkpt lat="48.49081" lon="4.70135">
        <ele>119</ele>
        <time>2023-09-09T08:33:21Z</time>
      </trkpt>
      <trkpt lat="48.49089" lon="4.7013">
        <ele>119.2</ele>
        <time>2023-09-09T08:33:23Z</time>
      </trkpt>
      <trkpt lat="48.49098" lon="4.70124">
        <ele>119.2</ele>
        <time>2023-09-09T08:33:25Z</time>
      </trkpt>
      <trkpt lat="48.49108" lon="4.70118">
        <ele>119.2</ele>
        <time>2023-09-09T08:33:27Z</time>
      </trkpt>
      <trkpt lat="48.49147" lon="4.70095">
        <ele>119.4</ele>
        <time>2023-09-09T08:33:35Z</time>
      </trkpt>
      <trkpt lat="48.49162" lon="4.70086">
        <ele>119.4</ele>
        <time>2023-09-09T08:33:38Z</time>
      </trkpt>
      <trkpt lat="48.49178" lon="4.70073">
        <ele>119.4</ele>
        <time>2023-09-09T08:33:41Z</time>
      </trkpt>
      <trkpt lat="48.492" lon="4.70041">
        <ele>119.5</ele>
        <time>2023-09-09T08:33:47Z</time>
      </trkpt>
      <trkpt lat="48.49215" lon="4.70014">
        <ele>119.6</ele>
        <time>2023-09-09T08:33:52Z</time>
      </trkpt>
      <trkpt lat="48.49218" lon="4.70009">
        <ele>119.6</ele>
        <time>2023-09-09T08:33:53Z</time>
      </trkpt>
      <trkpt lat="48.49222" lon="4.7">
        <ele>119.6</ele>
        <time>2023-09-09T08:33:55Z</time>
      </trkpt>
      <trkpt lat="48.49233" lon="4.69997">
        <ele>119.7</ele>
        <time>2023-09-09T08:33:57Z</time>
      </trkpt>
      <trkpt lat="48.49247" lon="4.70003">
        <ele>119.6</ele>
        <time>2023-09-09T08:34:00Z</time>
      </trkpt>
      <trkpt lat="48.49258" lon="4.70007">
        <ele>119.6</ele>
        <time>2023-09-09T08:34:02Z</time>
      </trkpt>
      <trkpt lat="48.4929" lon="4.70038">
        <ele>119.1</ele>
        <time>2023-09-09T08:34:08Z</time>
      </trkpt>
      <trkpt lat="48.49319" lon="4.70069">
        <ele>118.8</ele>
        <time>2023-09-09T08:34:14Z</time>
      </trkpt>
      <trkpt lat="48.49355" lon="4.70102">
        <ele>118.7</ele>
        <time>2023-09-09T08:34:21Z</time>
      </trkpt>
      <trkpt lat="48.49375" lon="4.70115">
        <ele>118.7</ele>
        <time>2023-09-09T08:34:25Z</time>
      </trkpt>
      <trkpt lat="48.4938" lon="4.70118">
        <ele>118.7</ele>
        <time>2023-09-09T08:34:26Z</time>
      </trkpt>
      <trkpt lat="48.49386" lon="4.7012">
        <ele>118.7</ele>
        <time>2023-09-09T08:34:27Z</time>
      </trkpt>
      <trkpt lat="48.49401" lon="4.70123">
        <ele>118.7</ele>
        <time>2023-09-09T08:34:30Z</time>
      </trkpt>
      <trkpt lat="48.49419" lon="4.7012">
        <ele>118.8</ele>
        <time>2023-09-09T08:34:33Z</time>
      </trkpt>
      <trkpt lat="48.4943" lon="4.70117">
        <ele>118.9</ele>
        <time>2023-09-09T08:34:35Z</time>
      </trkpt>
      <trkpt lat="48.4944" lon="4.70115">
        <ele>119</ele>
        <time>2023-09-09T08:34:37Z</time>
      </trkpt>
      <trkpt lat="48.49451" lon="4.70113">
        <ele>119.2</ele>
        <time>2023-09-09T08:34:39Z</time>
      </trkpt>
      <trkpt lat="48.49466" lon="4.70122">
        <ele>119</ele>
        <time>2023-09-09T08:34:41Z</time>
      </trkpt>
      <trkpt lat="48.49467" lon="4.70129">
        <ele>118.8</ele>
        <time>2023-09-09T08:34:42Z</time>
      </trkpt>
      <trkpt lat="48.49468" lon="4.70136">
        <ele>118.6</ele>
        <time>2023-09-09T08:34:43Z</time>
      </trkpt>
      <trkpt lat="48.49472" lon="4.70161">
        <ele>118.2</ele>
        <time>2023-09-09T08:34:46Z</time>
      </trkpt>
      <trkpt lat="48.49475" lon="4.70227">
        <ele>118</ele>
        <time>2023-09-09T08:34:53Z</time>
      </trkpt>
      <trkpt lat="48.49476" lon="4.70276">
        <ele>118.3</ele>
        <time>2023-09-09T08:34:58Z</time>
      </trkpt>
      <trkpt lat="48.49476" lon="4.70359">
        <ele>118.4</ele>
        <time>2023-09-09T08:35:06Z</time>
      </trkpt>
      <trkpt lat="48.49476" lon="4.70381">
        <ele>118.4</ele>
        <time>2023-09-09T08:35:08Z</time>
      </trkpt>
      <trkpt lat="48.49477" lon="4.70466">
        <ele>118.5</ele>
        <time>2023-09-09T08:35:16Z</time>
      </trkpt>
      <trkpt lat="48.49478" lon="4.70541">
        <ele>118.7</ele>
        <time>2023-09-09T08:35:23Z</time>
      </trkpt>
      <trkpt lat="48.49478" lon="4.70613">
        <ele>118.8</ele>
        <time>2023-09-09T08:35:30Z</time>
      </trkpt>
      <trkpt lat="48.49479" lon="4.7069">
        <ele>118.8</ele>
        <time>2023-09-09T08:35:37Z</time>
      </trkpt>
      <trkpt lat="48.49479" lon="4.70764">
        <ele>118.8</ele>
        <time>2023-09-09T08:35:44Z</time>
      </trkpt>
      <trkpt lat="48.4948" lon="4.70838">
        <ele>118.7</ele>
        <time>2023-09-09T08:35:51Z</time>
      </trkpt>
      <trkpt lat="48.4948" lon="4.70925">
        <ele>118.7</ele>
        <time>2023-09-09T08:35:59Z</time>
      </trkpt>
      <trkpt lat="48.4948" lon="4.71014">
        <ele>118.8</ele>
        <time>2023-09-09T08:36:07Z</time>
      </trkpt>
      <trkpt lat="48.49481" lon="4.71065">
        <ele>118.8</ele>
        <time>2023-09-09T08:36:12Z</time>
      </trkpt>
      <trkpt lat="48.49481" lon="4.71075">
        <ele>118.9</ele>
        <time>2023-09-09T08:36:13Z</time>
      </trkpt>
      <trkpt lat="48.49481" lon="4.71118">
        <ele>119</ele>
        <time>2023-09-09T08:36:17Z</time>
      </trkpt>
      <trkpt lat="48.49481" lon="4.71139">
        <ele>119</ele>
        <time>2023-09-09T08:36:19Z</time>
      </trkpt>
      <trkpt lat="48.49481" lon="4.71207">
        <ele>119</ele>
        <time>2023-09-09T08:36:25Z</time>
      </trkpt>
      <trkpt lat="48.49495" lon="4.71277">
        <ele>119.2</ele>
        <time>2023-09-09T08:36:32Z</time>
      </trkpt>
      <trkpt lat="48.49517" lon="4.71348">
        <ele>119.5</ele>
        <time>2023-09-09T08:36:40Z</time>
      </trkpt>
      <trkpt lat="48.49545" lon="4.71407">
        <ele>119.8</ele>
        <time>2023-09-09T08:36:47Z</time>
      </trkpt>
      <trkpt lat="48.49578" lon="4.71477">
        <ele>119.9</ele>
        <time>2023-09-09T08:36:55Z</time>
      </trkpt>
      <trkpt lat="48.49587" lon="4.71495">
        <ele>119.9</ele>
        <time>2023-09-09T08:36:57Z</time>
      </trkpt>
      <trkpt lat="48.49595" lon="4.71514">
        <ele>119.9</ele>
        <time>2023-09-09T08:36:59Z</time>
      </trkpt>
      <trkpt lat="48.49608" lon="4.71542">
        <ele>120</ele>
        <time>2023-09-09T08:37:02Z</time>
      </trkpt>
      <trkpt lat="48.49612" lon="4.71551">
        <ele>120</ele>
        <time>2023-09-09T08:37:03Z</time>
      </trkpt>
      <trkpt lat="48.49621" lon="4.71593">
        <ele>120.1</ele>
        <time>2023-09-09T08:37:07Z</time>
      </trkpt>
      <trkpt lat="48.4963" lon="4.7168">
        <ele>120.3</ele>
        <time>2023-09-09T08:37:15Z</time>
      </trkpt>
      <trkpt lat="48.49632" lon="4.71691">
        <ele>120.3</ele>
        <time>2023-09-09T08:37:16Z</time>
      </trkpt>
      <trkpt lat="48.49642" lon="4.71752">
        <ele>120.5</ele>
        <time>2023-09-09T08:37:22Z</time>
      </trkpt>
      <trkpt lat="48.49655" lon="4.71834">
        <ele>120.8</ele>
        <time>2023-09-09T08:37:30Z</time>
      </trkpt>
      <trkpt lat="48.49656" lon="4.71845">
        <ele>120.9</ele>
        <time>2023-09-09T08:37:31Z</time>
      </trkpt>
      <trkpt lat="48.49675" lon="4.7192">
        <ele>120.6</ele>
        <time>2023-09-09T08:37:39Z</time>
      </trkpt>
      <trkpt lat="48.49697" lon="4.71985">
        <ele>120.6</ele>
        <time>2023-09-09T08:37:46Z</time>
      </trkpt>
      <trkpt lat="48.49719" lon="4.72052">
        <ele>120.4</ele>
        <time>2023-09-09T08:37:53Z</time>
      </trkpt>
      <trkpt lat="48.49738" lon="4.72111">
        <ele>120.5</ele>
        <time>2023-09-09T08:38:00Z</time>
      </trkpt>
      <trkpt lat="48.4975" lon="4.7218">
        <ele>120.8</ele>
        <time>2023-09-09T08:38:08Z</time>
      </trkpt>
      <trkpt lat="48.49751" lon="4.72219">
        <ele>120.9</ele>
        <time>2023-09-09T08:38:13Z</time>
      </trkpt>
      <trkpt lat="48.4975" lon="4.72241">
        <ele>121.1</ele>
        <time>2023-09-09T08:38:16Z</time>
      </trkpt>
      <trkpt lat="48.49747" lon="4.72255">
        <ele>121.2</ele>
        <time>2023-09-09T08:38:18Z</time>
      </trkpt>
      <trkpt lat="48.4974" lon="4.72283">
        <ele>121.5</ele>
        <time>2023-09-09T08:38:22Z</time>
      </trkpt>
      <trkpt lat="48.49737" lon="4.72296">
        <ele>121.6</ele>
        <time>2023-09-09T08:38:24Z</time>
      </trkpt>
      <trkpt lat="48.49726" lon="4.72315">
        <ele>121.7</ele>
        <time>2023-09-09T08:38:29Z</time>
      </trkpt>
      <trkpt lat="48.49699" lon="4.72327">
        <ele>122</ele>
        <time>2023-09-09T08:38:35Z</time>
      </trkpt>
      <trkpt lat="48.49673" lon="4.7234">
        <ele>122.4</ele>
        <time>2023-09-09T08:38:40Z</time>
      </trkpt>
      <trkpt lat="48.49643" lon="4.72371">
        <ele>122.8</ele>
        <time>2023-09-09T08:38:46Z</time>
      </trkpt>
      <trkpt lat="48.49615" lon="4.72423">
        <ele>122.9</ele>
        <time>2023-09-09T08:38:53Z</time>
      </trkpt>
      <trkpt lat="48.49591" lon="4.72473">
        <ele>123.3</ele>
        <time>2023-09-09T08:38:59Z</time>
      </trkpt>
      <trkpt lat="48.49571" lon="4.72516">
        <ele>123.6</ele>
        <time>2023-09-09T08:39:04Z</time>
      </trkpt>
      <trkpt lat="48.49562" lon="4.72534">
        <ele>123.8</ele>
        <time>2023-09-09T08:39:06Z</time>
      </trkpt>
      <trkpt lat="48.49549" lon="4.7257">
        <ele>124.1</ele>
        <time>2023-09-09T08:39:10Z</time>
      </trkpt>
      <trkpt lat="48.49523" lon="4.72643">
        <ele>124.5</ele>
        <time>2023-09-09T08:39:18Z</time>
      </trkpt>
      <trkpt lat="48.4952" lon="4.72652">
        <ele>124.4</ele>
        <time>2023-09-09T08:39:19Z</time>
      </trkpt>
      <trkpt lat="48.49496" lon="4.72712">
        <ele>124.4</ele>
        <time>2023-09-09T08:39:26Z</time>
      </trkpt>
      <trkpt lat="48.49466" lon="4.72781">
        <ele>124.5</ele>
        <time>2023-09-09T08:39:34Z</time>
      </trkpt>
      <trkpt lat="48.49441" lon="4.72835">
        <ele>124.6</ele>
        <time>2023-09-09T08:39:40Z</time>
      </trkpt>
      <trkpt lat="48.49405" lon="4.72891">
        <ele>125</ele>
        <time>2023-09-09T08:39:47Z</time>
      </trkpt>
      <trkpt lat="48.49366" lon="4.72955">
        <ele>125</ele>
        <time>2023-09-09T08:39:55Z</time>
      </trkpt>
      <trkpt lat="48.4936" lon="4.72963">
        <ele>125</ele>
        <time>2023-09-09T08:39:56Z</time>
      </trkpt>
      <trkpt lat="48.49327" lon="4.73029">
        <ele>124.7</ele>
        <time>2023-09-09T08:40:03Z</time>
      </trkpt>
      <trkpt lat="48.49323" lon="4.73039">
        <ele>124.7</ele>
        <time>2023-09-09T08:40:04Z</time>
      </trkpt>
      <trkpt lat="48.49302" lon="4.73087">
        <ele>124.8</ele>
        <time>2023-09-09T08:40:09Z</time>
      </trkpt>
      <trkpt lat="48.49271" lon="4.73165">
        <ele>124.4</ele>
        <time>2023-09-09T08:40:17Z</time>
      </trkpt>
      <trkpt lat="48.49244" lon="4.73225">
        <ele>124</ele>
        <time>2023-09-09T08:40:23Z</time>
      </trkpt>
      <trkpt lat="48.49208" lon="4.73286">
        <ele>124</ele>
        <time>2023-09-09T08:40:30Z</time>
      </trkpt>
      <trkpt lat="48.49176" lon="4.7334">
        <ele>124.1</ele>
        <time>2023-09-09T08:40:36Z</time>
      </trkpt>
      <trkpt lat="48.4914" lon="4.73402">
        <ele>124.2</ele>
        <time>2023-09-09T08:40:43Z</time>
      </trkpt>
      <trkpt lat="48.49101" lon="4.73459">
        <ele>124</ele>
        <time>2023-09-09T08:40:50Z</time>
      </trkpt>
      <trkpt lat="48.4906" lon="4.73511">
        <ele>123.9</ele>
        <time>2023-09-09T08:40:57Z</time>
      </trkpt>
      <trkpt lat="48.49015" lon="4.73561">
        <ele>123.9</ele>
        <time>2023-09-09T08:41:04Z</time>
      </trkpt>
      <trkpt lat="48.49009" lon="4.73568">
        <ele>124</ele>
        <time>2023-09-09T08:41:05Z</time>
      </trkpt>
      <trkpt lat="48.48965" lon="4.73615">
        <ele>124.9</ele>
        <time>2023-09-09T08:41:12Z</time>
      </trkpt>
      <trkpt lat="48.48959" lon="4.73621">
        <ele>125</ele>
        <time>2023-09-09T08:41:13Z</time>
      </trkpt>
      <trkpt lat="48.48924" lon="4.73657">
        <ele>126.5</ele>
        <time>2023-09-09T08:41:19Z</time>
      </trkpt>
      <trkpt lat="48.48889" lon="4.73694">
        <ele>128.4</ele>
        <time>2023-09-09T08:41:26Z</time>
      </trkpt>
      <trkpt lat="48.48855" lon="4.7373">
        <ele>129.7</ele>
        <time>2023-09-09T08:41:33Z</time>
      </trkpt>
      <trkpt lat="48.48819" lon="4.73768">
        <ele>130.6</ele>
        <time>2023-09-09T08:41:40Z</time>
      </trkpt>
      <trkpt lat="48.48799" lon="4.73789">
        <ele>131</ele>
        <time>2023-09-09T08:41:44Z</time>
      </trkpt>
      <trkpt lat="48.48789" lon="4.738">
        <ele>131.1</ele>
        <time>2023-09-09T08:41:46Z</time>
      </trkpt>
      <trkpt lat="48.48764" lon="4.73831">
        <ele>130.8</ele>
        <time>2023-09-09T08:41:51Z</time>
      </trkpt>
      <trkpt lat="48.48722" lon="4.73893">
        <ele>130</ele>
        <time>2023-09-09T08:41:59Z</time>
      </trkpt>
      <trkpt lat="48.48687" lon="4.73953">
        <ele>128.9</ele>
        <time>2023-09-09T08:42:06Z</time>
      </trkpt>
      <trkpt lat="48.48672" lon="4.74009">
        <ele>128.2</ele>
        <time>2023-09-09T08:42:11Z</time>
      </trkpt>
      <trkpt lat="48.48656" lon="4.74091">
        <ele>127.7</ele>
        <time>2023-09-09T08:42:18Z</time>
      </trkpt>
      <trkpt lat="48.48635" lon="4.7414">
        <ele>128</ele>
        <time>2023-09-09T08:42:23Z</time>
      </trkpt>
      <trkpt lat="48.48602" lon="4.74192">
        <ele>128.7</ele>
        <time>2023-09-09T08:42:29Z</time>
      </trkpt>
      <trkpt lat="48.4856" lon="4.74258">
        <ele>129.9</ele>
        <time>2023-09-09T08:42:37Z</time>
      </trkpt>
      <trkpt lat="48.48522" lon="4.74317">
        <ele>130.7</ele>
        <time>2023-09-09T08:42:44Z</time>
      </trkpt>
      <trkpt lat="48.48512" lon="4.74333">
        <ele>130.9</ele>
        <time>2023-09-09T08:42:46Z</time>
      </trkpt>
      <trkpt lat="48.48483" lon="4.74378">
        <ele>131.6</ele>
        <time>2023-09-09T08:42:52Z</time>
      </trkpt>
      <trkpt lat="48.4845" lon="4.74429">
        <ele>132.1</ele>
        <time>2023-09-09T08:42:59Z</time>
      </trkpt>
      <trkpt lat="48.48416" lon="4.74491">
        <ele>132.1</ele>
        <time>2023-09-09T08:43:07Z</time>
      </trkpt>
      <trkpt lat="48.48385" lon="4.74557">
        <ele>131.3</ele>
        <time>2023-09-09T08:43:15Z</time>
      </trkpt>
      <trkpt lat="48.48354" lon="4.74621">
        <ele>130.4</ele>
        <time>2023-09-09T08:43:22Z</time>
      </trkpt>
      <trkpt lat="48.48321" lon="4.74692">
        <ele>129.6</ele>
        <time>2023-09-09T08:43:29Z</time>
      </trkpt>
      <trkpt lat="48.48295" lon="4.74747">
        <ele>129.5</ele>
        <time>2023-09-09T08:43:35Z</time>
      </trkpt>
      <trkpt lat="48.48269" lon="4.74799">
        <ele>129.1</ele>
        <time>2023-09-09T08:43:41Z</time>
      </trkpt>
      <trkpt lat="48.48238" lon="4.74863">
        <ele>129.4</ele>
        <time>2023-09-09T08:43:48Z</time>
      </trkpt>
      <trkpt lat="48.48202" lon="4.74933">
        <ele>130.4</ele>
        <time>2023-09-09T08:43:56Z</time>
      </trkpt>
      <trkpt lat="48.48194" lon="4.74949">
        <ele>130.6</ele>
        <time>2023-09-09T08:43:58Z</time>
      </trkpt>
      <trkpt lat="48.48184" lon="4.74961">
        <ele>130.9</ele>
        <time>2023-09-09T08:44:00Z</time>
      </trkpt>
      <trkpt lat="48.4815" lon="4.75008">
        <ele>131.2</ele>
        <time>2023-09-09T08:44:07Z</time>
      </trkpt>
      <trkpt lat="48.48108" lon="4.75063">
        <ele>130.8</ele>
        <time>2023-09-09T08:44:15Z</time>
      </trkpt>
      <trkpt lat="48.48103" lon="4.75069">
        <ele>130.8</ele>
        <time>2023-09-09T08:44:16Z</time>
      </trkpt>
      <trkpt lat="48.48093" lon="4.75083">
        <ele>130.8</ele>
        <time>2023-09-09T08:44:18Z</time>
      </trkpt>
      <trkpt lat="48.48077" lon="4.75101">
        <ele>130.7</ele>
        <time>2023-09-09T08:44:21Z</time>
      </trkpt>
      <trkpt lat="48.48042" lon="4.75134">
        <ele>130.4</ele>
        <time>2023-09-09T08:44:27Z</time>
      </trkpt>
      <trkpt lat="48.48003" lon="4.75174">
        <ele>130.1</ele>
        <time>2023-09-09T08:44:34Z</time>
      </trkpt>
      <trkpt lat="48.47971" lon="4.75209">
        <ele>129.6</ele>
        <time>2023-09-09T08:44:40Z</time>
      </trkpt>
      <trkpt lat="48.47922" lon="4.75255">
        <ele>129</ele>
        <time>2023-09-09T08:44:48Z</time>
      </trkpt>
      <trkpt lat="48.47886" lon="4.75283">
        <ele>128.7</ele>
        <time>2023-09-09T08:44:54Z</time>
      </trkpt>
      <trkpt lat="48.47863" lon="4.75308">
        <ele>128.5</ele>
        <time>2023-09-09T08:44:59Z</time>
      </trkpt>
      <trkpt lat="48.47851" lon="4.75321">
        <ele>128.3</ele>
        <time>2023-09-09T08:45:00Z</time>
      </trkpt>
      <trkpt lat="48.47839" lon="4.75335">
        <ele>128.3</ele>
        <time>2023-09-09T08:45:02Z</time>
      </trkpt>
      <trkpt lat="48.47833" lon="4.75354">
        <ele>128.2</ele>
        <time>2023-09-09T08:45:04Z</time>
      </trkpt>
      <trkpt lat="48.47828" lon="4.75374">
        <ele>128.1</ele>
        <time>2023-09-09T08:45:06Z</time>
      </trkpt>
      <trkpt lat="48.47827" lon="4.75383">
        <ele>128.1</ele>
        <time>2023-09-09T08:45:07Z</time>
      </trkpt>
      <trkpt lat="48.4783" lon="4.75392">
        <ele>128.1</ele>
        <time>2023-09-09T08:45:08Z</time>
      </trkpt>
      <trkpt lat="48.47839" lon="4.75434">
        <ele>128</ele>
        <time>2023-09-09T08:45:12Z</time>
      </trkpt>
      <trkpt lat="48.47855" lon="4.75508">
        <ele>127.6</ele>
        <time>2023-09-09T08:45:19Z</time>
      </trkpt>
      <trkpt lat="48.47867" lon="4.75561">
        <ele>127.5</ele>
        <time>2023-09-09T08:45:25Z</time>
      </trkpt>
      <trkpt lat="48.47871" lon="4.75579">
        <ele>127.4</ele>
        <time>2023-09-09T08:45:27Z</time>
      </trkpt>
      <trkpt lat="48.47875" lon="4.75597">
        <ele>127.4</ele>
        <time>2023-09-09T08:45:29Z</time>
      </trkpt>
      <trkpt lat="48.47874" lon="4.75619">
        <ele>127.3</ele>
        <time>2023-09-09T08:45:31Z</time>
      </trkpt>
      <trkpt lat="48.4787" lon="4.7563">
        <ele>127.2</ele>
        <time>2023-09-09T08:45:32Z</time>
      </trkpt>
      <trkpt lat="48.47839" lon="4.75691">
        <ele>126.9</ele>
        <time>2023-09-09T08:45:39Z</time>
      </trkpt>
      <trkpt lat="48.47814" lon="4.7574">
        <ele>126.8</ele>
        <time>2023-09-09T08:45:45Z</time>
      </trkpt>
      <trkpt lat="48.47806" lon="4.75755">
        <ele>126.8</ele>
        <time>2023-09-09T08:45:47Z</time>
      </trkpt>
      <trkpt lat="48.47799" lon="4.75774">
        <ele>126.7</ele>
        <time>2023-09-09T08:45:49Z</time>
      </trkpt>
      <trkpt lat="48.47797" lon="4.75784">
        <ele>126.7</ele>
        <time>2023-09-09T08:45:50Z</time>
      </trkpt>
      <trkpt lat="48.478" lon="4.75837">
        <ele>126.7</ele>
        <time>2023-09-09T08:45:55Z</time>
      </trkpt>
      <trkpt lat="48.47803" lon="4.75867">
        <ele>126.7</ele>
        <time>2023-09-09T08:45:58Z</time>
      </trkpt>
      <trkpt lat="48.47801" lon="4.75885">
        <ele>126.7</ele>
        <time>2023-09-09T08:46:00Z</time>
      </trkpt>
      <trkpt lat="48.47791" lon="4.7592">
        <ele>126.6</ele>
        <time>2023-09-09T08:46:04Z</time>
      </trkpt>
      <trkpt lat="48.47762" lon="4.7598">
        <ele>126.6</ele>
        <time>2023-09-09T08:46:11Z</time>
      </trkpt>
      <trkpt lat="48.47725" lon="4.76032">
        <ele>126.7</ele>
        <time>2023-09-09T08:46:18Z</time>
      </trkpt>
      <trkpt lat="48.47688" lon="4.76083">
        <ele>126.7</ele>
        <time>2023-09-09T08:46:25Z</time>
      </trkpt>
      <trkpt lat="48.47651" lon="4.76135">
        <ele>126.8</ele>
        <time>2023-09-09T08:46:32Z</time>
      </trkpt>
      <trkpt lat="48.47616" lon="4.76183">
        <ele>126.9</ele>
        <time>2023-09-09T08:46:39Z</time>
      </trkpt>
      <trkpt lat="48.47576" lon="4.76238">
        <ele>127</ele>
        <time>2023-09-09T08:46:47Z</time>
      </trkpt>
      <trkpt lat="48.47543" lon="4.76283">
        <ele>127</ele>
        <time>2023-09-09T08:46:54Z</time>
      </trkpt>
      <trkpt lat="48.47521" lon="4.76309">
        <ele>127</ele>
        <time>2023-09-09T08:46:58Z</time>
      </trkpt>
      <trkpt lat="48.47514" lon="4.76313">
        <ele>127</ele>
        <time>2023-09-09T08:46:59Z</time>
      </trkpt>
      <trkpt lat="48.47474" lon="4.76343">
        <ele>127</ele>
        <time>2023-09-09T08:47:05Z</time>
      </trkpt>
      <trkpt lat="48.47425" lon="4.76379">
        <ele>127.1</ele>
        <time>2023-09-09T08:47:13Z</time>
      </trkpt>
      <trkpt lat="48.47384" lon="4.76409">
        <ele>127.3</ele>
        <time>2023-09-09T08:47:20Z</time>
      </trkpt>
      <trkpt lat="48.47345" lon="4.76436">
        <ele>127.3</ele>
        <time>2023-09-09T08:47:28Z</time>
      </trkpt>
      <trkpt lat="48.47336" lon="4.76444">
        <ele>127.3</ele>
        <time>2023-09-09T08:47:31Z</time>
      </trkpt>
      <trkpt lat="48.47331" lon="4.7645">
        <ele>127.3</ele>
        <time>2023-09-09T08:47:36Z</time>
      </trkpt>
      <trkpt lat="48.47321" lon="4.76455">
        <ele>127.3</ele>
        <time>2023-09-09T08:47:40Z</time>
      </trkpt>
      <trkpt lat="48.473" lon="4.76463">
        <ele>127.3</ele>
        <time>2023-09-09T08:47:45Z</time>
      </trkpt>
      <trkpt lat="48.47266" lon="4.76474">
        <ele>127.3</ele>
        <time>2023-09-09T08:47:51Z</time>
      </trkpt>
      <trkpt lat="48.47239" lon="4.76474">
        <ele>127.4</ele>
        <time>2023-09-09T08:47:55Z</time>
      </trkpt>
      <trkpt lat="48.47209" lon="4.76468">
        <ele>127.5</ele>
        <time>2023-09-09T08:48:00Z</time>
      </trkpt>
      <trkpt lat="48.4717" lon="4.76451">
        <ele>127.6</ele>
        <time>2023-09-09T08:48:07Z</time>
      </trkpt>
      <trkpt lat="48.47132" lon="4.76434">
        <ele>127.7</ele>
        <time>2023-09-09T08:48:13Z</time>
      </trkpt>
      <trkpt lat="48.47097" lon="4.76417">
        <ele>127.7</ele>
        <time>2023-09-09T08:48:19Z</time>
      </trkpt>
      <trkpt lat="48.47069" lon="4.7641">
        <ele>127.7</ele>
        <time>2023-09-09T08:48:24Z</time>
      </trkpt>
      <trkpt lat="48.47037" lon="4.76406">
        <ele>127.7</ele>
        <time>2023-09-09T08:48:29Z</time>
      </trkpt>
      <trkpt lat="48.46997" lon="4.76395">
        <ele>127.8</ele>
        <time>2023-09-09T08:48:36Z</time>
      </trkpt>
      <trkpt lat="48.46961" lon="4.76383">
        <ele>127.8</ele>
        <time>2023-09-09T08:48:42Z</time>
      </trkpt>
      <trkpt lat="48.4692" lon="4.76369">
        <ele>127.9</ele>
        <time>2023-09-09T08:48:49Z</time>
      </trkpt>
      <trkpt lat="48.46889" lon="4.76356">
        <ele>128</ele>
        <time>2023-09-09T08:48:54Z</time>
      </trkpt>
      <trkpt lat="48.46851" lon="4.76344">
        <ele>128.2</ele>
        <time>2023-09-09T08:49:00Z</time>
      </trkpt>
      <trkpt lat="48.46844" lon="4.76345">
        <ele>128.3</ele>
        <time>2023-09-09T08:49:01Z</time>
      </trkpt>
      <trkpt lat="48.46824" lon="4.76347">
        <ele>128.4</ele>
        <time>2023-09-09T08:49:04Z</time>
      </trkpt>
      <trkpt lat="48.46775" lon="4.76351">
        <ele>128.8</ele>
        <time>2023-09-09T08:49:11Z</time>
      </trkpt>
      <trkpt lat="48.46729" lon="4.76348">
        <ele>129.2</ele>
        <time>2023-09-09T08:49:18Z</time>
      </trkpt>
      <trkpt lat="48.46698" lon="4.76349">
        <ele>129.5</ele>
        <time>2023-09-09T08:49:23Z</time>
      </trkpt>
      <trkpt lat="48.46692" lon="4.76349">
        <ele>129.6</ele>
        <time>2023-09-09T08:49:24Z</time>
      </trkpt>
      <trkpt lat="48.46664" lon="4.76355">
        <ele>129.9</ele>
        <time>2023-09-09T08:49:29Z</time>
      </trkpt>
      <trkpt lat="48.46636" lon="4.76363">
        <ele>130.1</ele>
        <time>2023-09-09T08:49:34Z</time>
      </trkpt>
      <trkpt lat="48.46631" lon="4.76364">
        <ele>130.1</ele>
        <time>2023-09-09T08:49:35Z</time>
      </trkpt>
      <trkpt lat="48.46626" lon="4.76366">
        <ele>130.2</ele>
        <time>2023-09-09T08:49:36Z</time>
      </trkpt>
      <trkpt lat="48.46602" lon="4.76372">
        <ele>130.3</ele>
        <time>2023-09-09T08:49:40Z</time>
      </trkpt>
      <trkpt lat="48.46558" lon="4.76379">
        <ele>130.7</ele>
        <time>2023-09-09T08:49:47Z</time>
      </trkpt>
      <trkpt lat="48.46527" lon="4.76371">
        <ele>131.2</ele>
        <time>2023-09-09T08:49:53Z</time>
      </trkpt>
      <trkpt lat="48.46518" lon="4.76368">
        <ele>131.4</ele>
        <time>2023-09-09T08:49:55Z</time>
      </trkpt>
      <trkpt lat="48.46511" lon="4.76363">
        <ele>131.7</ele>
        <time>2023-09-09T08:49:57Z</time>
      </trkpt>
      <trkpt lat="48.46502" lon="4.76377">
        <ele>131.7</ele>
        <time>2023-09-09T08:49:59Z</time>
      </trkpt>
      <trkpt lat="48.46497" lon="4.76391">
        <ele>131.6</ele>
        <time>2023-09-09T08:50:01Z</time>
      </trkpt>
      <trkpt lat="48.46483" lon="4.76424">
        <ele>130.8</ele>
        <time>2023-09-09T08:50:05Z</time>
      </trkpt>
      <trkpt lat="48.46475" lon="4.7644">
        <ele>130.4</ele>
        <time>2023-09-09T08:50:07Z</time>
      </trkpt>
      <trkpt lat="48.46438" lon="4.7649">
        <ele>130</ele>
        <time>2023-09-09T08:50:14Z</time>
      </trkpt>
      <trkpt lat="48.46398" lon="4.76526">
        <ele>129.8</ele>
        <time>2023-09-09T08:50:20Z</time>
      </trkpt>
      <trkpt lat="48.46346" lon="4.76559">
        <ele>129.5</ele>
        <time>2023-09-09T08:50:27Z</time>
      </trkpt>
      <trkpt lat="48.46298" lon="4.76591">
        <ele>129.5</ele>
        <time>2023-09-09T08:50:34Z</time>
      </trkpt>
      <trkpt lat="48.46241" lon="4.76627">
        <ele>129.4</ele>
        <time>2023-09-09T08:50:42Z</time>
      </trkpt>
      <trkpt lat="48.46197" lon="4.76649">
        <ele>129.4</ele>
        <time>2023-09-09T08:50:48Z</time>
      </trkpt>
      <trkpt lat="48.46154" lon="4.76669">
        <ele>129.6</ele>
        <time>2023-09-09T08:50:54Z</time>
      </trkpt>
      <trkpt lat="48.46106" lon="4.76706">
        <ele>129.9</ele>
        <time>2023-09-09T08:51:01Z</time>
      </trkpt>
      <trkpt lat="48.46067" lon="4.76739">
        <ele>130</ele>
        <time>2023-09-09T08:51:07Z</time>
      </trkpt>
      <trkpt lat="48.46016" lon="4.76783">
        <ele>130.1</ele>
        <time>2023-09-09T08:51:15Z</time>
      </trkpt>
      <trkpt lat="48.46004" lon="4.76794">
        <ele>130.1</ele>
        <time>2023-09-09T08:51:17Z</time>
      </trkpt>
      <trkpt lat="48.45966" lon="4.76826">
        <ele>130.1</ele>
        <time>2023-09-09T08:51:23Z</time>
      </trkpt>
      <trkpt lat="48.45914" lon="4.76863">
        <ele>130.2</ele>
        <time>2023-09-09T08:51:31Z</time>
      </trkpt>
      <trkpt lat="48.45869" lon="4.76893">
        <ele>130.1</ele>
        <time>2023-09-09T08:51:38Z</time>
      </trkpt>
      <trkpt lat="48.45816" lon="4.76928">
        <ele>130.1</ele>
        <time>2023-09-09T08:51:46Z</time>
      </trkpt>
      <trkpt lat="48.45776" lon="4.76948">
        <ele>130.1</ele>
        <time>2023-09-09T08:51:52Z</time>
      </trkpt>
      <trkpt lat="48.45735" lon="4.7694">
        <ele>130</ele>
        <time>2023-09-09T08:51:58Z</time>
      </trkpt>
      <trkpt lat="48.45709" lon="4.76934">
        <ele>130.1</ele>
        <time>2023-09-09T08:52:02Z</time>
      </trkpt>
      <trkpt lat="48.45697" lon="4.76931">
        <ele>130.1</ele>
        <time>2023-09-09T08:52:04Z</time>
      </trkpt>
      <trkpt lat="48.45677" lon="4.76963">
        <ele>130.2</ele>
        <time>2023-09-09T08:52:08Z</time>
      </trkpt>
      <trkpt lat="48.45638" lon="4.77026">
        <ele>130</ele>
        <time>2023-09-09T08:52:16Z</time>
      </trkpt>
      <trkpt lat="48.45628" lon="4.77041">
        <ele>129.9</ele>
        <time>2023-09-09T08:52:18Z</time>
      </trkpt>
      <trkpt lat="48.4559" lon="4.77104">
        <ele>130</ele>
        <time>2023-09-09T08:52:26Z</time>
      </trkpt>
      <trkpt lat="48.45585" lon="4.77113">
        <ele>130</ele>
        <time>2023-09-09T08:52:27Z</time>
      </trkpt>
      <trkpt lat="48.45547" lon="4.7717">
        <ele>129.8</ele>
        <time>2023-09-09T08:52:34Z</time>
      </trkpt>
      <trkpt lat="48.45507" lon="4.77228">
        <ele>130</ele>
        <time>2023-09-09T08:52:42Z</time>
      </trkpt>
      <trkpt lat="48.4546" lon="4.77277">
        <ele>130</ele>
        <time>2023-09-09T08:52:49Z</time>
      </trkpt>
      <trkpt lat="48.45418" lon="4.77322">
        <ele>129.9</ele>
        <time>2023-09-09T08:52:57Z</time>
      </trkpt>
      <trkpt lat="48.45384" lon="4.77358">
        <ele>130.2</ele>
        <time>2023-09-09T08:53:03Z</time>
      </trkpt>
      <trkpt lat="48.45335" lon="4.77409">
        <ele>130.5</ele>
        <time>2023-09-09T08:53:11Z</time>
      </trkpt>
      <trkpt lat="48.45295" lon="4.77453">
        <ele>130.7</ele>
        <time>2023-09-09T08:53:18Z</time>
      </trkpt>
      <trkpt lat="48.45271" lon="4.77489">
        <ele>130.8</ele>
        <time>2023-09-09T08:53:23Z</time>
      </trkpt>
      <trkpt lat="48.45242" lon="4.77549">
        <ele>130.9</ele>
        <time>2023-09-09T08:53:30Z</time>
      </trkpt>
      <trkpt lat="48.45214" lon="4.77613">
        <ele>131.1</ele>
        <time>2023-09-09T08:53:37Z</time>
      </trkpt>
      <trkpt lat="48.45181" lon="4.7768">
        <ele>131.1</ele>
        <time>2023-09-09T08:53:45Z</time>
      </trkpt>
      <trkpt lat="48.45146" lon="4.77751">
        <ele>131.3</ele>
        <time>2023-09-09T08:53:53Z</time>
      </trkpt>
      <trkpt lat="48.45109" lon="4.77824">
        <ele>131.4</ele>
        <time>2023-09-09T08:54:01Z</time>
      </trkpt>
      <trkpt lat="48.45101" lon="4.77842">
        <ele>131.6</ele>
        <time>2023-09-09T08:54:03Z</time>
      </trkpt>
      <trkpt lat="48.45071" lon="4.77902">
        <ele>132</ele>
        <time>2023-09-09T08:54:10Z</time>
      </trkpt>
      <trkpt lat="48.45035" lon="4.77974">
        <ele>132.2</ele>
        <time>2023-09-09T08:54:19Z</time>
      </trkpt>
      <trkpt lat="48.45031" lon="4.77982">
        <ele>132.2</ele>
        <time>2023-09-09T08:54:20Z</time>
      </trkpt>
      <trkpt lat="48.44998" lon="4.78049">
        <ele>132.6</ele>
        <time>2023-09-09T08:54:28Z</time>
      </trkpt>
      <trkpt lat="48.44961" lon="4.78122">
        <ele>133.9</ele>
        <time>2023-09-09T08:54:37Z</time>
      </trkpt>
      <trkpt lat="48.44927" lon="4.78192">
        <ele>134.6</ele>
        <time>2023-09-09T08:54:46Z</time>
      </trkpt>
      <trkpt lat="48.44923" lon="4.782">
        <ele>134.7</ele>
        <time>2023-09-09T08:54:47Z</time>
      </trkpt>
      <trkpt lat="48.4489" lon="4.78265">
        <ele>135.2</ele>
        <time>2023-09-09T08:54:55Z</time>
      </trkpt>
      <trkpt lat="48.44886" lon="4.78273">
        <ele>135.2</ele>
        <time>2023-09-09T08:54:56Z</time>
      </trkpt>
      <trkpt lat="48.44852" lon="4.78341">
        <ele>135.3</ele>
        <time>2023-09-09T08:55:05Z</time>
      </trkpt>
      <trkpt lat="48.44848" lon="4.78349">
        <ele>135.3</ele>
        <time>2023-09-09T08:55:06Z</time>
      </trkpt>
      <trkpt lat="48.44818" lon="4.7841">
        <ele>135.4</ele>
        <time>2023-09-09T08:55:14Z</time>
      </trkpt>
      <trkpt lat="48.44779" lon="4.78488">
        <ele>135.6</ele>
        <time>2023-09-09T08:55:23Z</time>
      </trkpt>
      <trkpt lat="48.44749" lon="4.78553">
        <ele>134.8</ele>
        <time>2023-09-09T08:55:31Z</time>
      </trkpt>
      <trkpt lat="48.44737" lon="4.786">
        <ele>134.1</ele>
        <time>2023-09-09T08:55:37Z</time>
      </trkpt>
      <trkpt lat="48.44725" lon="4.78675">
        <ele>134</ele>
        <time>2023-09-09T08:55:44Z</time>
      </trkpt>
      <trkpt lat="48.44726" lon="4.78752">
        <ele>134.2</ele>
        <time>2023-09-09T08:55:51Z</time>
      </trkpt>
      <trkpt lat="48.44737" lon="4.78829">
        <ele>134.3</ele>
        <time>2023-09-09T08:55:59Z</time>
      </trkpt>
      <trkpt lat="48.44751" lon="4.7891">
        <ele>134.4</ele>
        <time>2023-09-09T08:56:07Z</time>
      </trkpt>
      <trkpt lat="48.44752" lon="4.7892">
        <ele>134.4</ele>
        <time>2023-09-09T08:56:08Z</time>
      </trkpt>
      <trkpt lat="48.44765" lon="4.78997">
        <ele>134.4</ele>
        <time>2023-09-09T08:56:16Z</time>
      </trkpt>
      <trkpt lat="48.44778" lon="4.79071">
        <ele>134.3</ele>
        <time>2023-09-09T08:56:24Z</time>
      </trkpt>
      <trkpt lat="48.44788" lon="4.79134">
        <ele>134.4</ele>
        <time>2023-09-09T08:56:31Z</time>
      </trkpt>
      <trkpt lat="48.44795" lon="4.79206">
        <ele>134.4</ele>
        <time>2023-09-09T08:56:38Z</time>
      </trkpt>
      <trkpt lat="48.44798" lon="4.79294">
        <ele>134.1</ele>
        <time>2023-09-09T08:56:46Z</time>
      </trkpt>
      <trkpt lat="48.44799" lon="4.79305">
        <ele>134.1</ele>
        <time>2023-09-09T08:56:47Z</time>
      </trkpt>
      <trkpt lat="48.44801" lon="4.79395">
        <ele>134.2</ele>
        <time>2023-09-09T08:56:55Z</time>
      </trkpt>
      <trkpt lat="48.44803" lon="4.79482">
        <ele>134.3</ele>
        <time>2023-09-09T08:57:03Z</time>
      </trkpt>
      <trkpt lat="48.44803" lon="4.79492">
        <ele>134.4</ele>
        <time>2023-09-09T08:57:04Z</time>
      </trkpt>
      <trkpt lat="48.44805" lon="4.79574">
        <ele>134.7</ele>
        <time>2023-09-09T08:57:11Z</time>
      </trkpt>
      <trkpt lat="48.44806" lon="4.79614">
        <ele>135</ele>
        <time>2023-09-09T08:57:16Z</time>
      </trkpt>
      <trkpt lat="48.44808" lon="4.7971">
        <ele>136.2</ele>
        <time>2023-09-09T08:57:25Z</time>
      </trkpt>
      <trkpt lat="48.44808" lon="4.7971">
        <ele>136.2</ele>
        <time>2023-09-09T08:57:26Z</time>
      </trkpt>
      <trkpt lat="48.44802" lon="4.79773">
        <ele>136.8</ele>
        <time>2023-09-09T08:57:33Z</time>
      </trkpt>
      <trkpt lat="48.44787" lon="4.79845">
        <ele>137.5</ele>
        <time>2023-09-09T08:57:42Z</time>
      </trkpt>
      <trkpt lat="48.44762" lon="4.79913">
        <ele>138.3</ele>
        <time>2023-09-09T08:57:51Z</time>
      </trkpt>
      <trkpt lat="48.44737" lon="4.79963">
        <ele>139</ele>
        <time>2023-09-09T08:57:58Z</time>
      </trkpt>
      <trkpt lat="48.44706" lon="4.80007">
        <ele>139.6</ele>
        <time>2023-09-09T08:58:05Z</time>
      </trkpt>
      <trkpt lat="48.44671" lon="4.80043">
        <ele>140.3</ele>
        <time>2023-09-09T08:58:12Z</time>
      </trkpt>
      <trkpt lat="48.44634" lon="4.80072">
        <ele>140.8</ele>
        <time>2023-09-09T08:58:19Z</time>
      </trkpt>
      <trkpt lat="48.44591" lon="4.80096">
        <ele>141.2</ele>
        <time>2023-09-09T08:58:27Z</time>
      </trkpt>
      <trkpt lat="48.44556" lon="4.80116">
        <ele>141.4</ele>
        <time>2023-09-09T08:58:33Z</time>
      </trkpt>
      <trkpt lat="48.44518" lon="4.80137">
        <ele>141.5</ele>
        <time>2023-09-09T08:58:40Z</time>
      </trkpt>
      <trkpt lat="48.44477" lon="4.80161">
        <ele>141.4</ele>
        <time>2023-09-09T08:58:47Z</time>
      </trkpt>
      <trkpt lat="48.44442" lon="4.80181">
        <ele>141.6</ele>
        <time>2023-09-09T08:58:53Z</time>
      </trkpt>
      <trkpt lat="48.44395" lon="4.80211">
        <ele>141.6</ele>
        <time>2023-09-09T08:59:01Z</time>
      </trkpt>
      <trkpt lat="48.44361" lon="4.80234">
        <ele>141.5</ele>
        <time>2023-09-09T08:59:07Z</time>
      </trkpt>
      <trkpt lat="48.44336" lon="4.8025">
        <ele>141.5</ele>
        <time>2023-09-09T08:59:11Z</time>
      </trkpt>
      <trkpt lat="48.4431" lon="4.80267">
        <ele>141.5</ele>
        <time>2023-09-09T08:59:15Z</time>
      </trkpt>
      <trkpt lat="48.44268" lon="4.80295">
        <ele>141.5</ele>
        <time>2023-09-09T08:59:22Z</time>
      </trkpt>
      <trkpt lat="48.44227" lon="4.80321">
        <ele>141.3</ele>
        <time>2023-09-09T08:59:29Z</time>
      </trkpt>
      <trkpt lat="48.44192" lon="4.80339">
        <ele>141.3</ele>
        <time>2023-09-09T08:59:35Z</time>
      </trkpt>
      <trkpt lat="48.44181" lon="4.80345">
        <ele>141.3</ele>
        <time>2023-09-09T08:59:37Z</time>
      </trkpt>
      <trkpt lat="48.4417" lon="4.80343">
        <ele>141.4</ele>
        <time>2023-09-09T08:59:39Z</time>
      </trkpt>
      <trkpt lat="48.44136" lon="4.80326">
        <ele>141.4</ele>
        <time>2023-09-09T08:59:45Z</time>
      </trkpt>
      <trkpt lat="48.44089" lon="4.80298">
        <ele>141.5</ele>
        <time>2023-09-09T08:59:53Z</time>
      </trkpt>
      <trkpt lat="48.44058" lon="4.8028">
        <ele>141.5</ele>
        <time>2023-09-09T08:59:59Z</time>
      </trkpt>
      <trkpt lat="48.44019" lon="4.80257">
        <ele>141.8</ele>
        <time>2023-09-09T09:00:06Z</time>
      </trkpt>
      <trkpt lat="48.43978" lon="4.80237">
        <ele>142</ele>
        <time>2023-09-09T09:00:13Z</time>
      </trkpt>
      <trkpt lat="48.43941" lon="4.80225">
        <ele>142.1</ele>
        <time>2023-09-09T09:00:20Z</time>
      </trkpt>
      <trkpt lat="48.43894" lon="4.8021">
        <ele>142.5</ele>
        <time>2023-09-09T09:00:28Z</time>
      </trkpt>
      <trkpt lat="48.43853" lon="4.80199">
        <ele>142.1</ele>
        <time>2023-09-09T09:00:36Z</time>
      </trkpt>
      <trkpt lat="48.43829" lon="4.80192">
        <ele>142.1</ele>
        <time>2023-09-09T09:00:40Z</time>
      </trkpt>
      <trkpt lat="48.43792" lon="4.80182">
        <ele>142.1</ele>
        <time>2023-09-09T09:00:46Z</time>
      </trkpt>
      <trkpt lat="48.4375" lon="4.8017">
        <ele>142.3</ele>
        <time>2023-09-09T09:00:52Z</time>
      </trkpt>
      <trkpt lat="48.43724" lon="4.80163">
        <ele>142.3</ele>
        <time>2023-09-09T09:00:58Z</time>
      </trkpt>
      <trkpt lat="48.43685" lon="4.80148">
        <ele>142.4</ele>
        <time>2023-09-09T09:01:05Z</time>
      </trkpt>
      <trkpt lat="48.43649" lon="4.8013">
        <ele>142.5</ele>
        <time>2023-09-09T09:01:11Z</time>
      </trkpt>
      <trkpt lat="48.43616" lon="4.80113">
        <ele>142.8</ele>
        <time>2023-09-09T09:01:17Z</time>
      </trkpt>
      <trkpt lat="48.43597" lon="4.80103">
        <ele>143</ele>
        <time>2023-09-09T09:01:21Z</time>
      </trkpt>
      <trkpt lat="48.43592" lon="4.80101">
        <ele>143</ele>
        <time>2023-09-09T09:01:22Z</time>
      </trkpt>
      <trkpt lat="48.43583" lon="4.80087">
        <ele>142.9</ele>
        <time>2023-09-09T09:01:24Z</time>
      </trkpt>
      <trkpt lat="48.43576" lon="4.80073">
        <ele>142.7</ele>
        <time>2023-09-09T09:01:26Z</time>
      </trkpt>
      <trkpt lat="48.43569" lon="4.80057">
        <ele>142.5</ele>
        <time>2023-09-09T09:01:28Z</time>
      </trkpt>
      <trkpt lat="48.43565" lon="4.80038">
        <ele>142.3</ele>
        <time>2023-09-09T09:01:30Z</time>
      </trkpt>
      <trkpt lat="48.43563" lon="4.80028">
        <ele>142.1</ele>
        <time>2023-09-09T09:01:31Z</time>
      </trkpt>
      <trkpt lat="48.43564" lon="4.79999">
        <ele>141.6</ele>
        <time>2023-09-09T09:01:34Z</time>
      </trkpt>
      <trkpt lat="48.43576" lon="4.79932">
        <ele>139.7</ele>
        <time>2023-09-09T09:01:40Z</time>
      </trkpt>
      <trkpt lat="48.43592" lon="4.79849">
        <ele>137.8</ele>
        <time>2023-09-09T09:01:49Z</time>
      </trkpt>
      <trkpt lat="48.4359" lon="4.79798">
        <ele>137.1</ele>
        <time>2023-09-09T09:01:54Z</time>
      </trkpt>
      <trkpt lat="48.43587" lon="4.79779">
        <ele>136.9</ele>
        <time>2023-09-09T09:01:57Z</time>
      </trkpt>
      <trkpt lat="48.43586" lon="4.79774">
        <ele>137</ele>
        <time>2023-09-09T09:02:00Z</time>
      </trkpt>
      <trkpt lat="48.43586" lon="4.79772">
        <ele>137</ele>
        <time>2023-09-09T09:04:53Z</time>
      </trkpt>
      <trkpt lat="48.43587" lon="4.79781">
        <ele>137</ele>
        <time>2023-09-09T09:04:58Z</time>
      </trkpt>
      <trkpt lat="48.43588" lon="4.79787">
        <ele>137.1</ele>
        <time>2023-09-09T09:05:14Z</time>
      </trkpt>
      <trkpt lat="48.43589" lon="4.7979">
        <ele>137.2</ele>
        <time>2023-09-09T09:05:16Z</time>
      </trkpt>
      <trkpt lat="48.43593" lon="4.79813">
        <ele>137.5</ele>
        <time>2023-09-09T09:05:22Z</time>
      </trkpt>
      <trkpt lat="48.43591" lon="4.79852">
        <ele>138</ele>
        <time>2023-09-09T09:05:27Z</time>
      </trkpt>
      <trkpt lat="48.43591" lon="4.79855">
        <ele>138</ele>
        <time>2023-09-09T09:05:28Z</time>
      </trkpt>
      <trkpt lat="48.4359" lon="4.79859">
        <ele>138.1</ele>
        <time>2023-09-09T09:05:29Z</time>
      </trkpt>
      <trkpt lat="48.43586" lon="4.79879">
        <ele>138.5</ele>
        <time>2023-09-09T09:05:32Z</time>
      </trkpt>
      <trkpt lat="48.43575" lon="4.79938">
        <ele>140</ele>
        <time>2023-09-09T09:05:40Z</time>
      </trkpt>
      <trkpt lat="48.43571" lon="4.7996">
        <ele>140.6</ele>
        <time>2023-09-09T09:05:43Z</time>
      </trkpt>
      <trkpt lat="48.43567" lon="4.7998">
        <ele>141.2</ele>
        <time>2023-09-09T09:05:46Z</time>
      </trkpt>
      <trkpt lat="48.43563" lon="4.80012">
        <ele>141.8</ele>
        <time>2023-09-09T09:05:52Z</time>
      </trkpt>
      <trkpt lat="48.43563" lon="4.80017">
        <ele>141.9</ele>
        <time>2023-09-09T09:05:53Z</time>
      </trkpt>
      <trkpt lat="48.43568" lon="4.80056">
        <ele>142.5</ele>
        <time>2023-09-09T09:05:58Z</time>
      </trkpt>
      <trkpt lat="48.4357" lon="4.80063">
        <ele>142.6</ele>
        <time>2023-09-09T09:06:00Z</time>
      </trkpt>
      <trkpt lat="48.43582" lon="4.80085">
        <ele>142.8</ele>
        <time>2023-09-09T09:06:04Z</time>
      </trkpt>
      <trkpt lat="48.43588" lon="4.80095">
        <ele>143</ele>
        <time>2023-09-09T09:06:06Z</time>
      </trkpt>
      <trkpt lat="48.43602" lon="4.80106">
        <ele>142.9</ele>
        <time>2023-09-09T09:06:10Z</time>
      </trkpt>
      <trkpt lat="48.43632" lon="4.80121">
        <ele>142.6</ele>
        <time>2023-09-09T09:06:16Z</time>
      </trkpt>
      <trkpt lat="48.43681" lon="4.80146">
        <ele>142.4</ele>
        <time>2023-09-09T09:06:25Z</time>
      </trkpt>
      <trkpt lat="48.43698" lon="4.80155">
        <ele>142.4</ele>
        <time>2023-09-09T09:06:28Z</time>
      </trkpt>
      <trkpt lat="48.43721" lon="4.80162">
        <ele>142.3</ele>
        <time>2023-09-09T09:06:31Z</time>
      </trkpt>
      <trkpt lat="48.43754" lon="4.80171">
        <ele>142.2</ele>
        <time>2023-09-09T09:06:38Z</time>
      </trkpt>
      <trkpt lat="48.43791" lon="4.80181">
        <ele>142.1</ele>
        <time>2023-09-09T09:06:44Z</time>
      </trkpt>
      <trkpt lat="48.43821" lon="4.8019">
        <ele>142.1</ele>
        <time>2023-09-09T09:06:49Z</time>
      </trkpt>
      <trkpt lat="48.43853" lon="4.80199">
        <ele>142.1</ele>
        <time>2023-09-09T09:06:55Z</time>
      </trkpt>
      <trkpt lat="48.43858" lon="4.802">
        <ele>142.1</ele>
        <time>2023-09-09T09:06:56Z</time>
      </trkpt>
      <trkpt lat="48.43882" lon="4.80207">
        <ele>142.3</ele>
        <time>2023-09-09T09:07:01Z</time>
      </trkpt>
      <trkpt lat="48.43887" lon="4.80208">
        <ele>142.4</ele>
        <time>2023-09-09T09:07:02Z</time>
      </trkpt>
      <trkpt lat="48.43898" lon="4.80218">
        <ele>142.5</ele>
        <time>2023-09-09T09:07:04Z</time>
      </trkpt>
      <trkpt lat="48.43897" lon="4.80225">
        <ele>142.5</ele>
        <time>2023-09-09T09:07:06Z</time>
      </trkpt>
      <trkpt lat="48.43896" lon="4.80231">
        <ele>142.5</ele>
        <time>2023-09-09T09:07:07Z</time>
      </trkpt>
      <trkpt lat="48.43891" lon="4.80278">
        <ele>142.3</ele>
        <time>2023-09-09T09:07:13Z</time>
      </trkpt>
      <trkpt lat="48.43885" lon="4.80334">
        <ele>142.2</ele>
        <time>2023-09-09T09:07:19Z</time>
      </trkpt>
      <trkpt lat="48.43877" lon="4.80417">
        <ele>142.2</ele>
        <time>2023-09-09T09:07:27Z</time>
      </trkpt>
      <trkpt lat="48.43871" lon="4.80496">
        <ele>142.2</ele>
        <time>2023-09-09T09:07:35Z</time>
      </trkpt>
      <trkpt lat="48.43865" lon="4.80566">
        <ele>142.6</ele>
        <time>2023-09-09T09:07:42Z</time>
      </trkpt>
      <trkpt lat="48.4386" lon="4.80608">
        <ele>142.8</ele>
        <time>2023-09-09T09:07:47Z</time>
      </trkpt>
      <trkpt lat="48.43856" lon="4.80625">
        <ele>142.8</ele>
        <time>2023-09-09T09:07:49Z</time>
      </trkpt>
      <trkpt lat="48.43845" lon="4.80667">
        <ele>142.9</ele>
        <time>2023-09-09T09:07:54Z</time>
      </trkpt>
      <trkpt lat="48.43841" lon="4.80676">
        <ele>142.9</ele>
        <time>2023-09-09T09:07:55Z</time>
      </trkpt>
      <trkpt lat="48.4381" lon="4.80733">
        <ele>143.1</ele>
        <time>2023-09-09T09:08:02Z</time>
      </trkpt>
      <trkpt lat="48.43772" lon="4.8077">
        <ele>143.2</ele>
        <time>2023-09-09T09:08:08Z</time>
      </trkpt>
      <trkpt lat="48.43727" lon="4.808">
        <ele>143.3</ele>
        <time>2023-09-09T09:08:15Z</time>
      </trkpt>
      <trkpt lat="48.43685" lon="4.80828">
        <ele>143.6</ele>
        <time>2023-09-09T09:08:22Z</time>
      </trkpt>
      <trkpt lat="48.43639" lon="4.80852">
        <ele>143.9</ele>
        <time>2023-09-09T09:08:29Z</time>
      </trkpt>
      <trkpt lat="48.43592" lon="4.80873">
        <ele>144.4</ele>
        <time>2023-09-09T09:08:37Z</time>
      </trkpt>
      <trkpt lat="48.43542" lon="4.8089">
        <ele>145.2</ele>
        <time>2023-09-09T09:08:45Z</time>
      </trkpt>
      <trkpt lat="48.435" lon="4.80903">
        <ele>146.4</ele>
        <time>2023-09-09T09:08:52Z</time>
      </trkpt>
      <trkpt lat="48.43459" lon="4.8091">
        <ele>147.8</ele>
        <time>2023-09-09T09:08:59Z</time>
      </trkpt>
      <trkpt lat="48.43413" lon="4.80918">
        <ele>149.3</ele>
        <time>2023-09-09T09:09:07Z</time>
      </trkpt>
      <trkpt lat="48.43373" lon="4.80928">
        <ele>150.2</ele>
        <time>2023-09-09T09:09:14Z</time>
      </trkpt>
      <trkpt lat="48.43341" lon="4.8095">
        <ele>150.6</ele>
        <time>2023-09-09T09:09:20Z</time>
      </trkpt>
      <trkpt lat="48.43311" lon="4.80974">
        <ele>150.8</ele>
        <time>2023-09-09T09:09:26Z</time>
      </trkpt>
      <trkpt lat="48.43283" lon="4.81009">
        <ele>150.8</ele>
        <time>2023-09-09T09:09:32Z</time>
      </trkpt>
      <trkpt lat="48.43246" lon="4.81062">
        <ele>149.9</ele>
        <time>2023-09-09T09:09:40Z</time>
      </trkpt>
      <trkpt lat="48.43219" lon="4.81101">
        <ele>149.1</ele>
        <time>2023-09-09T09:09:46Z</time>
      </trkpt>
      <trkpt lat="48.43178" lon="4.81159">
        <ele>148.2</ele>
        <time>2023-09-09T09:09:54Z</time>
      </trkpt>
      <trkpt lat="48.43134" lon="4.81221">
        <ele>147.5</ele>
        <time>2023-09-09T09:10:02Z</time>
      </trkpt>
      <trkpt lat="48.43093" lon="4.8128">
        <ele>146.9</ele>
        <time>2023-09-09T09:10:09Z</time>
      </trkpt>
      <trkpt lat="48.43076" lon="4.81304">
        <ele>146.7</ele>
        <time>2023-09-09T09:10:11Z</time>
      </trkpt>
      <trkpt lat="48.43038" lon="4.8136">
        <ele>146.1</ele>
        <time>2023-09-09T09:10:19Z</time>
      </trkpt>
      <trkpt lat="48.42997" lon="4.81418">
        <ele>145.7</ele>
        <time>2023-09-09T09:10:26Z</time>
      </trkpt>
      <trkpt lat="48.42991" lon="4.81426">
        <ele>145.7</ele>
        <time>2023-09-09T09:10:27Z</time>
      </trkpt>
      <trkpt lat="48.42953" lon="4.8148">
        <ele>145.3</ele>
        <time>2023-09-09T09:10:34Z</time>
      </trkpt>
      <trkpt lat="48.42912" lon="4.81535">
        <ele>145.2</ele>
        <time>2023-09-09T09:10:41Z</time>
      </trkpt>
      <trkpt lat="48.42866" lon="4.81582">
        <ele>145.7</ele>
        <time>2023-09-09T09:10:49Z</time>
      </trkpt>
      <trkpt lat="48.42819" lon="4.8163">
        <ele>146.2</ele>
        <time>2023-09-09T09:10:57Z</time>
      </trkpt>
      <trkpt lat="48.42813" lon="4.81635">
        <ele>146.2</ele>
        <time>2023-09-09T09:10:58Z</time>
      </trkpt>
      <trkpt lat="48.42771" lon="4.81671">
        <ele>146.1</ele>
        <time>2023-09-09T09:11:05Z</time>
      </trkpt>
      <trkpt lat="48.42723" lon="4.81711">
        <ele>145.8</ele>
        <time>2023-09-09T09:11:13Z</time>
      </trkpt>
      <trkpt lat="48.42681" lon="4.81738">
        <ele>145.3</ele>
        <time>2023-09-09T09:11:20Z</time>
      </trkpt>
      <trkpt lat="48.42638" lon="4.81752">
        <ele>144.6</ele>
        <time>2023-09-09T09:11:26Z</time>
      </trkpt>
      <trkpt lat="48.42591" lon="4.81754">
        <ele>144</ele>
        <time>2023-09-09T09:11:32Z</time>
      </trkpt>
      <trkpt lat="48.4253" lon="4.81747">
        <ele>144.2</ele>
        <time>2023-09-09T09:11:39Z</time>
      </trkpt>
      <trkpt lat="48.42491" lon="4.81746">
        <ele>144.3</ele>
        <time>2023-09-09T09:11:46Z</time>
      </trkpt>
      <trkpt lat="48.42444" lon="4.81761">
        <ele>144.3</ele>
        <time>2023-09-09T09:11:53Z</time>
      </trkpt>
      <trkpt lat="48.42404" lon="4.81784">
        <ele>144.4</ele>
        <time>2023-09-09T09:11:59Z</time>
      </trkpt>
      <trkpt lat="48.42364" lon="4.81818">
        <ele>144.4</ele>
        <time>2023-09-09T09:12:06Z</time>
      </trkpt>
      <trkpt lat="48.42318" lon="4.81853">
        <ele>144.5</ele>
        <time>2023-09-09T09:12:14Z</time>
      </trkpt>
      <trkpt lat="48.42285" lon="4.81871">
        <ele>144.6</ele>
        <time>2023-09-09T09:12:20Z</time>
      </trkpt>
      <trkpt lat="48.42244" lon="4.81885">
        <ele>144.6</ele>
        <time>2023-09-09T09:12:27Z</time>
      </trkpt>
      <trkpt lat="48.42207" lon="4.81884">
        <ele>144.7</ele>
        <time>2023-09-09T09:12:33Z</time>
      </trkpt>
      <trkpt lat="48.42163" lon="4.81882">
        <ele>144.7</ele>
        <time>2023-09-09T09:12:40Z</time>
      </trkpt>
      <trkpt lat="48.42129" lon="4.81886">
        <ele>144.7</ele>
        <time>2023-09-09T09:12:46Z</time>
      </trkpt>
      <trkpt lat="48.42088" lon="4.81893">
        <ele>144.8</ele>
        <time>2023-09-09T09:12:53Z</time>
      </trkpt>
      <trkpt lat="48.42056" lon="4.81899">
        <ele>144.8</ele>
        <time>2023-09-09T09:12:59Z</time>
      </trkpt>
      <trkpt lat="48.42039" lon="4.81887">
        <ele>145.2</ele>
        <time>2023-09-09T09:13:03Z</time>
      </trkpt>
      <trkpt lat="48.42035" lon="4.81884">
        <ele>145.3</ele>
        <time>2023-09-09T09:13:04Z</time>
      </trkpt>
      <trkpt lat="48.42027" lon="4.81878">
        <ele>145.5</ele>
        <time>2023-09-09T09:13:06Z</time>
      </trkpt>
      <trkpt lat="48.4202" lon="4.81869">
        <ele>145.7</ele>
        <time>2023-09-09T09:13:07Z</time>
      </trkpt>
      <trkpt lat="48.42014" lon="4.81858">
        <ele>145.7</ele>
        <time>2023-09-09T09:13:10Z</time>
      </trkpt>
      <trkpt lat="48.42008" lon="4.81847">
        <ele>145.7</ele>
        <time>2023-09-09T09:13:12Z</time>
      </trkpt>
      <trkpt lat="48.41979" lon="4.81793">
        <ele>146.4</ele>
        <time>2023-09-09T09:13:20Z</time>
      </trkpt>
      <trkpt lat="48.41962" lon="4.81761">
        <ele>147.2</ele>
        <time>2023-09-09T09:13:26Z</time>
      </trkpt>
      <trkpt lat="48.41954" lon="4.81746">
        <ele>147.6</ele>
        <time>2023-09-09T09:13:30Z</time>
      </trkpt>
      <trkpt lat="48.4195" lon="4.81738">
        <ele>147.8</ele>
        <time>2023-09-09T09:13:34Z</time>
      </trkpt>
      <trkpt lat="48.41944" lon="4.81729">
        <ele>148.2</ele>
        <time>2023-09-09T09:18:32Z</time>
      </trkpt>
      <trkpt lat="48.41954" lon="4.81745">
        <ele>147.6</ele>
        <time>2023-09-09T09:18:34Z</time>
      </trkpt>
      <trkpt lat="48.41967" lon="4.8177">
        <ele>147</ele>
        <time>2023-09-09T09:18:39Z</time>
      </trkpt>
      <trkpt lat="48.41981" lon="4.81797">
        <ele>146.4</ele>
        <time>2023-09-09T09:18:44Z</time>
      </trkpt>
      <trkpt lat="48.41993" lon="4.81819">
        <ele>146</ele>
        <time>2023-09-09T09:18:50Z</time>
      </trkpt>
      <trkpt lat="48.42003" lon="4.81838">
        <ele>145.8</ele>
        <time>2023-09-09T09:18:55Z</time>
      </trkpt>
      <trkpt lat="48.42012" lon="4.81856">
        <ele>145.7</ele>
        <time>2023-09-09T09:19:01Z</time>
      </trkpt>
      <trkpt lat="48.42022" lon="4.81875">
        <ele>145.6</ele>
        <time>2023-09-09T09:19:07Z</time>
      </trkpt>
      <trkpt lat="48.4202" lon="4.81882">
        <ele>145.5</ele>
        <time>2023-09-09T09:19:09Z</time>
      </trkpt>
      <trkpt lat="48.42017" lon="4.81891">
        <ele>145.3</ele>
        <time>2023-09-09T09:19:12Z</time>
      </trkpt>
      <trkpt lat="48.42012" lon="4.81907">
        <ele>145.1</ele>
        <time>2023-09-09T09:19:17Z</time>
      </trkpt>
      <trkpt lat="48.42007" lon="4.81932">
        <ele>144.9</ele>
        <time>2023-09-09T09:19:23Z</time>
      </trkpt>
      <trkpt lat="48.41992" lon="4.81962">
        <ele>144.9</ele>
        <time>2023-09-09T09:19:31Z</time>
      </trkpt>
      <trkpt lat="48.41979" lon="4.81989">
        <ele>144.8</ele>
        <time>2023-09-09T09:19:39Z</time>
      </trkpt>
      <trkpt lat="48.4197" lon="4.82007">
        <ele>144.9</ele>
        <time>2023-09-09T09:19:44Z</time>
      </trkpt>
      <trkpt lat="48.41964" lon="4.8202">
        <ele>144.9</ele>
        <time>2023-09-09T09:19:47Z</time>
      </trkpt>
      <trkpt lat="48.41956" lon="4.82035">
        <ele>144.9</ele>
        <time>2023-09-09T09:19:50Z</time>
      </trkpt>
      <trkpt lat="48.41936" lon="4.82069">
        <ele>144.9</ele>
        <time>2023-09-09T09:19:56Z</time>
      </trkpt>
      <trkpt lat="48.41929" lon="4.82081">
        <ele>144.9</ele>
        <time>2023-09-09T09:19:58Z</time>
      </trkpt>
      <trkpt lat="48.41915" lon="4.82105">
        <ele>144.9</ele>
        <time>2023-09-09T09:20:02Z</time>
      </trkpt>
      <trkpt lat="48.41895" lon="4.82156">
        <ele>144.9</ele>
        <time>2023-09-09T09:20:09Z</time>
      </trkpt>
      <trkpt lat="48.4187" lon="4.82224">
        <ele>144.8</ele>
        <time>2023-09-09T09:20:17Z</time>
      </trkpt>
      <trkpt lat="48.41853" lon="4.82269">
        <ele>144.9</ele>
        <time>2023-09-09T09:20:22Z</time>
      </trkpt>
      <trkpt lat="48.4185" lon="4.82277">
        <ele>144.9</ele>
        <time>2023-09-09T09:20:23Z</time>
      </trkpt>
      <trkpt lat="48.41831" lon="4.82324">
        <ele>144.8</ele>
        <time>2023-09-09T09:20:29Z</time>
      </trkpt>
      <trkpt lat="48.41804" lon="4.82374">
        <ele>145.1</ele>
        <time>2023-09-09T09:20:36Z</time>
      </trkpt>
      <trkpt lat="48.41774" lon="4.82428">
        <ele>145.7</ele>
        <time>2023-09-09T09:20:44Z</time>
      </trkpt>
      <trkpt lat="48.41749" lon="4.82475">
        <ele>146.3</ele>
        <time>2023-09-09T09:20:51Z</time>
      </trkpt>
      <trkpt lat="48.41724" lon="4.82525">
        <ele>146.5</ele>
        <time>2023-09-09T09:20:58Z</time>
      </trkpt>
      <trkpt lat="48.41689" lon="4.82596">
        <ele>146.7</ele>
        <time>2023-09-09T09:21:07Z</time>
      </trkpt>
      <trkpt lat="48.41658" lon="4.82658">
        <ele>146.6</ele>
        <time>2023-09-09T09:21:15Z</time>
      </trkpt>
      <trkpt lat="48.41622" lon="4.82727">
        <ele>146</ele>
        <time>2023-09-09T09:21:24Z</time>
      </trkpt>
      <trkpt lat="48.41589" lon="4.82793">
        <ele>145.5</ele>
        <time>2023-09-09T09:21:32Z</time>
      </trkpt>
      <trkpt lat="48.41552" lon="4.82864">
        <ele>145.2</ele>
        <time>2023-09-09T09:21:41Z</time>
      </trkpt>
      <trkpt lat="48.41519" lon="4.82929">
        <ele>145</ele>
        <time>2023-09-09T09:21:49Z</time>
      </trkpt>
      <trkpt lat="48.41515" lon="4.82936">
        <ele>144.9</ele>
        <time>2023-09-09T09:21:50Z</time>
      </trkpt>
      <trkpt lat="48.41481" lon="4.83003">
        <ele>144.8</ele>
        <time>2023-09-09T09:21:58Z</time>
      </trkpt>
      <trkpt lat="48.41472" lon="4.83021">
        <ele>144.9</ele>
        <time>2023-09-09T09:22:00Z</time>
      </trkpt>
      <trkpt lat="48.41436" lon="4.83091">
        <ele>145.4</ele>
        <time>2023-09-09T09:22:08Z</time>
      </trkpt>
      <trkpt lat="48.41427" lon="4.83107">
        <ele>145.4</ele>
        <time>2023-09-09T09:22:10Z</time>
      </trkpt>
      <trkpt lat="48.4139" lon="4.83179">
        <ele>146.1</ele>
        <time>2023-09-09T09:22:19Z</time>
      </trkpt>
      <trkpt lat="48.41386" lon="4.83187">
        <ele>146.3</ele>
        <time>2023-09-09T09:22:20Z</time>
      </trkpt>
      <trkpt lat="48.41352" lon="4.83254">
        <ele>147.5</ele>
        <time>2023-09-09T09:22:29Z</time>
      </trkpt>
      <trkpt lat="48.41318" lon="4.8332">
        <ele>148.8</ele>
        <time>2023-09-09T09:22:38Z</time>
      </trkpt>
      <trkpt lat="48.41285" lon="4.83385">
        <ele>149.5</ele>
        <time>2023-09-09T09:22:47Z</time>
      </trkpt>
      <trkpt lat="48.41281" lon="4.83391">
        <ele>149.6</ele>
        <time>2023-09-09T09:22:48Z</time>
      </trkpt>
      <trkpt lat="48.41252" lon="4.83449">
        <ele>149.7</ele>
        <time>2023-09-09T09:22:56Z</time>
      </trkpt>
      <trkpt lat="48.41222" lon="4.83507">
        <ele>149.3</ele>
        <time>2023-09-09T09:23:04Z</time>
      </trkpt>
      <trkpt lat="48.41188" lon="4.83572">
        <ele>149.2</ele>
        <time>2023-09-09T09:23:13Z</time>
      </trkpt>
      <trkpt lat="48.41154" lon="4.83634">
        <ele>148.7</ele>
        <time>2023-09-09T09:23:22Z</time>
      </trkpt>
      <trkpt lat="48.41118" lon="4.83692">
        <ele>147.5</ele>
        <time>2023-09-09T09:23:30Z</time>
      </trkpt>
      <trkpt lat="48.41092" lon="4.83733">
        <ele>147.2</ele>
        <time>2023-09-09T09:23:36Z</time>
      </trkpt>
      <trkpt lat="48.41081" lon="4.83777">
        <ele>147.1</ele>
        <time>2023-09-09T09:23:41Z</time>
      </trkpt>
      <trkpt lat="48.41076" lon="4.83808">
        <ele>146.7</ele>
        <time>2023-09-09T09:23:46Z</time>
      </trkpt>
      <trkpt lat="48.41064" lon="4.83869">
        <ele>146.6</ele>
        <time>2023-09-09T09:23:52Z</time>
      </trkpt>
      <trkpt lat="48.41059" lon="4.83914">
        <ele>146.8</ele>
        <time>2023-09-09T09:23:59Z</time>
      </trkpt>
      <trkpt lat="48.41059" lon="4.83921">
        <ele>146.8</ele>
        <time>2023-09-09T09:24:00Z</time>
      </trkpt>
      <trkpt lat="48.4106" lon="4.83931">
        <ele>146.9</ele>
        <time>2023-09-09T09:24:02Z</time>
      </trkpt>
      <trkpt lat="48.41063" lon="4.83945">
        <ele>147.1</ele>
        <time>2023-09-09T09:24:03Z</time>
      </trkpt>
      <trkpt lat="48.41063" lon="4.83945">
        <ele>147.1</ele>
        <time>2023-09-09T09:24:04Z</time>
      </trkpt>
      <trkpt lat="48.41069" lon="4.83966">
        <ele>147.3</ele>
        <time>2023-09-09T09:24:07Z</time>
      </trkpt>
      <trkpt lat="48.41076" lon="4.83995">
        <ele>147.7</ele>
        <time>2023-09-09T09:24:12Z</time>
      </trkpt>
      <trkpt lat="48.41081" lon="4.84016">
        <ele>148</ele>
        <time>2023-09-09T09:24:18Z</time>
      </trkpt>
      <trkpt lat="48.41087" lon="4.84037">
        <ele>148.4</ele>
        <time>2023-09-09T09:24:23Z</time>
      </trkpt>
      <trkpt lat="48.41097" lon="4.84052">
        <ele>148.7</ele>
        <time>2023-09-09T09:24:28Z</time>
      </trkpt>
      <trkpt lat="48.41117" lon="4.8408">
        <ele>149.6</ele>
        <time>2023-09-09T09:24:36Z</time>
      </trkpt>
      <trkpt lat="48.41128" lon="4.84077">
        <ele>149.6</ele>
        <time>2023-09-09T09:24:40Z</time>
      </trkpt>
      <trkpt lat="48.41146" lon="4.84073">
        <ele>149.5</ele>
        <time>2023-09-09T09:24:46Z</time>
      </trkpt>
      <trkpt lat="48.41153" lon="4.84072">
        <ele>149.4</ele>
        <time>2023-09-09T09:24:47Z</time>
      </trkpt>
      <trkpt lat="48.41161" lon="4.8407">
        <ele>149.2</ele>
        <time>2023-09-09T09:24:50Z</time>
      </trkpt>
      <trkpt lat="48.41185" lon="4.84063">
        <ele>147.9</ele>
        <time>2023-09-09T09:24:56Z</time>
      </trkpt>
      <trkpt lat="48.41185" lon="4.8407">
        <ele>148</ele>
        <time>2023-09-09T09:25:00Z</time>
      </trkpt>
      <trkpt lat="48.41179" lon="4.84079">
        <ele>148.6</ele>
        <time>2023-09-09T09:25:01Z</time>
      </trkpt>
      <trkpt lat="48.41173" lon="4.84089">
        <ele>148.9</ele>
        <time>2023-09-09T09:30:03Z</time>
      </trkpt>
      <trkpt lat="48.41167" lon="4.84099">
        <ele>149.1</ele>
        <time>2023-09-09T09:30:06Z</time>
      </trkpt>
      <trkpt lat="48.41161" lon="4.84108">
        <ele>149.3</ele>
        <time>2023-09-09T09:30:09Z</time>
      </trkpt>
      <trkpt lat="48.41155" lon="4.84118">
        <ele>149.4</ele>
        <time>2023-09-09T09:35:32Z</time>
      </trkpt>
      <trkpt lat="48.41149" lon="4.84127">
        <ele>149.5</ele>
        <time>2023-09-09T09:35:33Z</time>
      </trkpt>
      <trkpt lat="48.41137" lon="4.84117">
        <ele>149.6</ele>
        <time>2023-09-09T09:35:38Z</time>
      </trkpt>
      <trkpt lat="48.41123" lon="4.84105">
        <ele>149.7</ele>
        <time>2023-09-09T09:35:42Z</time>
      </trkpt>
      <trkpt lat="48.4112" lon="4.84102">
        <ele>149.8</ele>
        <time>2023-09-09T09:35:43Z</time>
      </trkpt>
      <trkpt lat="48.41111" lon="4.84103">
        <ele>150</ele>
        <time>2023-09-09T09:35:47Z</time>
      </trkpt>
      <trkpt lat="48.41099" lon="4.84132">
        <ele>150.5</ele>
        <time>2023-09-09T09:35:54Z</time>
      </trkpt>
      <trkpt lat="48.41086" lon="4.84168">
        <ele>151.4</ele>
        <time>2023-09-09T09:36:02Z</time>
      </trkpt>
      <trkpt lat="48.41077" lon="4.84198">
        <ele>152.3</ele>
        <time>2023-09-09T09:36:09Z</time>
      </trkpt>
      <trkpt lat="48.41064" lon="4.84246">
        <ele>153.4</ele>
        <time>2023-09-09T09:36:18Z</time>
      </trkpt>
      <trkpt lat="48.41057" lon="4.84274">
        <ele>153.8</ele>
        <time>2023-09-09T09:36:23Z</time>
      </trkpt>
      <trkpt lat="48.41047" lon="4.84325">
        <ele>154.4</ele>
        <time>2023-09-09T09:36:31Z</time>
      </trkpt>
      <trkpt lat="48.41038" lon="4.84367">
        <ele>154.4</ele>
        <time>2023-09-09T09:36:38Z</time>
      </trkpt>
      <trkpt lat="48.41025" lon="4.84413">
        <ele>154.3</ele>
        <time>2023-09-09T09:36:45Z</time>
      </trkpt>
      <trkpt lat="48.41012" lon="4.84466">
        <ele>153.4</ele>
        <time>2023-09-09T09:36:52Z</time>
      </trkpt>
      <trkpt lat="48.40996" lon="4.84532">
        <ele>151.4</ele>
        <time>2023-09-09T09:36:59Z</time>
      </trkpt>
      <trkpt lat="48.40989" lon="4.84557">
        <ele>150.9</ele>
        <time>2023-09-09T09:37:02Z</time>
      </trkpt>
      <trkpt lat="48.40983" lon="4.84573">
        <ele>150.6</ele>
        <time>2023-09-09T09:37:04Z</time>
      </trkpt>
      <trkpt lat="48.40967" lon="4.84583">
        <ele>150.3</ele>
        <time>2023-09-09T09:37:06Z</time>
      </trkpt>
      <trkpt lat="48.40961" lon="4.84583">
        <ele>150.3</ele>
        <time>2023-09-09T09:37:08Z</time>
      </trkpt>
      <trkpt lat="48.40926" lon="4.84585">
        <ele>149.9</ele>
        <time>2023-09-09T09:37:14Z</time>
      </trkpt>
      <trkpt lat="48.40914" lon="4.84582">
        <ele>150</ele>
        <time>2023-09-09T09:37:16Z</time>
      </trkpt>
      <trkpt lat="48.40894" lon="4.8457">
        <ele>150.3</ele>
        <time>2023-09-09T09:37:20Z</time>
      </trkpt>
      <trkpt lat="48.4086" lon="4.84551">
        <ele>150.1</ele>
        <time>2023-09-09T09:37:26Z</time>
      </trkpt>
      <trkpt lat="48.40813" lon="4.84527">
        <ele>150.3</ele>
        <time>2023-09-09T09:37:34Z</time>
      </trkpt>
      <trkpt lat="48.40762" lon="4.84505">
        <ele>151.1</ele>
        <time>2023-09-09T09:37:42Z</time>
      </trkpt>
      <trkpt lat="48.40724" lon="4.8449">
        <ele>152.8</ele>
        <time>2023-09-09T09:37:48Z</time>
      </trkpt>
      <trkpt lat="48.40719" lon="4.84488">
        <ele>153.2</ele>
        <time>2023-09-09T09:37:49Z</time>
      </trkpt>
      <trkpt lat="48.40712" lon="4.84488">
        <ele>153.7</ele>
        <time>2023-09-09T09:37:50Z</time>
      </trkpt>
      <trkpt lat="48.40702" lon="4.84493">
        <ele>154.5</ele>
        <time>2023-09-09T09:37:52Z</time>
      </trkpt>
      <trkpt lat="48.40697" lon="4.84497">
        <ele>154.9</ele>
        <time>2023-09-09T09:37:53Z</time>
      </trkpt>
      <trkpt lat="48.40685" lon="4.84511">
        <ele>156</ele>
        <time>2023-09-09T09:37:56Z</time>
      </trkpt>
      <trkpt lat="48.40678" lon="4.84519">
        <ele>156.8</ele>
        <time>2023-09-09T09:37:58Z</time>
      </trkpt>
      <trkpt lat="48.40658" lon="4.84541">
        <ele>159</ele>
        <time>2023-09-09T09:38:05Z</time>
      </trkpt>
      <trkpt lat="48.4064" lon="4.84548">
        <ele>160.5</ele>
        <time>2023-09-09T09:38:11Z</time>
      </trkpt>
      <trkpt lat="48.40617" lon="4.84548">
        <ele>162.3</ele>
        <time>2023-09-09T09:38:19Z</time>
      </trkpt>
      <trkpt lat="48.40592" lon="4.84547">
        <ele>164</ele>
        <time>2023-09-09T09:38:28Z</time>
      </trkpt>
      <trkpt lat="48.40576" lon="4.84547">
        <ele>165</ele>
        <time>2023-09-09T09:38:34Z</time>
      </trkpt>
      <trkpt lat="48.40553" lon="4.84553">
        <ele>166.1</ele>
        <time>2023-09-09T09:38:42Z</time>
      </trkpt>
      <trkpt lat="48.40517" lon="4.84563">
        <ele>167.3</ele>
        <time>2023-09-09T09:38:52Z</time>
      </trkpt>
      <trkpt lat="48.40495" lon="4.84569">
        <ele>167.8</ele>
        <time>2023-09-09T09:38:59Z</time>
      </trkpt>
      <trkpt lat="48.40462" lon="4.84578">
        <ele>168.6</ele>
        <time>2023-09-09T09:39:07Z</time>
      </trkpt>
      <trkpt lat="48.40424" lon="4.84593">
        <ele>169.6</ele>
        <time>2023-09-09T09:39:16Z</time>
      </trkpt>
      <trkpt lat="48.4039" lon="4.84607">
        <ele>170.5</ele>
        <time>2023-09-09T09:39:24Z</time>
      </trkpt>
      <trkpt lat="48.4035" lon="4.84625">
        <ele>171.6</ele>
        <time>2023-09-09T09:39:34Z</time>
      </trkpt>
      <trkpt lat="48.4031" lon="4.84642">
        <ele>172.9</ele>
        <time>2023-09-09T09:39:44Z</time>
      </trkpt>
      <trkpt lat="48.40281" lon="4.84647">
        <ele>173.9</ele>
        <time>2023-09-09T09:39:51Z</time>
      </trkpt>
      <trkpt lat="48.40276" lon="4.84646">
        <ele>174.1</ele>
        <time>2023-09-09T09:39:52Z</time>
      </trkpt>
      <trkpt lat="48.40255" lon="4.84636">
        <ele>174.7</ele>
        <time>2023-09-09T09:39:58Z</time>
      </trkpt>
      <trkpt lat="48.40226" lon="4.84624">
        <ele>175.3</ele>
        <time>2023-09-09T09:40:05Z</time>
      </trkpt>
      <trkpt lat="48.40196" lon="4.8461">
        <ele>175.9</ele>
        <time>2023-09-09T09:40:12Z</time>
      </trkpt>
      <trkpt lat="48.40156" lon="4.84593">
        <ele>176.3</ele>
        <time>2023-09-09T09:40:21Z</time>
      </trkpt>
      <trkpt lat="48.40119" lon="4.84577">
        <ele>176.5</ele>
        <time>2023-09-09T09:40:29Z</time>
      </trkpt>
      <trkpt lat="48.40081" lon="4.84554">
        <ele>176.7</ele>
        <time>2023-09-09T09:40:37Z</time>
      </trkpt>
      <trkpt lat="48.40041" lon="4.8453">
        <ele>176.9</ele>
        <time>2023-09-09T09:40:45Z</time>
      </trkpt>
      <trkpt lat="48.40005" lon="4.84509">
        <ele>176.9</ele>
        <time>2023-09-09T09:40:52Z</time>
      </trkpt>
      <trkpt lat="48.39969" lon="4.84497">
        <ele>177.4</ele>
        <time>2023-09-09T09:40:59Z</time>
      </trkpt>
      <trkpt lat="48.3992" lon="4.84486">
        <ele>178.4</ele>
        <time>2023-09-09T09:41:08Z</time>
      </trkpt>
      <trkpt lat="48.39872" lon="4.84474">
        <ele>179.8</ele>
        <time>2023-09-09T09:41:17Z</time>
      </trkpt>
      <trkpt lat="48.39832" lon="4.84461">
        <ele>180.7</ele>
        <time>2023-09-09T09:41:25Z</time>
      </trkpt>
      <trkpt lat="48.39798" lon="4.8445">
        <ele>181.1</ele>
        <time>2023-09-09T09:41:32Z</time>
      </trkpt>
      <trkpt lat="48.3976" lon="4.84438">
        <ele>180.9</ele>
        <time>2023-09-09T09:41:39Z</time>
      </trkpt>
      <trkpt lat="48.39714" lon="4.84425">
        <ele>181.1</ele>
        <time>2023-09-09T09:41:47Z</time>
      </trkpt>
      <trkpt lat="48.39679" lon="4.84416">
        <ele>181.4</ele>
        <time>2023-09-09T09:41:53Z</time>
      </trkpt>
      <trkpt lat="48.39641" lon="4.84406">
        <ele>182.2</ele>
        <time>2023-09-09T09:42:00Z</time>
      </trkpt>
      <trkpt lat="48.39604" lon="4.84396">
        <ele>183</ele>
        <time>2023-09-09T09:42:07Z</time>
      </trkpt>
      <trkpt lat="48.39563" lon="4.84385">
        <ele>183.6</ele>
        <time>2023-09-09T09:42:15Z</time>
      </trkpt>
      <trkpt lat="48.39537" lon="4.84379">
        <ele>184</ele>
        <time>2023-09-09T09:42:22Z</time>
      </trkpt>
      <trkpt lat="48.39514" lon="4.84381">
        <ele>183.8</ele>
        <time>2023-09-09T09:42:28Z</time>
      </trkpt>
      <trkpt lat="48.3951" lon="4.84382">
        <ele>183.6</ele>
        <time>2023-09-09T09:42:29Z</time>
      </trkpt>
      <trkpt lat="48.39491" lon="4.84383">
        <ele>183.2</ele>
        <time>2023-09-09T09:42:33Z</time>
      </trkpt>
      <trkpt lat="48.39485" lon="4.84386">
        <ele>183.1</ele>
        <time>2023-09-09T09:42:34Z</time>
      </trkpt>
      <trkpt lat="48.39455" lon="4.84414">
        <ele>181.4</ele>
        <time>2023-09-09T09:42:40Z</time>
      </trkpt>
      <trkpt lat="48.39421" lon="4.84439">
        <ele>179.7</ele>
        <time>2023-09-09T09:42:45Z</time>
      </trkpt>
      <trkpt lat="48.39399" lon="4.84452">
        <ele>179.2</ele>
        <time>2023-09-09T09:42:48Z</time>
      </trkpt>
      <trkpt lat="48.39392" lon="4.84454">
        <ele>179.1</ele>
        <time>2023-09-09T09:42:49Z</time>
      </trkpt>
      <trkpt lat="48.39351" lon="4.84454">
        <ele>179.5</ele>
        <time>2023-09-09T09:42:55Z</time>
      </trkpt>
      <trkpt lat="48.39322" lon="4.84454">
        <ele>180.6</ele>
        <time>2023-09-09T09:43:00Z</time>
      </trkpt>
      <trkpt lat="48.39275" lon="4.84454">
        <ele>182</ele>
        <time>2023-09-09T09:43:09Z</time>
      </trkpt>
      <trkpt lat="48.3923" lon="4.84464">
        <ele>183.6</ele>
        <time>2023-09-09T09:43:17Z</time>
      </trkpt>
      <trkpt lat="48.39187" lon="4.8448">
        <ele>184.3</ele>
        <time>2023-09-09T09:43:25Z</time>
      </trkpt>
      <trkpt lat="48.39153" lon="4.84489">
        <ele>184.7</ele>
        <time>2023-09-09T09:43:32Z</time>
      </trkpt>
      <trkpt lat="48.39111" lon="4.84494">
        <ele>186.2</ele>
        <time>2023-09-09T09:43:40Z</time>
      </trkpt>
      <trkpt lat="48.39097" lon="4.84492">
        <ele>186.8</ele>
        <time>2023-09-09T09:43:43Z</time>
      </trkpt>
      <trkpt lat="48.39071" lon="4.8449">
        <ele>187.8</ele>
        <time>2023-09-09T09:43:48Z</time>
      </trkpt>
      <trkpt lat="48.39058" lon="4.84489">
        <ele>188</ele>
        <time>2023-09-09T09:43:52Z</time>
      </trkpt>
      <trkpt lat="48.39046" lon="4.84488">
        <ele>188.2</ele>
        <time>2023-09-09T09:43:55Z</time>
      </trkpt>
      <trkpt lat="48.3902" lon="4.84479">
        <ele>188.5</ele>
        <time>2023-09-09T09:44:01Z</time>
      </trkpt>
      <trkpt lat="48.38997" lon="4.84467">
        <ele>188.8</ele>
        <time>2023-09-09T09:44:07Z</time>
      </trkpt>
      <trkpt lat="48.38993" lon="4.84464">
        <ele>188.8</ele>
        <time>2023-09-09T09:44:08Z</time>
      </trkpt>
      <trkpt lat="48.38954" lon="4.84443">
        <ele>189.8</ele>
        <time>2023-09-09T09:44:17Z</time>
      </trkpt>
      <trkpt lat="48.38931" lon="4.8443">
        <ele>190.8</ele>
        <time>2023-09-09T09:44:24Z</time>
      </trkpt>
      <trkpt lat="48.38913" lon="4.84421">
        <ele>191.3</ele>
        <time>2023-09-09T09:44:30Z</time>
      </trkpt>
      <trkpt lat="48.38906" lon="4.84401">
        <ele>191.8</ele>
        <time>2023-09-09T09:44:35Z</time>
      </trkpt>
      <trkpt lat="48.38909" lon="4.84387">
        <ele>192</ele>
        <time>2023-09-09T09:44:37Z</time>
      </trkpt>
      <trkpt lat="48.38913" lon="4.84373">
        <ele>192.2</ele>
        <time>2023-09-09T09:44:39Z</time>
      </trkpt>
      <trkpt lat="48.38926" lon="4.84328">
        <ele>192.8</ele>
        <time>2023-09-09T09:44:46Z</time>
      </trkpt>
      <trkpt lat="48.38935" lon="4.84282">
        <ele>193.4</ele>
        <time>2023-09-09T09:44:53Z</time>
      </trkpt>
      <trkpt lat="48.38941" lon="4.84238">
        <ele>194</ele>
        <time>2023-09-09T09:45:01Z</time>
      </trkpt>
      <trkpt lat="48.38944" lon="4.84221">
        <ele>194.2</ele>
        <time>2023-09-09T09:45:06Z</time>
      </trkpt>
      <trkpt lat="48.38944" lon="4.84211">
        <ele>194.1</ele>
        <time>2023-09-09T09:45:11Z</time>
      </trkpt>
      <trkpt lat="48.38944" lon="4.84211">
        <ele>194.1</ele>
        <time>2023-09-09T09:45:13Z</time>
      </trkpt>
      <trkpt lat="48.38944" lon="4.84212">
        <ele>194.1</ele>
        <time>2023-09-09T09:53:43Z</time>
      </trkpt>
      <trkpt lat="48.38944" lon="4.84216">
        <ele>194</ele>
        <time>2023-09-09T09:53:44Z</time>
      </trkpt>
      <trkpt lat="48.38941" lon="4.84241">
        <ele>193.8</ele>
        <time>2023-09-09T09:53:48Z</time>
      </trkpt>
      <trkpt lat="48.38932" lon="4.84291">
        <ele>193.2</ele>
        <time>2023-09-09T09:53:55Z</time>
      </trkpt>
      <trkpt lat="48.38918" lon="4.8435">
        <ele>192.4</ele>
        <time>2023-09-09T09:54:02Z</time>
      </trkpt>
      <trkpt lat="48.38909" lon="4.84385">
        <ele>192</ele>
        <time>2023-09-09T09:54:07Z</time>
      </trkpt>
      <trkpt lat="48.38908" lon="4.8439">
        <ele>191.9</ele>
        <time>2023-09-09T09:54:08Z</time>
      </trkpt>
      <trkpt lat="48.38904" lon="4.84415">
        <ele>191.6</ele>
        <time>2023-09-09T09:54:13Z</time>
      </trkpt>
      <trkpt lat="48.38911" lon="4.8442">
        <ele>191.3</ele>
        <time>2023-09-09T09:54:16Z</time>
      </trkpt>
      <trkpt lat="48.38915" lon="4.84422">
        <ele>191.2</ele>
        <time>2023-09-09T09:54:17Z</time>
      </trkpt>
      <trkpt lat="48.38939" lon="4.84435">
        <ele>190.5</ele>
        <time>2023-09-09T09:54:22Z</time>
      </trkpt>
      <trkpt lat="48.38977" lon="4.84456">
        <ele>189</ele>
        <time>2023-09-09T09:54:28Z</time>
      </trkpt>
      <trkpt lat="48.3901" lon="4.84474">
        <ele>188.7</ele>
        <time>2023-09-09T09:54:32Z</time>
      </trkpt>
      <trkpt lat="48.3903" lon="4.84484">
        <ele>188.4</ele>
        <time>2023-09-09T09:54:35Z</time>
      </trkpt>
      <trkpt lat="48.39073" lon="4.8449">
        <ele>187.7</ele>
        <time>2023-09-09T09:54:42Z</time>
      </trkpt>
      <trkpt lat="48.39125" lon="4.84495">
        <ele>185.5</ele>
        <time>2023-09-09T09:54:49Z</time>
      </trkpt>
      <trkpt lat="48.39172" lon="4.84484">
        <ele>184.5</ele>
        <time>2023-09-09T09:54:54Z</time>
      </trkpt>
      <trkpt lat="48.39224" lon="4.84466">
        <ele>183.7</ele>
        <time>2023-09-09T09:55:02Z</time>
      </trkpt>
      <trkpt lat="48.39277" lon="4.84454">
        <ele>182</ele>
        <time>2023-09-09T09:55:09Z</time>
      </trkpt>
      <trkpt lat="48.39338" lon="4.84454">
        <ele>179.9</ele>
        <time>2023-09-09T09:55:16Z</time>
      </trkpt>
      <trkpt lat="48.39383" lon="4.84454">
        <ele>179</ele>
        <time>2023-09-09T09:55:23Z</time>
      </trkpt>
      <trkpt lat="48.39396" lon="4.84454">
        <ele>179.2</ele>
        <time>2023-09-09T09:55:25Z</time>
      </trkpt>
      <trkpt lat="48.39415" lon="4.84442">
        <ele>179.5</ele>
        <time>2023-09-09T09:55:27Z</time>
      </trkpt>
      <trkpt lat="48.39433" lon="4.84432">
        <ele>180.2</ele>
        <time>2023-09-09T09:55:31Z</time>
      </trkpt>
      <trkpt lat="48.39473" lon="4.84398">
        <ele>182.6</ele>
        <time>2023-09-09T09:55:38Z</time>
      </trkpt>
      <trkpt lat="48.39508" lon="4.84382">
        <ele>183.6</ele>
        <time>2023-09-09T09:55:46Z</time>
      </trkpt>
      <trkpt lat="48.39541" lon="4.84379">
        <ele>184</ele>
        <time>2023-09-09T09:55:52Z</time>
      </trkpt>
      <trkpt lat="48.39582" lon="4.8439">
        <ele>183.3</ele>
        <time>2023-09-09T09:55:59Z</time>
      </trkpt>
      <trkpt lat="48.39642" lon="4.84406">
        <ele>182.2</ele>
        <time>2023-09-09T09:56:08Z</time>
      </trkpt>
      <trkpt lat="48.39691" lon="4.84419">
        <ele>181.3</ele>
        <time>2023-09-09T09:56:15Z</time>
      </trkpt>
      <trkpt lat="48.39748" lon="4.84434">
        <ele>180.8</ele>
        <time>2023-09-09T09:56:22Z</time>
      </trkpt>
      <trkpt lat="48.39755" lon="4.84436">
        <ele>180.9</ele>
        <time>2023-09-09T09:56:24Z</time>
      </trkpt>
      <trkpt lat="48.39808" lon="4.84453">
        <ele>181</ele>
        <time>2023-09-09T09:56:32Z</time>
      </trkpt>
      <trkpt lat="48.39857" lon="4.84469">
        <ele>180.2</ele>
        <time>2023-09-09T09:56:39Z</time>
      </trkpt>
      <trkpt lat="48.39913" lon="4.84485">
        <ele>178.5</ele>
        <time>2023-09-09T09:56:45Z</time>
      </trkpt>
      <trkpt lat="48.39913" lon="4.84485">
        <ele>178.5</ele>
        <time>2023-09-09T09:56:46Z</time>
      </trkpt>
      <trkpt lat="48.39967" lon="4.84497">
        <ele>177.4</ele>
        <time>2023-09-09T09:56:53Z</time>
      </trkpt>
      <trkpt lat="48.39975" lon="4.84499">
        <ele>177.2</ele>
        <time>2023-09-09T09:56:54Z</time>
      </trkpt>
      <trkpt lat="48.40023" lon="4.84519">
        <ele>176.9</ele>
        <time>2023-09-09T09:57:01Z</time>
      </trkpt>
      <trkpt lat="48.40077" lon="4.84551">
        <ele>176.7</ele>
        <time>2023-09-09T09:57:09Z</time>
      </trkpt>
      <trkpt lat="48.40122" lon="4.84578">
        <ele>176.5</ele>
        <time>2023-09-09T09:57:16Z</time>
      </trkpt>
      <trkpt lat="48.40168" lon="4.84598">
        <ele>176.2</ele>
        <time>2023-09-09T09:57:23Z</time>
      </trkpt>
      <trkpt lat="48.40217" lon="4.84619">
        <ele>175.5</ele>
        <time>2023-09-09T09:57:30Z</time>
      </trkpt>
      <trkpt lat="48.40271" lon="4.84643">
        <ele>174.3</ele>
        <time>2023-09-09T09:57:38Z</time>
      </trkpt>
      <trkpt lat="48.40291" lon="4.84646">
        <ele>173.6</ele>
        <time>2023-09-09T09:57:40Z</time>
      </trkpt>
      <trkpt lat="48.40304" lon="4.84644">
        <ele>173.1</ele>
        <time>2023-09-09T09:57:43Z</time>
      </trkpt>
      <trkpt lat="48.40359" lon="4.84621">
        <ele>171.4</ele>
        <time>2023-09-09T09:57:50Z</time>
      </trkpt>
      <trkpt lat="48.40366" lon="4.84618">
        <ele>171.2</ele>
        <time>2023-09-09T09:57:51Z</time>
      </trkpt>
      <trkpt lat="48.40424" lon="4.84593">
        <ele>169.7</ele>
        <time>2023-09-09T09:58:00Z</time>
      </trkpt>
      <trkpt lat="48.40445" lon="4.84584">
        <ele>169.1</ele>
        <time>2023-09-09T09:58:02Z</time>
      </trkpt>
      <trkpt lat="48.4049" lon="4.84571">
        <ele>168</ele>
        <time>2023-09-09T09:58:09Z</time>
      </trkpt>
      <trkpt lat="48.40549" lon="4.84555">
        <ele>166.4</ele>
        <time>2023-09-09T09:58:17Z</time>
      </trkpt>
      <trkpt lat="48.40556" lon="4.84552">
        <ele>166.1</ele>
        <time>2023-09-09T09:58:18Z</time>
      </trkpt>
      <trkpt lat="48.40601" lon="4.84547">
        <ele>163.5</ele>
        <time>2023-09-09T09:58:23Z</time>
      </trkpt>
      <trkpt lat="48.40609" lon="4.84547">
        <ele>163</ele>
        <time>2023-09-09T09:58:24Z</time>
      </trkpt>
      <trkpt lat="48.40631" lon="4.84548">
        <ele>161.5</ele>
        <time>2023-09-09T09:58:28Z</time>
      </trkpt>
      <trkpt lat="48.40639" lon="4.84548">
        <ele>160.9</ele>
        <time>2023-09-09T09:58:29Z</time>
      </trkpt>
      <trkpt lat="48.40647" lon="4.84548">
        <ele>160.2</ele>
        <time>2023-09-09T09:58:30Z</time>
      </trkpt>
      <trkpt lat="48.4066" lon="4.84538">
        <ele>158.9</ele>
        <time>2023-09-09T09:58:32Z</time>
      </trkpt>
      <trkpt lat="48.40688" lon="4.84507">
        <ele>155.9</ele>
        <time>2023-09-09T09:58:35Z</time>
      </trkpt>
      <trkpt lat="48.40695" lon="4.84499">
        <ele>155.2</ele>
        <time>2023-09-09T09:58:37Z</time>
      </trkpt>
      <trkpt lat="48.4071" lon="4.84489">
        <ele>154.1</ele>
        <time>2023-09-09T09:58:39Z</time>
      </trkpt>
      <trkpt lat="48.40718" lon="4.84487">
        <ele>153.5</ele>
        <time>2023-09-09T09:58:40Z</time>
      </trkpt>
      <trkpt lat="48.40751" lon="4.84501">
        <ele>151.5</ele>
        <time>2023-09-09T09:58:44Z</time>
      </trkpt>
      <trkpt lat="48.40799" lon="4.84521">
        <ele>150.5</ele>
        <time>2023-09-09T09:58:50Z</time>
      </trkpt>
      <trkpt lat="48.40848" lon="4.84544">
        <ele>150</ele>
        <time>2023-09-09T09:58:56Z</time>
      </trkpt>
      <trkpt lat="48.40883" lon="4.84564">
        <ele>150.2</ele>
        <time>2023-09-09T09:59:03Z</time>
      </trkpt>
      <trkpt lat="48.40902" lon="4.84575">
        <ele>150.2</ele>
        <time>2023-09-09T09:59:07Z</time>
      </trkpt>
      <trkpt lat="48.40906" lon="4.84577">
        <ele>150.2</ele>
        <time>2023-09-09T09:59:09Z</time>
      </trkpt>
      <trkpt lat="48.40908" lon="4.84579">
        <ele>150.1</ele>
        <time>2023-09-09T09:59:10Z</time>
      </trkpt>
      <trkpt lat="48.4091" lon="4.84601">
        <ele>149.9</ele>
        <time>2023-09-09T09:59:14Z</time>
      </trkpt>
      <trkpt lat="48.40899" lon="4.84619">
        <ele>150</ele>
        <time>2023-09-09T09:59:20Z</time>
      </trkpt>
      <trkpt lat="48.40893" lon="4.84629">
        <ele>150.1</ele>
        <time>2023-09-09T09:59:26Z</time>
      </trkpt>
      <trkpt lat="48.40892" lon="4.84631">
        <ele>150.1</ele>
        <time>2023-09-09T09:59:29Z</time>
      </trkpt>
      <trkpt lat="48.40894" lon="4.84626">
        <ele>150.1</ele>
        <time>2023-09-09T09:59:33Z</time>
      </trkpt>
      <trkpt lat="48.40901" lon="4.84616">
        <ele>150</ele>
        <time>2023-09-09T09:59:40Z</time>
      </trkpt>
      <trkpt lat="48.40913" lon="4.84596">
        <ele>149.9</ele>
        <time>2023-09-09T09:59:46Z</time>
      </trkpt>
      <trkpt lat="48.40926" lon="4.84585">
        <ele>149.9</ele>
        <time>2023-09-09T09:59:51Z</time>
      </trkpt>
      <trkpt lat="48.4093" lon="4.84585">
        <ele>149.9</ele>
        <time>2023-09-09T09:59:52Z</time>
      </trkpt>
      <trkpt lat="48.40956" lon="4.84584">
        <ele>150.2</ele>
        <time>2023-09-09T09:59:57Z</time>
      </trkpt>
      <trkpt lat="48.4096" lon="4.84583">
        <ele>150.2</ele>
        <time>2023-09-09T09:59:59Z</time>
      </trkpt>
      <trkpt lat="48.40969" lon="4.84583">
        <ele>150.3</ele>
        <time>2023-09-09T10:00:01Z</time>
      </trkpt>
      <trkpt lat="48.40973" lon="4.84583">
        <ele>150.4</ele>
        <time>2023-09-09T10:00:02Z</time>
      </trkpt>
      <trkpt lat="48.40981" lon="4.84575">
        <ele>150.6</ele>
        <time>2023-09-09T10:00:04Z</time>
      </trkpt>
      <trkpt lat="48.40987" lon="4.84565">
        <ele>150.8</ele>
        <time>2023-09-09T10:00:06Z</time>
      </trkpt>
      <trkpt lat="48.40996" lon="4.84531">
        <ele>151.4</ele>
        <time>2023-09-09T10:00:11Z</time>
      </trkpt>
      <trkpt lat="48.40997" lon="4.84525">
        <ele>151.6</ele>
        <time>2023-09-09T10:00:12Z</time>
      </trkpt>
      <trkpt lat="48.41009" lon="4.84479">
        <ele>153</ele>
        <time>2023-09-09T10:00:19Z</time>
      </trkpt>
      <trkpt lat="48.41015" lon="4.84453">
        <ele>153.8</ele>
        <time>2023-09-09T10:00:26Z</time>
      </trkpt>
      <trkpt lat="48.41023" lon="4.84452">
        <ele>154.4</ele>
        <time>2023-09-09T10:00:29Z</time>
      </trkpt>
      <trkpt lat="48.41031" lon="4.84472">
        <ele>154.6</ele>
        <time>2023-09-09T10:00:34Z</time>
      </trkpt>
      <trkpt lat="48.41037" lon="4.84486">
        <ele>154.8</ele>
        <time>2023-09-09T10:00:37Z</time>
      </trkpt>
      <trkpt lat="48.41043" lon="4.84503">
        <ele>155</ele>
        <time>2023-09-09T10:00:40Z</time>
      </trkpt>
      <trkpt lat="48.41044" lon="4.84508">
        <ele>155.1</ele>
        <time>2023-09-09T10:00:41Z</time>
      </trkpt>
      <trkpt lat="48.41046" lon="4.8452">
        <ele>155.3</ele>
        <time>2023-09-09T10:00:43Z</time>
      </trkpt>
      <trkpt lat="48.41049" lon="4.84533">
        <ele>155.5</ele>
        <time>2023-09-09T10:00:45Z</time>
      </trkpt>
      <trkpt lat="48.4105" lon="4.84592">
        <ele>156.3</ele>
        <time>2023-09-09T10:00:53Z</time>
      </trkpt>
      <trkpt lat="48.41049" lon="4.84654">
        <ele>157.1</ele>
        <time>2023-09-09T10:01:01Z</time>
      </trkpt>
      <trkpt lat="48.41048" lon="4.84707">
        <ele>157.7</ele>
        <time>2023-09-09T10:01:08Z</time>
      </trkpt>
      <trkpt lat="48.4105" lon="4.84778">
        <ele>158.3</ele>
        <time>2023-09-09T10:01:17Z</time>
      </trkpt>
      <trkpt lat="48.41054" lon="4.84844">
        <ele>158.6</ele>
        <time>2023-09-09T10:01:24Z</time>
      </trkpt>
      <trkpt lat="48.41057" lon="4.84891">
        <ele>159</ele>
        <time>2023-09-09T10:01:31Z</time>
      </trkpt>
      <trkpt lat="48.41069" lon="4.84941">
        <ele>159.4</ele>
        <time>2023-09-09T10:01:38Z</time>
      </trkpt>
      <trkpt lat="48.41082" lon="4.84994">
        <ele>160.4</ele>
        <time>2023-09-09T10:01:45Z</time>
      </trkpt>
      <trkpt lat="48.41095" lon="4.85041">
        <ele>161.2</ele>
        <time>2023-09-09T10:01:51Z</time>
      </trkpt>
      <trkpt lat="48.4111" lon="4.851">
        <ele>161.4</ele>
        <time>2023-09-09T10:01:58Z</time>
      </trkpt>
      <trkpt lat="48.41115" lon="4.85117">
        <ele>161.3</ele>
        <time>2023-09-09T10:02:00Z</time>
      </trkpt>
      <trkpt lat="48.41127" lon="4.85152">
        <ele>161</ele>
        <time>2023-09-09T10:02:04Z</time>
      </trkpt>
      <trkpt lat="48.41153" lon="4.85232">
        <ele>160.2</ele>
        <time>2023-09-09T10:02:13Z</time>
      </trkpt>
      <trkpt lat="48.41178" lon="4.85306">
        <ele>158.3</ele>
        <time>2023-09-09T10:02:21Z</time>
      </trkpt>
      <trkpt lat="48.41198" lon="4.85368">
        <ele>155.2</ele>
        <time>2023-09-09T10:02:27Z</time>
      </trkpt>
      <trkpt lat="48.41224" lon="4.85448">
        <ele>153.1</ele>
        <time>2023-09-09T10:02:34Z</time>
      </trkpt>
      <trkpt lat="48.41231" lon="4.85469">
        <ele>153</ele>
        <time>2023-09-09T10:02:36Z</time>
      </trkpt>
      <trkpt lat="48.41253" lon="4.85534">
        <ele>153.7</ele>
        <time>2023-09-09T10:02:42Z</time>
      </trkpt>
      <trkpt lat="48.41277" lon="4.85607">
        <ele>154.6</ele>
        <time>2023-09-09T10:02:49Z</time>
      </trkpt>
      <trkpt lat="48.41284" lon="4.85627">
        <ele>155</ele>
        <time>2023-09-09T10:02:51Z</time>
      </trkpt>
      <trkpt lat="48.41308" lon="4.85703">
        <ele>155.7</ele>
        <time>2023-09-09T10:02:59Z</time>
      </trkpt>
      <trkpt lat="48.4131" lon="4.85712">
        <ele>155.8</ele>
        <time>2023-09-09T10:03:00Z</time>
      </trkpt>
      <trkpt lat="48.4133" lon="4.85777">
        <ele>155.4</ele>
        <time>2023-09-09T10:03:07Z</time>
      </trkpt>
      <trkpt lat="48.41351" lon="4.85843">
        <ele>154.6</ele>
        <time>2023-09-09T10:03:14Z</time>
      </trkpt>
      <trkpt lat="48.41374" lon="4.85919">
        <ele>153.4</ele>
        <time>2023-09-09T10:03:22Z</time>
      </trkpt>
      <trkpt lat="48.41392" lon="4.85978">
        <ele>153.1</ele>
        <time>2023-09-09T10:03:28Z</time>
      </trkpt>
      <trkpt lat="48.41416" lon="4.86057">
        <ele>152.7</ele>
        <time>2023-09-09T10:03:36Z</time>
      </trkpt>
      <trkpt lat="48.41441" lon="4.86138">
        <ele>153.4</ele>
        <time>2023-09-09T10:03:44Z</time>
      </trkpt>
      <trkpt lat="48.41444" lon="4.86148">
        <ele>153.5</ele>
        <time>2023-09-09T10:03:45Z</time>
      </trkpt>
      <trkpt lat="48.41466" lon="4.86221">
        <ele>155.6</ele>
        <time>2023-09-09T10:03:53Z</time>
      </trkpt>
      <trkpt lat="48.41484" lon="4.86278">
        <ele>156.7</ele>
        <time>2023-09-09T10:04:00Z</time>
      </trkpt>
      <trkpt lat="48.41502" lon="4.86322">
        <ele>157.5</ele>
        <time>2023-09-09T10:04:06Z</time>
      </trkpt>
      <trkpt lat="48.41509" lon="4.86337">
        <ele>157.6</ele>
        <time>2023-09-09T10:04:08Z</time>
      </trkpt>
      <trkpt lat="48.41535" lon="4.864">
        <ele>157.4</ele>
        <time>2023-09-09T10:04:16Z</time>
      </trkpt>
      <trkpt lat="48.41566" lon="4.86472">
        <ele>157.3</ele>
        <time>2023-09-09T10:04:25Z</time>
      </trkpt>
      <trkpt lat="48.41591" lon="4.86532">
        <ele>157.9</ele>
        <time>2023-09-09T10:04:32Z</time>
      </trkpt>
      <trkpt lat="48.41599" lon="4.86576">
        <ele>159</ele>
        <time>2023-09-09T10:04:37Z</time>
      </trkpt>
      <trkpt lat="48.41605" lon="4.86638">
        <ele>161.3</ele>
        <time>2023-09-09T10:04:45Z</time>
      </trkpt>
      <trkpt lat="48.41607" lon="4.86716">
        <ele>163.1</ele>
        <time>2023-09-09T10:04:56Z</time>
      </trkpt>
      <trkpt lat="48.41608" lon="4.86744">
        <ele>163.6</ele>
        <time>2023-09-09T10:05:00Z</time>
      </trkpt>
      <trkpt lat="48.4161" lon="4.86773">
        <ele>164.1</ele>
        <time>2023-09-09T10:05:04Z</time>
      </trkpt>
      <trkpt lat="48.41619" lon="4.86849">
        <ele>165.3</ele>
        <time>2023-09-09T10:05:14Z</time>
      </trkpt>
      <trkpt lat="48.41629" lon="4.86928">
        <ele>166</ele>
        <time>2023-09-09T10:05:24Z</time>
      </trkpt>
      <trkpt lat="48.41639" lon="4.87003">
        <ele>167.1</ele>
        <time>2023-09-09T10:05:33Z</time>
      </trkpt>
      <trkpt lat="48.41648" lon="4.87053">
        <ele>167.2</ele>
        <time>2023-09-09T10:05:40Z</time>
      </trkpt>
      <trkpt lat="48.41659" lon="4.87104">
        <ele>166.2</ele>
        <time>2023-09-09T10:05:47Z</time>
      </trkpt>
      <trkpt lat="48.41674" lon="4.87159">
        <ele>164.6</ele>
        <time>2023-09-09T10:05:54Z</time>
      </trkpt>
      <trkpt lat="48.41681" lon="4.87185">
        <ele>163.8</ele>
        <time>2023-09-09T10:05:57Z</time>
      </trkpt>
      <trkpt lat="48.41681" lon="4.87204">
        <ele>163.2</ele>
        <time>2023-09-09T10:05:59Z</time>
      </trkpt>
      <trkpt lat="48.4168" lon="4.87224">
        <ele>162.7</ele>
        <time>2023-09-09T10:06:01Z</time>
      </trkpt>
      <trkpt lat="48.41678" lon="4.87265">
        <ele>161.8</ele>
        <time>2023-09-09T10:06:05Z</time>
      </trkpt>
      <trkpt lat="48.41676" lon="4.87334">
        <ele>160.5</ele>
        <time>2023-09-09T10:06:12Z</time>
      </trkpt>
      <trkpt lat="48.41672" lon="4.87417">
        <ele>159.1</ele>
        <time>2023-09-09T10:06:18Z</time>
      </trkpt>
      <trkpt lat="48.41672" lon="4.87417">
        <ele>159.1</ele>
        <time>2023-09-09T10:06:19Z</time>
      </trkpt>
      <trkpt lat="48.41669" lon="4.87492">
        <ele>158.7</ele>
        <time>2023-09-09T10:06:25Z</time>
      </trkpt>
      <trkpt lat="48.41667" lon="4.87555">
        <ele>158.8</ele>
        <time>2023-09-09T10:06:31Z</time>
      </trkpt>
      <trkpt lat="48.41667" lon="4.87565">
        <ele>158.9</ele>
        <time>2023-09-09T10:06:32Z</time>
      </trkpt>
      <trkpt lat="48.41668" lon="4.87598">
        <ele>159.3</ele>
        <time>2023-09-09T10:06:36Z</time>
      </trkpt>
      <trkpt lat="48.41674" lon="4.87675">
        <ele>159.9</ele>
        <time>2023-09-09T10:06:43Z</time>
      </trkpt>
      <trkpt lat="48.41675" lon="4.87684">
        <ele>159.9</ele>
        <time>2023-09-09T10:06:44Z</time>
      </trkpt>
      <trkpt lat="48.41685" lon="4.87741">
        <ele>160</ele>
        <time>2023-09-09T10:06:50Z</time>
      </trkpt>
      <trkpt lat="48.41696" lon="4.87814">
        <ele>160.1</ele>
        <time>2023-09-09T10:06:58Z</time>
      </trkpt>
      <trkpt lat="48.4171" lon="4.87901">
        <ele>160.4</ele>
        <time>2023-09-09T10:07:07Z</time>
      </trkpt>
      <trkpt lat="48.41712" lon="4.87962">
        <ele>161</ele>
        <time>2023-09-09T10:07:14Z</time>
      </trkpt>
      <trkpt lat="48.41712" lon="4.88031">
        <ele>162</ele>
        <time>2023-09-09T10:07:22Z</time>
      </trkpt>
      <trkpt lat="48.41713" lon="4.88097">
        <ele>161.8</ele>
        <time>2023-09-09T10:07:29Z</time>
      </trkpt>
      <trkpt lat="48.41713" lon="4.88136">
        <ele>161.4</ele>
        <time>2023-09-09T10:07:33Z</time>
      </trkpt>
      <trkpt lat="48.41714" lon="4.88144">
        <ele>161.4</ele>
        <time>2023-09-09T10:07:34Z</time>
      </trkpt>
      <trkpt lat="48.41717" lon="4.88152">
        <ele>161.3</ele>
        <time>2023-09-09T10:07:35Z</time>
      </trkpt>
      <trkpt lat="48.41723" lon="4.88168">
        <ele>161.2</ele>
        <time>2023-09-09T10:07:37Z</time>
      </trkpt>
      <trkpt lat="48.41726" lon="4.88177">
        <ele>161.2</ele>
        <time>2023-09-09T10:07:38Z</time>
      </trkpt>
      <trkpt lat="48.4175" lon="4.88244">
        <ele>160.9</ele>
        <time>2023-09-09T10:07:46Z</time>
      </trkpt>
      <trkpt lat="48.41772" lon="4.88304">
        <ele>160.9</ele>
        <time>2023-09-09T10:07:54Z</time>
      </trkpt>
      <trkpt lat="48.41783" lon="4.88357">
        <ele>161.5</ele>
        <time>2023-09-09T10:08:00Z</time>
      </trkpt>
      <trkpt lat="48.41793" lon="4.88421">
        <ele>163.3</ele>
        <time>2023-09-09T10:08:07Z</time>
      </trkpt>
      <trkpt lat="48.41798" lon="4.88459">
        <ele>164.7</ele>
        <time>2023-09-09T10:08:12Z</time>
      </trkpt>
      <trkpt lat="48.41804" lon="4.88513">
        <ele>167</ele>
        <time>2023-09-09T10:08:20Z</time>
      </trkpt>
      <trkpt lat="48.4181" lon="4.8857">
        <ele>169.1</ele>
        <time>2023-09-09T10:08:29Z</time>
      </trkpt>
      <trkpt lat="48.41815" lon="4.8862">
        <ele>170.7</ele>
        <time>2023-09-09T10:08:37Z</time>
      </trkpt>
      <trkpt lat="48.4182" lon="4.88662">
        <ele>171.6</ele>
        <time>2023-09-09T10:08:45Z</time>
      </trkpt>
      <trkpt lat="48.41828" lon="4.88696">
        <ele>171.9</ele>
        <time>2023-09-09T10:08:52Z</time>
      </trkpt>
      <trkpt lat="48.41838" lon="4.88721">
        <ele>171.9</ele>
        <time>2023-09-09T10:08:58Z</time>
      </trkpt>
      <trkpt lat="48.41853" lon="4.88738">
        <ele>171.5</ele>
        <time>2023-09-09T10:09:04Z</time>
      </trkpt>
      <trkpt lat="48.41878" lon="4.8876">
        <ele>170.8</ele>
        <time>2023-09-09T10:09:10Z</time>
      </trkpt>
      <trkpt lat="48.41909" lon="4.8878">
        <ele>170.2</ele>
        <time>2023-09-09T10:09:17Z</time>
      </trkpt>
      <trkpt lat="48.41918" lon="4.88782">
        <ele>170</ele>
        <time>2023-09-09T10:09:19Z</time>
      </trkpt>
      <trkpt lat="48.41942" lon="4.88788">
        <ele>169.2</ele>
        <time>2023-09-09T10:09:24Z</time>
      </trkpt>
      <trkpt lat="48.41985" lon="4.88797">
        <ele>167.9</ele>
        <time>2023-09-09T10:09:32Z</time>
      </trkpt>
      <trkpt lat="48.42003" lon="4.88801">
        <ele>167.3</ele>
        <time>2023-09-09T10:09:35Z</time>
      </trkpt>
      <trkpt lat="48.42015" lon="4.88805">
        <ele>166.9</ele>
        <time>2023-09-09T10:09:37Z</time>
      </trkpt>
      <trkpt lat="48.4205" lon="4.88834">
        <ele>165.9</ele>
        <time>2023-09-09T10:09:43Z</time>
      </trkpt>
      <trkpt lat="48.42075" lon="4.88855">
        <ele>165.7</ele>
        <time>2023-09-09T10:09:47Z</time>
      </trkpt>
      <trkpt lat="48.42081" lon="4.88862">
        <ele>165.8</ele>
        <time>2023-09-09T10:09:48Z</time>
      </trkpt>
      <trkpt lat="48.42098" lon="4.88893">
        <ele>166.1</ele>
        <time>2023-09-09T10:09:53Z</time>
      </trkpt>
      <trkpt lat="48.42105" lon="4.88914">
        <ele>166.5</ele>
        <time>2023-09-09T10:09:58Z</time>
      </trkpt>
      <trkpt lat="48.42106" lon="4.88926">
        <ele>166.7</ele>
        <time>2023-09-09T10:10:03Z</time>
      </trkpt>
      <trkpt lat="48.42106" lon="4.88926">
        <ele>166.7</ele>
        <time>2023-09-09T10:10:04Z</time>
      </trkpt>
      <trkpt lat="48.42111" lon="4.8893">
        <ele>166.9</ele>
        <time>2023-09-09T10:12:39Z</time>
      </trkpt>
      <trkpt lat="48.42106" lon="4.88925">
        <ele>166.8</ele>
        <time>2023-09-09T10:12:41Z</time>
      </trkpt>
      <trkpt lat="48.42101" lon="4.88899">
        <ele>166.3</ele>
        <time>2023-09-09T10:12:46Z</time>
      </trkpt>
      <trkpt lat="48.42087" lon="4.88873">
        <ele>166</ele>
        <time>2023-09-09T10:12:52Z</time>
      </trkpt>
      <trkpt lat="48.4208" lon="4.8886">
        <ele>165.9</ele>
        <time>2023-09-09T10:12:57Z</time>
      </trkpt>
      <trkpt lat="48.42085" lon="4.88859">
        <ele>165.8</ele>
        <time>2023-09-09T10:12:59Z</time>
      </trkpt>
      <trkpt lat="48.42078" lon="4.88857">
        <ele>165.8</ele>
        <time>2023-09-09T10:13:02Z</time>
      </trkpt>
      <trkpt lat="48.42078" lon="4.88857">
        <ele>165.8</ele>
        <time>2023-09-09T10:13:06Z</time>
      </trkpt>
    </trkseg>
  </trk>
</gpx>